GFSSE_250_spd_000.txt.gz
Wind_Speed
34 32 27 28 28 29 31 33 35 36 35 38 41 41 42 42 44 44 45 45 47 48 50 51 52 53 54 56 56 55 55 57 56 57 58 60 61 60 57 57 59 57 57
35 32 32 33 33 34 33 32 34 35 36 36 39 40 43 43 43 45 46 47 48 51 55 55 53 52 53 54 51 50 51 51 52 53 51 51 48 49 50 50 50 48 49
37 34 36 38 39 40 41 40 39 40 41 40 41 42 43 46 44 46 48 50 53 55 56 57 54 52 50 50 46 43 45 46 46 45 47 44 45 45 45 46 45 43 43
31 33 34 36 43 45 46 46 47 45 44 43 45 45 44 47 50 55 56 58 59 58 57 55 53 50 48 42 40 40 45 45 45 46 41 42 43 44 44 42 42 43 42
38 40 43 45 46 49 50 50 50 50 49 50 49 48 51 54 53 55 56 57 57 56 52 52 52 47 44 38 39 41 46 47 45 41 42 41 39 43 43 42 42 41 42
44 45 48 48 48 48 49 52 53 54 54 51 53 56 59 58 57 57 55 56 55 52 52 50 49 44 39 38 40 44 45 42 42 42 43 40 42 46 44 43 42 42 42
48 47 50 50 50 48 46 49 52 55 53 55 55 58 59 59 60 58 55 54 53 51 50 48 46 41 39 41 42 41 45 44 46 40 43 42 45 43 45 43 44 42 43
50 48 49 49 52 52 53 55 52 53 57 59 60 62 60 63 60 53 52 50 50 49 47 45 43 40 41 42 37 38 43 43 38 43 42 42 46 48 47 46 43 43 43
50 50 51 53 54 57 53 58 58 59 60 64 66 65 63 59 54 49 46 46 48 47 44 42 39 38 40 39 38 44 46 48 46 47 43 46 47 47 47 45 45 45 45
52 53 55 59 60 59 61 62 61 67 66 66 64 63 60 50 44 42 40 45 45 42 39 38 38 37 38 39 40 47 50 48 48 45 47 48 49 49 44 45 45 47 47
62 60 60 62 60 60 64 64 68 67 67 64 61 56 46 43 41 38 40 42 41 37 37 38 39 42 43 41 40 49 45 46 47 50 55 56 52 52 47 45 46 46 46
64 65 66 66 66 66 68 67 68 67 63 59 51 46 42 40 38 39 39 40 39 37 37 38 40 43 43 41 43 48 50 52 53 56 52 49 52 52 50 49 46 46 46
63 63 66 64 65 67 66 67 66 61 53 50 46 40 39 38 39 39 39 38 38 37 38 39 41 45 48 47 44 49 52 54 55 51 52 54 58 55 54 52 50 48 47
65 67 65 67 67 63 63 60 59 53 50 48 40 38 37 39 41 40 39 37 37 37 38 39 41 44 42 42 46 50 54 54 55 54 59 62 64 61 57 57 54 52 51
66 66 67 63 63 58 52 51 51 49 46 39 38 37 38 40 42 42 41 39 37 37 38 41 44 47 47 49 50 53 55 57 62 64 65 68 66 68 62 59 57 58 59
66 66 61 58 53 48 46 49 50 45 38 34 36 37 39 39 40 41 42 41 38 38 39 42 46 49 54 54 58 58 63 66 66 69 69 68 67 66 65 60 61 63 64
61 59 56 49 46 44 47 48 45 36 32 33 36 39 38 38 37 39 41 41 40 39 40 42 46 50 53 57 64 67 72 71 71 72 71 65 67 67 64 66 69 69 67
52 47 44 42 43 44 47 43 35 33 33 36 38 38 37 37 36 37 38 41 42 41 41 42 45 51 56 60 65 67 68 69 69 66 66 69 67 66 68 70 71 68 67
41 39 37 39 42 45 44 34 35 35 36 38 37 37 36 36 37 37 37 39 41 42 43 44 45 49 55 58 60 62 63 62 64 65 65 66 68 70 72 71 69 72 72
33 35 36 39 44 43 34 34 35 37 38 37 36 36 35 36 38 39 39 41 42 42 44 45 49 51 52 53 55 57 59 63 64 65 67 71 73 73 73 73 75 76 78
34 35 34 37 35 31 31 33 35 37 38 37 38 37 37 36 37 39 43 44 44 45 47 49 49 51 53 54 56 60 62 66 68 71 73 74 75 76 76 79 82 83 86
34 37 37 33 29 30 30 32 35 36 37 39 39 39 39 38 39 41 42 43 45 48 49 52 54 57 59 61 62 64 67 72 73 75 76 77 78 79 83 86 89 91 93
33 32 30 24 26 30 33 33 34 37 37 37 38 39 41 41 43 43 44 45 46 49 50 52 56 58 62 66 68 69 70 71 73 78 79 82 85 88 91 93 96 99 101
29 27 25 25 23 25 26 28 31 36 38 39 40 42 44 44 45 47 48 49 50 51 52 56 59 62 64 68 72 76 78 78 79 77 82 87 90 92 97 101 104 105 106
30 27 25 24 25 25 25 27 29 31 34 37 40 41 43 45 47 48 51 53 55 56 57 59 63 66 68 71 74 77 81 84 88 88 85 91 94 97 96 99 102 104 109
30 30 29 26 27 28 29 32 34 36 38 41 43 44 46 49 51 53 54 56 59 62 64 67 70 73 75 77 79 81 84 87 90 90 86 84 87 94 99 103 106 109 115

GFSSE_250_spd_003.txt.gz
Wind_Speed
33 33 32 30 30 32 31 30 31 33 34 32 34 36 36 39 40 42 44 45 48 49 50 51 52 53 52 55 58 58 60 62 61 60 60 61 60 59 59 60 61 60 59
35 36 32 28 30 35 35 34 34 35 37 38 38 39 41 43 43 43 45 47 48 49 48 49 52 55 59 58 59 59 59 61 60 55 57 55 54 53 52 52 50 49 51
39 39 37 35 35 34 40 40 40 41 42 43 44 44 44 44 46 49 49 47 49 52 55 57 59 61 62 61 59 59 58 59 52 48 50 49 47 46 45 43 45 47 47
43 44 43 39 32 33 37 40 42 45 46 46 48 48 52 53 51 53 54 55 57 57 57 59 60 61 60 59 59 58 57 53 46 44 48 47 46 43 41 43 44 45 43
47 45 40 37 37 39 41 43 44 47 49 52 53 54 56 56 57 57 60 62 64 64 62 61 60 60 59 58 60 58 54 47 43 45 47 48 45 42 41 43 44 46 48
47 46 47 46 46 47 45 47 46 46 46 48 49 52 54 55 55 60 59 61 65 62 62 64 61 59 58 58 58 55 47 42 43 46 48 49 46 44 44 43 47 46 45
52 48 47 47 47 50 51 48 48 47 49 52 54 52 52 56 60 63 66 66 63 65 63 60 56 54 54 55 55 48 41 45 46 48 50 50 49 45 43 44 43 43 47
53 53 49 44 47 51 50 47 49 51 53 55 56 57 58 61 63 67 67 63 64 60 57 52 49 50 51 51 50 43 42 47 49 49 49 48 49 43 46 42 44 45 46
58 54 46 46 50 53 52 51 53 57 59 61 59 62 61 64 66 63 62 63 55 51 49 47 48 49 49 49 47 45 47 48 48 47 48 52 53 49 48 45 47 46 46
50 48 48 50 55 55 54 59 61 63 65 67 67 67 64 67 63 66 58 51 46 45 45 48 48 48 47 47 45 45 46 47 51 50 49 52 58 56 54 54 53 53 49
52 55 55 56 57 60 59 63 65 66 67 67 68 68 67 65 61 54 49 43 42 45 46 46 47 47 45 45 46 48 49 49 52 47 52 58 58 54 57 57 57 52 50
63 61 62 63 63 64 63 65 64 64 67 72 68 67 64 60 54 50 41 39 43 45 46 46 45 46 45 46 48 50 48 48 49 50 53 56 56 59 61 60 54 55 56
65 65 66 68 68 67 65 66 67 66 68 68 67 61 60 55 52 40 38 41 43 45 46 47 45 44 43 45 47 50 53 53 51 53 56 59 61 63 62 59 59 64 61
68 69 69 70 70 69 68 69 66 67 67 64 59 58 56 53 43 38 42 44 43 43 45 46 44 43 44 44 47 49 54 57 57 54 57 61 64 63 63 64 64 69 67
65 68 68 68 70 71 72 71 70 65 59 56 55 55 51 44 38 41 44 44 43 42 43 43 44 43 43 46 48 52 52 56 57 55 58 62 65 66 69 70 70 71 73
71 71 69 67 67 68 68 66 63 58 51 53 53 50 42 38 40 43 44 44 42 42 42 41 43 43 43 46 50 52 55 58 59 61 64 66 70 73 75 76 77 76 75
70 69 66 66 64 64 61 59 57 51 49 49 47 39 38 39 41 41 42 42 40 42 42 40 42 44 44 46 50 54 58 64 66 66 69 73 73 77 79 81 82 78 72
71 68 66 67 63 63 54 49 47 46 47 48 41 39 40 42 40 38 39 40 40 41 42 42 41 42 44 47 50 53 57 62 65 71 74 77 79 78 79 78 77 78 78
64 61 58 54 51 48 43 41 43 47 47 41 39 40 41 41 39 38 39 39 39 40 42 43 43 44 44 46 49 52 54 58 61 64 67 70 71 73 73 74 76 78 79
51 48 46 43 43 39 36 38 45 43 38 39 40 41 40 40 42 40 40 40 39 38 38 40 42 43 45 48 49 53 55 56 60 62 65 68 70 71 74 76 78 81 84
41 41 40 38 34 34 34 41 37 31 36 38 39 39 40 41 42 42 42 43 43 44 45 45 45 47 45 46 49 54 57 59 63 65 68 71 74 77 80 82 85 87 89
36 35 33 31 34 33 37 36 34 36 37 38 38 39 40 40 41 42 44 46 48 49 49 50 51 53 54 53 54 55 57 63 64 68 72 75 76 79 82 85 88 90 92
32 32 32 32 34 34 31 30 31 33 35 34 37 40 39 40 41 43 44 46 47 49 50 51 53 55 59 60 60 62 64 67 68 74 78 80 82 85 88 91 94 98 101
33 31 27 27 28 30 30 31 32 32 32 30 30 33 35 36 39 41 44 46 48 50 53 55 56 57 60 64 67 68 69 70 72 70 78 85 88 91 94 98 101 104 108
34 30 29 29 29 28 29 30 31 32 32 33 35 37 40 41 43 46 48 50 52 54 56 58 60 63 63 66 69 72 74 78 79 78 76 85 90 95 97 99 101 103 106
35 29 29 31 32 31 33 33 34 36 38 40 41 43 47 50 52 54 56 59 60 62 62 64 65 66 70 72 74 76 78 83 85 87 87 85 86 91 94 97 101 104 109

GFSSE_250_spd_006.txt.gz
Wind_Speed
39 38 36 36 35 32 33 34 35 34 32 32 34 36 38 39 40 41 43 45 48 47 48 49 51 53 53 55 57 58 60 59 60 62 65 66 67 66 67 67 65 63 61
44 41 41 38 37 34 34 35 36 37 36 36 37 38 41 42 45 48 49 49 50 51 52 54 55 55 54 56 59 60 61 65 65 66 68 66 66 67 66 63 57 54 50
49 44 42 41 37 36 37 36 39 38 35 38 41 42 44 46 46 49 52 54 57 56 57 58 59 60 59 59 61 65 67 66 66 66 65 65 66 62 57 55 48 44 44
52 50 45 46 45 42 44 42 37 34 40 41 43 45 47 51 54 54 56 59 61 61 62 62 64 65 67 68 64 63 65 65 64 65 64 64 60 53 51 50 49 44 42
53 51 48 50 46 44 44 43 39 41 43 44 46 48 47 46 50 52 54 56 60 60 63 64 65 66 66 67 64 63 64 62 62 65 64 61 53 50 52 51 48 48 46
54 55 52 54 52 44 41 45 49 48 45 46 45 44 47 49 53 56 58 58 59 60 64 67 67 70 69 65 65 64 61 60 60 63 62 57 51 52 52 49 51 52 50
59 55 56 55 51 49 48 48 48 47 46 45 47 50 51 54 58 62 63 63 64 64 69 69 65 64 65 63 61 58 59 59 60 62 60 54 50 50 53 52 51 52 49
62 59 58 56 56 55 53 52 48 46 48 49 51 53 56 62 66 68 68 69 69 68 67 68 67 62 59 56 55 55 56 58 59 60 56 53 52 51 53 54 53 55 49
65 61 60 61 60 57 55 50 47 48 53 53 55 58 62 64 64 66 70 68 67 68 66 62 58 53 51 52 52 53 55 56 57 54 53 51 51 55 55 53 54 58 56
66 68 65 62 59 62 54 48 49 53 55 58 62 64 65 63 65 66 66 69 65 63 60 57 51 48 49 51 52 52 54 55 55 53 52 52 54 55 54 54 55 62 62
65 61 53 48 61 53 55 54 55 59 61 65 69 69 66 67 68 67 69 67 62 59 56 49 45 47 50 50 53 53 53 52 53 52 53 54 55 57 57 55 59 65 61
68 65 64 60 54 52 54 58 60 63 66 69 72 71 70 73 70 71 67 63 57 55 47 43 45 48 50 52 53 53 53 51 52 53 55 57 55 56 61 53 58 61 63
69 70 65 62 67 65 62 65 65 69 68 70 75 74 74 72 70 67 64 60 54 48 44 45 48 49 49 49 50 51 51 51 52 55 58 60 59 58 60 60 62 65 67
71 71 69 67 68 69 68 68 70 70 70 72 72 72 70 68 66 64 61 56 48 44 44 47 48 49 48 48 48 49 51 52 53 54 57 61 62 61 61 61 62 67 69
73 71 68 68 67 67 66 66 67 68 68 68 67 67 66 65 63 59 56 45 42 43 45 49 49 47 46 47 45 48 50 52 53 55 58 62 67 68 68 67 64 67 72
70 69 70 66 67 68 68 67 71 70 67 67 65 67 63 59 58 56 48 43 44 44 45 46 44 44 44 44 45 46 49 50 52 57 59 64 66 71 72 74 71 73 75
72 68 68 66 71 70 68 70 72 68 67 66 66 62 55 55 56 51 45 43 45 42 43 43 43 42 42 43 45 46 46 48 52 54 59 63 67 71 76 76 79 81 82
73 70 70 68 71 72 73 72 70 68 66 62 53 52 54 52 50 44 44 43 43 42 42 42 42 41 42 43 44 46 47 47 49 52 55 59 64 71 77 83 84 85 88
67 71 69 69 72 72 69 67 64 57 54 49 49 51 49 45 44 42 44 44 45 45 45 44 44 44 46 47 48 48 48 49 51 53 55 57 60 63 68 75 80 83 84
48 56 61 66 69 65 63 62 57 49 45 46 46 44 38 41 43 43 43 43 46 49 49 49 49 49 50 52 54 55 55 55 57 58 59 61 63 65 68 71 76 79 82
42 43 46 50 50 49 52 51 45 39 42 43 45 40 39 41 41 42 44 47 48 49 50 51 51 51 51 53 56 58 59 60 63 64 66 68 69 72 74 76 79 82 85
42 41 43 44 43 44 43 39 37 39 40 44 41 40 41 39 39 39 43 46 45 45 46 48 50 52 52 53 56 60 63 65 65 66 70 73 74 78 82 85 87 90 92
41 39 40 39 39 36 34 35 36 38 40 36 36 36 36 36 35 36 39 41 42 44 46 48 51 55 56 56 57 59 62 66 68 74 76 78 79 83 86 90 93 96 98
40 39 38 36 33 32 34 33 36 37 36 36 37 38 39 37 39 41 43 45 46 48 50 52 55 58 61 64 64 65 66 66 68 67 78 84 86 88 91 94 97 102 105
41 39 38 35 33 29 29 31 33 35 38 40 40 40 42 43 44 45 47 48 51 54 57 59 61 63 65 69 70 72 74 75 74 71 70 79 86 90 93 97 102 103 105
42 40 39 39 34 33 34 35 36 40 41 42 42 44 44 44 46 50 52 54 57 60 63 67 69 71 74 74 75 76 77 80 83 83 80 80 82 88 95 99 102 105 106

GFSSE_250_spd_009.txt.gz
Wind_Speed
42 42 40 42 35 37 36 36 34 35 36 33 35 36 36 35 37 39 41 43 45 48 50 52 53 54 55 58 58 58 58 58 58 60 62 63 62 64 67 68 67 68 68
49 47 46 45 40 38 39 39 37 38 40 39 39 40 41 40 41 42 44 45 48 50 52 55 56 58 61 62 63 65 64 62 63 62 63 66 66 69 67 68 68 68 68
52 52 50 49 44 39 43 43 40 42 43 43 43 32 34 38 41 43 46 48 50 51 53 56 58 63 64 65 67 67 66 67 70 71 69 68 67 66 68 68 68 68 68
56 55 54 51 48 46 44 45 45 46 44 47 42 37 43 43 44 47 46 49 49 49 52 56 59 62 64 65 68 69 69 70 70 69 70 67 67 68 67 65 67 66 62
57 57 56 53 52 49 46 47 51 47 45 41 40 43 47 47 48 45 48 51 52 54 58 63 63 66 66 68 69 70 70 70 70 71 69 70 69 67 66 64 64 61 53
60 60 59 56 54 53 50 49 54 51 47 46 46 50 47 47 47 49 53 55 61 63 66 67 69 69 71 72 71 70 70 71 68 68 66 66 64 63 65 62 60 54 52
66 63 61 59 56 55 53 54 55 56 54 50 51 52 49 48 52 54 55 59 64 65 66 69 68 67 69 69 68 70 67 65 64 63 62 61 61 60 63 61 55 51 52
71 68 65 62 59 60 58 56 57 57 59 55 52 50 49 51 54 56 59 64 69 67 70 66 66 70 69 68 67 62 60 57 55 56 56 58 59 60 60 57 53 53 54
69 72 69 66 64 62 62 60 60 61 61 60 52 46 50 54 59 63 66 69 71 67 70 71 70 70 68 63 61 57 55 53 52 52 54 55 58 59 59 56 54 57 57
68 66 70 72 69 67 65 65 63 66 64 62 53 54 54 59 64 67 71 75 78 76 71 74 72 67 62 60 55 52 48 49 50 52 55 56 57 56 55 55 54 55 55
78 74 67 63 69 69 64 58 59 44 51 59 54 56 59 63 67 71 75 77 76 74 72 74 70 65 59 53 50 49 50 51 53 54 54 55 56 55 54 56 56 56 56
78 76 75 68 65 67 67 64 62 62 62 52 59 62 62 68 73 73 73 73 70 69 73 72 66 57 52 49 48 50 51 53 53 53 53 53 54 53 54 56 58 59 58
79 76 75 75 71 67 66 65 66 65 65 65 68 70 69 72 70 71 73 71 69 72 73 66 55 49 47 48 50 51 52 51 50 51 51 52 52 52 54 56 61 62 63
82 76 76 75 74 72 69 69 71 69 67 67 71 73 71 69 74 74 71 71 72 73 64 58 50 46 47 49 49 47 45 47 47 48 48 50 52 54 55 57 63 67 69
79 75 77 76 75 74 73 72 71 70 70 70 71 70 70 71 75 74 71 70 70 65 59 50 44 45 46 48 46 45 44 45 45 46 47 48 50 54 57 59 61 67 71
73 76 76 75 75 73 72 71 71 70 71 69 69 70 70 71 76 73 69 65 65 59 51 46 42 41 43 44 44 44 45 46 46 47 48 48 48 51 55 59 64 67 70
67 71 74 73 74 73 71 70 70 71 70 72 72 71 71 72 67 64 64 62 58 49 42 42 44 46 47 48 48 45 45 47 48 49 50 51 52 52 53 57 60 65 71
59 63 70 73 71 68 67 66 69 66 66 67 68 69 70 68 68 59 59 54 46 42 42 44 45 46 50 53 53 53 54 55 56 56 57 57 56 57 58 60 61 62 65
56 57 56 63 69 72 70 69 68 69 67 67 69 67 66 61 56 56 52 43 42 43 43 44 46 48 50 52 53 53 55 56 57 58 60 62 62 64 65 65 66 68 70
54 56 57 59 57 59 68 70 69 67 68 68 66 59 55 53 52 50 44 43 45 45 44 45 45 46 49 51 52 53 54 57 58 60 62 64 65 68 70 72 73 75 77
54 52 51 51 50 52 55 58 57 56 56 54 51 51 49 47 47 47 43 43 40 39 40 41 42 44 46 50 52 54 55 58 61 63 66 68 69 72 74 75 77 80 83
53 52 50 48 47 41 41 43 44 46 48 47 47 46 44 45 42 40 39 38 39 41 43 45 46 47 49 51 54 56 60 61 63 66 70 73 74 77 79 80 82 85 87
53 52 49 48 46 40 39 40 42 43 43 42 43 40 41 40 40 41 41 43 44 45 47 49 52 53 54 55 58 61 65 69 72 78 79 81 81 82 83 85 87 89 91
53 51 51 48 43 38 38 39 39 39 38 38 37 37 37 39 40 42 43 46 49 50 52 54 58 61 63 66 68 69 72 73 75 76 85 88 86 86 88 91 93 95 98
53 50 50 46 41 38 38 38 37 38 36 34 35 37 39 41 43 45 48 50 51 53 55 58 61 65 69 72 74 77 81 82 84 83 80 84 88 89 90 92 94 97 99
55 52 50 45 41 40 40 38 39 38 37 38 39 40 42 44 46 48 52 54 56 57 60 64 67 71 75 78 81 84 88 92 95 95 91 88 83 83 88 93 96 100 104

GFSSE_250_spd_012.txt.gz
Wind_Speed
51 49 46 42 35 34 33 33 32 32 34 35 35 32 32 34 36 37 37 38 39 41 43 45 47 49 51 54 56 58 60 64 67 66 67 67 67 66 65 64 64 64 66
53 53 49 46 44 43 43 45 39 36 37 40 40 39 37 38 40 37 40 43 43 43 44 46 49 50 52 53 53 54 58 62 63 65 67 69 69 67 70 69 71 70 70
58 55 52 50 48 48 48 47 44 41 40 43 44 44 40 41 41 37 38 41 43 46 47 49 48 49 53 58 61 62 63 65 67 67 67 69 68 68 69 70 69 69 68
60 59 56 52 51 51 51 50 48 45 45 44 47 46 43 40 42 43 43 46 48 45 48 51 52 55 59 62 67 69 69 69 67 69 70 68 67 68 71 69 71 69 68
63 62 60 56 54 54 53 52 51 49 48 47 48 50 43 45 47 46 50 52 49 50 52 52 54 59 63 65 70 67 67 66 67 66 66 66 69 69 67 65 66 66 66
66 66 64 61 58 57 56 55 54 53 51 48 50 51 50 52 52 52 55 54 54 53 56 53 59 63 63 69 72 69 69 70 70 66 66 63 62 61 61 63 63 61 60
70 69 66 63 61 60 60 58 57 55 54 52 52 53 52 56 53 55 53 52 54 55 57 61 68 70 74 75 72 71 73 71 64 60 61 58 56 53 53 54 57 59 59
72 72 70 68 66 64 63 62 61 58 57 57 55 55 55 59 60 58 50 50 53 57 62 66 71 76 75 73 69 74 73 65 61 57 55 51 50 48 48 50 52 54 57
76 73 73 70 70 69 67 66 64 63 61 61 61 61 61 63 63 57 54 53 59 59 64 71 75 73 70 68 72 76 68 61 55 50 48 45 47 47 50 51 53 56 56
73 74 75 74 72 73 72 72 70 68 65 65 64 63 69 60 55 57 57 56 60 65 69 71 75 73 69 70 74 69 60 53 49 46 45 48 50 51 51 51 53 54 55
80 76 76 76 74 72 68 70 71 73 71 68 65 60 51 56 58 57 56 61 68 71 73 74 75 70 69 71 70 60 52 46 45 45 49 49 49 49 50 50 50 52 52
79 81 79 78 75 74 72 68 65 63 63 67 68 65 62 65 67 64 66 70 73 74 74 73 76 73 70 68 63 51 48 45 45 46 45 44 45 46 46 47 48 49 50
73 76 78 77 77 74 74 76 77 74 68 63 64 66 66 66 68 70 70 71 72 74 74 74 76 71 67 63 50 47 44 44 45 46 45 44 44 43 44 45 46 48 50
78 76 77 77 77 77 75 75 75 73 72 71 68 67 67 69 71 71 71 72 72 73 72 70 68 67 64 51 47 41 40 41 41 42 43 44 46 46 46 45 46 47 48
74 79 78 77 75 74 76 77 76 74 73 72 72 72 72 73 71 73 72 72 75 72 70 72 68 64 52 43 41 43 43 44 45 46 45 45 45 45 47 49 50 50 49
67 68 72 72 74 76 76 75 77 76 72 72 72 72 72 70 71 71 70 68 68 65 67 66 62 54 42 39 39 42 44 46 47 48 49 50 52 54 55 55 56 55 55
68 63 64 68 68 71 75 75 73 72 71 70 70 70 71 68 66 66 68 67 65 63 62 60 55 43 42 42 42 45 47 48 48 49 50 52 52 53 55 57 58 59 61
69 67 63 63 64 66 68 70 71 70 67 66 64 65 66 63 64 68 68 67 65 60 57 56 48 45 44 43 44 44 45 45 46 48 49 51 53 55 57 59 60 62 64
71 67 65 62 60 60 60 60 61 67 67 65 63 63 62 64 68 70 68 66 58 55 51 48 46 44 41 42 44 45 46 47 48 50 52 53 55 58 60 62 65 68 70
74 70 64 63 63 60 58 55 53 54 61 67 68 68 69 69 71 67 60 54 52 51 45 44 41 40 43 45 47 46 49 51 52 54 56 59 61 64 67 69 71 73 76
75 71 65 62 62 58 52 51 52 55 58 58 59 64 67 67 62 57 53 50 49 45 41 41 42 43 47 48 50 50 53 56 60 63 66 69 70 74 77 79 81 84 85
71 71 67 63 60 55 50 48 46 48 51 53 54 52 52 52 51 51 49 47 44 41 43 43 44 48 51 53 55 57 59 61 62 67 71 75 77 80 84 87 89 92 93
69 70 68 64 61 53 49 47 46 46 48 45 44 47 48 47 47 47 44 41 40 41 43 47 48 52 53 55 58 59 61 65 69 79 82 84 84 88 93 96 98 99 99
69 68 67 64 61 54 49 47 46 47 48 45 45 44 44 43 41 41 40 40 42 45 48 51 53 56 58 62 64 66 68 69 72 76 87 96 99 103 106 108 104 100 97
65 67 65 63 62 55 51 49 46 45 45 45 43 42 40 40 42 40 41 43 47 50 53 56 58 61 64 66 69 73 75 77 81 79 81 91 100 108 109 101 96 94 95
63 64 65 65 63 55 52 48 45 45 45 43 42 40 40 42 43 44 45 47 51 54 58 60 63 67 69 72 75 77 80 84 91 94 94 97 100 105 99 98 98 99 99

GFSSE_250_spd_015.txt.gz
Wind_Speed
48 49 48 49 48 43 39 36 35 34 33 31 31 32 33 33 32 33 33 35 37 39 40 42 42 43 42 43 46 47 48 52 56 57 62 64 63 63 65 64 64 62 64
53 52 51 51 51 49 46 41 39 39 41 40 39 38 37 37 37 37 37 38 37 37 38 41 42 43 46 49 50 51 52 55 56 59 65 62 61 62 62 64 65 67 65
58 56 55 54 53 53 50 48 46 46 47 46 43 40 40 40 41 41 40 37 38 43 43 44 47 50 50 52 54 51 54 57 59 66 66 64 62 62 64 65 63 66 65
61 58 59 57 56 55 55 52 51 51 49 49 47 44 44 44 43 44 43 41 43 45 48 51 51 51 53 54 53 58 61 64 69 70 65 64 66 66 65 63 63 64 65
65 62 62 60 59 58 58 57 54 53 53 52 50 47 47 47 48 47 47 47 49 50 53 54 52 52 52 54 60 61 66 70 70 65 65 67 69 65 60 59 59 60 61
69 67 66 64 63 62 61 59 58 57 56 54 53 51 50 47 48 49 52 49 51 54 55 54 52 52 52 58 58 65 70 69 68 64 68 68 66 59 55 54 54 53 53
72 73 71 69 66 65 64 63 62 60 59 58 58 55 53 51 49 50 51 51 54 56 57 57 51 54 56 58 64 67 71 67 65 67 68 66 59 54 50 46 44 45 46
72 76 77 72 70 68 67 66 65 64 63 63 62 61 57 54 52 53 55 56 58 61 61 59 56 54 58 64 71 71 67 70 67 67 66 55 50 45 42 40 41 43 43
78 68 69 79 73 73 71 69 68 66 65 65 64 63 62 59 57 57 57 57 62 50 46 51 54 59 66 70 71 72 71 71 68 65 55 46 43 41 41 43 44 44 46
77 79 72 66 68 77 74 72 70 70 70 69 69 67 66 64 63 64 60 57 53 54 55 59 64 68 70 70 72 69 66 68 65 61 48 44 44 43 44 42 41 42 43
77 79 80 78 75 67 72 76 72 71 72 72 72 71 70 71 68 68 64 61 63 63 64 65 68 69 70 73 71 70 69 67 62 52 45 44 43 42 42 42 42 41 41
70 76 81 81 80 78 74 70 71 72 70 69 68 68 69 67 63 61 62 64 66 68 67 69 69 72 72 69 69 66 70 65 56 43 40 40 39 38 39 40 41 41 41
67 73 73 76 78 79 79 78 75 72 71 72 72 70 68 64 65 67 64 64 64 66 68 69 72 71 67 67 64 64 63 61 45 39 41 39 38 37 38 38 39 38 39
66 67 70 76 75 79 79 78 80 79 79 79 77 73 72 72 71 70 69 70 69 71 71 71 69 69 65 65 63 62 63 49 42 39 40 39 39 39 40 41 42 42 44
70 66 65 67 74 74 71 72 77 78 80 79 78 75 74 72 69 69 69 70 71 71 71 69 67 64 63 66 61 59 56 43 40 39 41 41 42 42 41 42 43 44 45
73 71 65 63 64 70 73 73 73 74 76 76 77 75 75 73 73 73 69 70 71 71 67 68 65 66 67 62 58 55 46 42 41 41 41 42 41 42 43 44 45 46 48
75 73 69 64 63 62 63 68 73 75 77 79 79 77 72 69 65 67 66 66 67 67 65 63 65 66 66 59 56 51 45 43 40 42 42 42 43 44 45 46 47 48 50
76 76 71 67 64 63 62 61 60 62 67 73 76 75 74 70 68 65 63 62 62 62 63 67 66 67 59 55 53 48 42 40 42 45 45 45 47 48 50 51 54 56 59
73 74 72 69 67 65 63 63 59 55 56 58 58 59 63 62 62 63 63 61 63 63 65 68 67 60 56 53 49 45 43 43 47 48 49 50 52 54 56 58 60 64 67
72 73 71 70 68 67 65 62 59 55 56 54 53 54 50 52 55 60 64 64 64 68 66 64 60 56 53 48 45 46 46 48 52 54 55 56 57 59 61 62 65 68 71
69 70 70 71 69 67 67 63 58 54 55 56 51 52 51 53 55 57 57 60 61 59 60 56 53 53 50 48 48 47 50 52 57 59 60 62 64 66 68 71 74 77 80
67 68 68 69 68 67 66 63 59 55 53 49 49 49 47 49 53 55 55 55 54 53 54 52 51 49 47 48 51 52 56 56 60 64 67 69 71 75 77 79 82 86 88
68 68 67 66 67 67 63 62 61 57 54 50 49 47 47 48 49 49 48 49 50 52 51 50 48 47 49 52 55 57 59 62 65 71 74 75 78 82 84 86 89 93 96
65 67 66 62 64 66 64 62 63 59 54 49 47 48 47 49 49 48 48 49 51 49 49 48 47 49 53 55 59 62 65 66 68 70 80 86 86 90 93 96 100 103 107
58 63 64 62 61 63 65 64 62 59 55 50 48 48 49 49 48 47 47 47 47 48 47 48 51 54 56 60 64 68 71 72 73 74 76 85 90 95 99 103 107 112 115
55 56 59 61 59 61 64 65 62 59 53 50 50 49 49 48 47 46 46 46 48 49 51 53 56 58 61 65 69 73 76 79 82 83 82 83 87 94 103 108 115 119 122

GFSSE_250_spd_018.txt.gz
Wind_Speed
46 46 46 45 42 42 44 42 41 39 37 36 35 37 36 33 31 32 32 33 32 32 34 36 37 37 38 40 41 43 45 47 50 50 52 55 56 62 64 64 61 60 61
55 52 51 51 49 46 45 48 48 44 44 41 40 40 39 40 39 39 38 37 37 39 37 37 38 41 43 42 46 49 48 51 50 54 57 58 62 67 66 63 62 61 63
58 57 56 55 54 52 49 49 51 51 47 45 45 45 44 45 44 42 40 39 40 42 41 40 41 43 45 48 50 49 52 55 56 56 57 63 67 67 61 61 63 64 65
62 61 59 59 57 57 55 53 52 53 52 48 48 49 50 49 46 43 43 44 44 44 45 45 48 48 50 51 53 53 55 55 56 57 62 68 64 62 62 64 67 64 62
66 67 65 63 63 61 60 58 56 56 56 54 50 52 52 52 50 47 45 45 47 48 49 48 51 51 53 54 56 57 57 55 56 62 69 69 69 67 67 69 65 60 55
70 70 70 68 66 66 64 62 62 60 59 59 56 54 54 53 52 51 50 49 48 49 50 52 53 54 55 57 59 58 53 56 64 67 69 70 66 68 70 67 58 53 48
74 73 74 73 72 71 68 67 66 64 63 62 61 58 56 56 56 55 54 53 52 53 53 54 55 57 61 59 51 51 56 64 68 70 72 67 68 67 67 60 47 43 40
77 77 77 78 75 74 74 71 70 68 67 66 65 63 61 59 59 58 59 57 57 57 56 57 59 58 55 49 52 59 65 68 68 73 70 67 68 64 62 51 44 42 41
76 80 80 80 79 75 66 76 75 73 71 69 67 67 65 64 63 62 61 61 60 61 62 62 61 55 55 59 62 64 68 69 71 70 67 64 64 63 55 45 45 45 46
75 78 81 80 83 82 76 65 64 79 78 71 70 69 68 67 65 65 65 66 66 64 67 64 63 58 60 65 67 70 66 70 67 66 64 65 63 61 45 42 42 42 41
67 67 70 76 80 84 84 80 68 65 80 75 74 73 71 70 68 68 69 67 66 67 66 65 61 63 63 63 63 66 69 68 64 66 66 64 62 51 41 39 37 34 33
67 64 65 66 73 75 80 81 79 69 62 63 67 75 75 71 70 71 66 63 65 66 66 64 64 66 66 67 71 71 69 67 64 65 63 63 57 47 45 44 41 37 36
71 69 66 64 67 72 75 77 82 81 76 73 71 68 67 68 69 69 67 66 67 68 68 71 70 68 68 69 71 70 67 63 63 65 60 60 50 45 44 43 41 40 39
72 72 70 65 62 63 67 72 76 81 81 82 81 80 78 74 71 71 72 75 76 74 72 72 70 67 68 69 69 68 66 64 64 63 57 56 49 44 43 41 40 39 38
70 72 72 68 64 61 62 65 71 75 81 84 83 82 81 82 81 81 80 80 77 77 76 74 73 72 68 68 69 69 64 63 64 59 54 53 47 45 40 40 40 39 40
65 69 72 71 68 65 62 62 65 69 76 77 79 81 81 81 81 81 79 77 74 76 75 74 74 70 66 64 64 65 65 65 63 57 53 50 46 41 41 42 41 41 42
60 61 66 70 71 69 65 63 62 64 65 68 73 73 72 75 74 75 74 74 75 76 74 72 68 65 63 61 62 64 67 66 61 55 51 46 45 44 45 46 48 48 48
58 61 62 67 69 70 69 66 65 63 61 60 61 63 68 71 72 74 75 75 75 72 72 71 67 63 62 64 65 66 67 62 59 54 50 48 47 48 49 52 53 54 55
58 61 62 63 66 67 69 69 67 65 62 60 58 57 55 53 52 51 53 54 56 58 61 63 64 64 65 67 67 64 61 58 56 51 51 52 52 53 55 57 58 59 60
57 60 62 62 63 64 67 69 68 67 65 63 59 58 56 54 52 51 52 52 52 53 57 60 63 64 66 64 62 60 57 56 53 53 54 55 55 58 59 60 63 66 68
58 60 61 60 60 61 63 67 68 68 64 62 61 60 58 55 52 52 51 53 52 53 56 59 61 61 61 60 59 57 56 54 54 54 55 59 61 62 64 66 68 70 72
60 63 62 61 59 58 61 62 66 66 62 62 62 61 59 55 53 50 52 52 51 52 54 56 55 56 57 58 58 56 55 54 55 57 60 63 66 68 70 72 74 75 76
57 61 62 61 60 58 59 61 61 66 63 63 61 60 59 58 54 53 53 52 52 52 51 51 53 56 58 58 57 55 54 55 58 62 65 68 69 73 76 78 80 81 84
57 59 60 59 60 62 62 61 60 61 66 63 61 60 59 57 55 55 53 54 54 52 54 54 56 57 54 54 55 55 56 58 62 66 72 74 77 80 82 84 87 91 92
58 56 57 55 57 61 65 65 60 56 62 64 62 61 59 58 57 56 56 56 55 54 53 54 53 52 53 53 56 58 61 64 67 69 73 80 81 85 88 93 97 101 102
56 57 56 55 55 59 65 68 64 59 62 63 64 62 61 59 58 57 57 58 57 54 54 52 52 54 57 58 60 62 65 69 71 72 75 79 83 91 95 99 103 107 109

GFSSE_250_spd_021.txt.gz
Wind_Speed
43 40 42 43 42 41 39 39 40 41 38 38 38 38 37 36 36 37 36 32 33 33 33 34 34 36 36 37 37 40 41 43 44 48 47 50 54 56 56 58 62 68 66
48 47 47 48 49 48 48 48 45 44 42 44 42 42 44 42 42 40 41 42 40 41 40 38 39 41 39 39 42 44 45 47 48 49 51 54 55 54 56 61 65 67 66
53 53 52 52 53 53 52 52 50 49 48 46 48 46 45 46 47 45 45 45 46 45 43 42 42 42 45 44 46 50 51 50 50 52 53 55 53 55 62 64 67 69 65
57 57 56 56 57 57 58 56 57 55 54 51 52 52 51 48 48 50 49 49 48 47 46 45 45 45 47 48 48 50 52 56 56 56 57 51 53 60 66 68 68 66 68
61 62 62 62 62 62 60 61 59 60 58 58 56 55 55 53 50 51 52 52 50 49 47 47 47 48 49 51 51 52 53 57 58 60 50 54 59 66 69 68 69 64 66
66 67 68 67 66 65 66 66 65 64 63 61 60 59 59 57 56 54 55 54 52 51 51 51 51 51 52 53 54 55 56 58 57 53 55 59 66 68 68 66 63 63 63
68 69 69 70 69 69 70 71 70 68 68 66 64 63 62 62 60 59 58 57 56 56 56 56 56 55 56 56 56 58 58 57 54 59 63 68 67 65 65 65 64 65 65
69 70 73 73 73 72 74 75 74 73 72 71 69 67 68 67 65 64 61 61 61 61 59 60 60 60 61 60 62 64 65 59 58 63 65 65 65 67 67 64 64 66 62
74 74 75 77 75 76 77 78 78 76 75 74 75 71 72 70 68 67 67 65 65 65 65 65 63 63 64 63 63 65 58 60 62 61 60 65 69 70 65 63 63 64 52
75 75 76 77 77 79 79 81 81 80 78 79 69 68 73 75 73 71 70 69 68 68 68 68 67 70 66 65 66 65 64 62 62 66 68 70 70 65 64 62 63 58 47
77 78 78 77 77 77 78 81 85 84 83 79 73 69 65 73 79 76 75 75 73 71 70 69 70 69 65 66 64 66 65 66 68 66 69 68 67 64 65 60 57 52 46
75 74 76 74 74 72 73 76 80 85 86 83 84 82 70 65 66 70 81 78 77 72 73 69 64 64 64 66 67 68 70 70 68 66 66 66 66 65 60 58 54 49 46
68 69 70 70 71 69 68 68 70 72 76 83 85 85 85 80 68 66 64 65 69 71 68 68 66 66 69 74 76 76 74 70 69 68 69 66 64 62 60 57 52 46 45
65 67 69 69 70 69 69 68 66 68 69 71 76 78 81 83 83 76 74 73 70 70 72 72 73 75 77 80 79 79 79 76 72 70 67 64 62 60 59 56 51 47 47
66 66 66 66 68 68 70 70 68 67 67 68 70 74 77 78 81 86 84 83 81 81 82 83 83 82 83 83 81 76 73 73 72 65 65 61 62 61 60 55 52 48 45
64 63 64 65 65 65 66 69 69 69 67 65 65 67 68 72 75 79 82 82 82 83 83 82 82 82 79 78 78 77 73 69 67 65 62 63 65 63 61 54 51 48 46
62 62 61 61 62 64 63 64 66 68 68 67 63 64 64 64 67 71 76 78 78 80 81 79 79 77 75 77 79 73 70 67 65 61 65 68 68 62 58 53 52 51 50
60 62 62 62 61 60 61 62 63 66 68 68 67 66 63 60 60 63 65 66 68 72 76 78 74 69 66 65 66 67 65 63 64 65 66 67 63 62 54 53 55 53 54
61 62 62 62 62 60 60 58 61 62 65 68 69 69 67 63 61 60 59 57 57 57 55 53 53 53 54 57 59 60 60 62 64 64 64 60 62 56 55 57 57 57 57
59 58 60 62 63 61 59 57 57 59 61 66 70 70 70 67 65 63 60 58 58 57 56 56 54 54 54 58 58 58 60 61 62 62 61 61 57 56 58 59 60 61 62
57 57 57 59 63 60 58 58 57 57 59 60 65 69 72 71 69 67 63 61 60 58 56 55 53 54 54 53 53 56 56 57 59 59 58 57 57 58 59 62 62 64 66
56 55 55 57 59 62 58 58 56 57 57 58 60 67 70 71 70 67 64 63 61 60 58 55 55 55 54 53 53 54 55 56 60 58 57 56 58 61 62 65 66 68 71
60 58 55 55 56 58 57 60 59 57 57 57 62 63 67 69 69 70 68 64 62 61 59 58 56 56 56 55 56 58 58 56 54 54 55 56 59 62 65 69 71 74 75
65 65 59 56 55 55 53 57 59 59 59 58 60 64 65 67 67 68 67 65 63 62 61 59 58 57 57 57 59 58 56 53 52 56 58 60 63 67 68 71 75 78 81
68 65 65 60 56 57 54 55 55 57 56 58 61 64 67 67 67 65 66 65 63 62 61 61 60 60 59 59 59 59 59 57 57 58 62 65 67 71 73 76 82 86 90
68 67 69 65 62 60 58 56 55 55 55 52 58 65 66 67 67 69 66 65 65 65 63 63 61 61 61 62 61 62 62 62 62 63 65 70 72 78 80 83 87 91 94

GFSSE_250_spd_024.txt.gz
Wind_Speed
40 40 39 40 37 35 35 36 36 36 37 40 38 37 37 38 38 38 38 37 36 38 37 35 36 37 38 39 40 40 40 40 42 43 44 46 47 47 48 51 51 49 54
46 46 45 44 43 42 41 41 41 41 41 41 41 42 40 40 42 42 43 44 45 44 44 43 43 42 42 43 43 41 43 45 46 49 50 50 50 51 52 52 49 52 59
51 49 48 49 48 47 46 45 46 46 47 45 47 46 45 45 43 44 45 45 47 47 47 47 48 48 46 45 45 45 46 48 49 50 51 52 53 55 57 51 54 57 62
51 51 50 51 51 51 51 50 50 51 52 52 52 51 50 48 50 51 48 50 49 50 50 51 51 51 51 48 47 47 48 47 49 51 51 52 56 54 53 55 58 63 65
52 53 53 53 54 54 54 56 56 57 58 57 57 57 56 54 53 54 54 53 53 53 54 53 53 51 51 50 50 51 51 51 52 53 55 54 57 53 53 58 62 64 63
58 60 59 59 59 59 60 61 62 63 63 63 62 61 62 60 59 58 58 58 57 56 56 57 55 54 54 53 54 55 53 53 55 55 58 58 61 58 55 61 59 59 67
61 60 61 63 64 65 65 66 66 67 66 67 67 66 66 66 64 64 62 62 62 60 60 59 59 58 58 58 59 59 59 58 58 57 59 60 55 54 61 60 64 66 65
67 68 67 66 67 68 68 69 70 70 70 71 71 71 71 70 69 68 68 66 65 65 65 64 62 62 62 62 64 64 62 62 63 60 61 62 62 62 63 66 64 64 62
69 69 69 69 69 70 72 73 74 74 75 75 74 74 76 75 75 75 73 71 70 70 69 69 68 68 68 67 68 67 64 67 65 62 66 64 64 64 64 64 62 62 61
73 72 73 74 74 73 75 77 78 79 80 79 78 78 77 75 74 74 73 74 74 74 72 73 72 73 71 71 71 70 68 65 61 63 61 59 63 64 63 62 63 66 61
77 76 77 77 76 77 77 78 79 81 81 83 83 82 81 82 81 76 74 77 72 73 75 78 77 77 79 76 75 75 70 63 63 66 66 67 67 67 68 66 67 63 61
75 74 74 74 75 74 77 77 77 80 81 81 84 85 85 85 84 83 81 75 72 66 61 64 73 76 78 79 76 72 66 65 63 68 71 74 75 75 72 69 68 63 58
70 71 72 72 72 70 70 70 70 73 78 79 81 82 82 83 82 86 86 83 80 77 77 76 73 69 69 68 71 67 66 67 70 78 80 79 78 76 74 69 65 60 56
72 71 70 69 67 64 63 64 65 66 68 69 72 73 73 73 74 75 77 84 86 87 88 88 80 74 72 73 73 76 79 79 77 79 83 78 73 71 69 65 62 59 58
68 68 67 65 63 60 63 64 64 64 67 68 70 71 70 70 70 70 70 71 73 76 80 81 82 86 86 84 81 79 82 83 84 84 84 78 72 67 64 63 61 61 60
67 64 63 63 61 59 62 64 63 62 62 67 69 70 71 72 72 69 68 67 68 69 71 74 76 78 81 80 80 83 87 84 82 76 73 72 72 66 65 62 62 63 62
64 61 61 64 62 61 60 61 61 61 59 63 67 66 72 73 75 71 68 65 66 65 66 67 68 69 71 73 75 78 80 80 80 69 63 61 59 61 61 62 63 65 60
61 60 60 60 59 59 61 58 59 59 57 58 62 64 68 73 75 73 71 67 66 64 63 62 61 61 60 59 59 59 58 58 56 55 55 57 58 58 59 60 62 58 56
53 54 55 56 59 61 62 59 56 58 58 58 59 62 64 67 73 74 72 70 69 67 63 61 59 59 58 57 57 57 57 55 55 58 58 58 58 58 58 58 57 59 55
56 53 52 51 52 55 58 56 57 61 56 58 58 59 62 65 68 72 73 72 71 69 67 65 62 60 59 57 55 55 55 56 56 56 55 55 56 55 56 56 57 56 56
63 60 55 54 50 52 50 55 54 55 58 59 59 57 60 63 66 68 69 70 72 72 70 68 66 65 63 60 57 55 55 55 56 55 55 54 54 57 57 56 57 56 57
63 64 62 58 55 52 51 49 52 56 56 58 59 59 59 60 63 66 67 68 69 72 71 70 70 68 66 64 60 58 55 58 57 57 57 58 57 57 57 54 55 55 57
67 68 69 65 62 54 55 48 50 53 55 56 59 60 60 58 59 64 66 66 66 67 69 70 70 68 68 66 63 61 58 58 59 61 61 59 58 58 57 56 58 60 62
71 71 69 69 68 62 58 52 55 52 51 55 56 55 55 60 61 62 63 66 66 67 69 70 70 70 68 68 66 63 61 61 62 63 63 62 61 61 60 62 65 67 67
75 73 72 70 70 68 64 58 60 55 53 54 58 54 53 57 61 62 62 64 65 66 69 70 71 71 70 68 66 65 65 65 64 64 65 65 65 66 67 69 71 74 76
81 80 75 71 70 69 67 63 64 60 57 59 58 56 54 56 60 60 61 64 66 67 67 70 71 72 71 69 69 67 67 67 68 67 66 68 68 73 73 75 76 78 80

GFSSE_250_spd_027.txt.gz
Wind_Speed
38 36 34 34 33 34 34 34 35 36 36 35 34 35 34 34 35 37 38 39 40 40 41 39 40 40 42 42 42 42 42 43 43 43 44 44 47 47 48 48 47 45 48
43 41 41 40 40 38 38 38 38 39 39 38 37 36 37 38 37 37 38 40 43 44 45 47 47 47 47 47 46 48 47 46 49 48 47 47 48 48 49 49 49 49 50
47 47 47 47 47 46 43 44 45 44 43 43 42 41 40 41 42 43 44 44 44 44 47 50 51 52 51 51 51 51 51 50 51 48 48 47 48 49 48 49 50 51 53
52 52 51 51 51 50 48 47 48 48 48 47 46 47 47 48 49 49 49 49 49 50 49 49 50 53 54 54 54 53 53 51 51 49 51 50 50 51 50 51 53 56 57
54 54 54 54 53 50 49 51 50 50 51 51 51 52 53 55 56 56 56 55 54 53 55 55 54 54 55 56 56 55 54 53 53 53 55 55 53 55 55 56 53 52 51
56 54 54 54 53 52 52 54 55 54 54 57 58 59 59 60 60 60 61 61 61 59 58 58 59 58 56 58 59 58 57 55 56 57 57 57 58 59 59 58 55 59 57
57 56 57 57 56 56 58 58 58 59 60 61 62 64 65 66 66 66 66 65 65 64 65 63 62 63 62 61 61 63 61 61 59 61 61 62 61 63 62 58 61 61 58
61 60 61 63 61 62 63 62 62 63 66 66 67 67 69 71 72 71 71 70 69 69 69 69 68 68 68 67 66 67 67 67 67 66 64 65 63 67 62 60 61 58 57
64 65 63 66 69 69 70 67 66 66 66 67 69 72 73 75 76 76 75 75 74 74 74 73 73 73 72 71 71 72 71 71 73 72 70 68 70 67 63 62 64 62 65
67 66 68 68 68 68 67 70 71 71 71 72 75 76 78 79 80 80 80 78 78 76 75 74 76 77 75 72 71 76 74 75 76 76 76 74 71 69 64 65 65 69 71
69 67 67 68 67 68 69 72 74 76 76 76 76 77 80 82 83 84 83 83 83 82 81 79 78 78 76 77 77 76 73 72 79 75 73 75 70 66 65 65 70 74 76
72 71 72 72 72 73 73 74 75 75 77 80 78 78 79 82 81 82 85 85 85 84 85 84 84 79 79 74 74 67 63 67 69 71 68 71 66 67 68 72 76 76 75
71 73 74 74 72 72 73 73 74 74 75 77 78 79 79 77 78 79 81 81 82 81 81 84 86 86 85 84 81 79 80 78 78 74 72 67 72 74 77 80 81 82 76
70 70 68 70 71 75 77 76 75 74 75 74 74 75 73 72 72 73 74 72 73 72 73 75 75 78 81 85 89 87 91 87 91 89 87 84 81 82 83 83 82 77 70
71 69 72 70 69 70 73 73 73 75 71 69 67 68 67 67 69 71 72 70 69 67 68 69 70 70 70 71 74 77 80 78 80 81 82 84 86 82 81 81 77 73 77
69 69 70 71 67 66 67 67 68 67 64 64 64 66 64 64 66 70 69 71 71 71 70 70 70 69 68 66 65 66 66 66 70 71 71 73 76 76 74 71 66 58 57
72 67 66 65 62 64 65 66 64 63 62 64 64 63 62 64 65 65 65 68 70 72 73 74 73 71 68 66 65 63 61 61 61 62 61 60 59 58 58 57 57 57 55
70 70 63 61 63 61 62 60 60 58 57 61 61 61 61 64 61 60 62 65 67 70 72 75 75 73 70 68 65 63 60 59 58 58 58 58 56 57 58 58 60 60 57
67 64 62 58 57 56 54 52 54 56 58 60 58 58 61 63 61 62 61 61 63 66 70 74 77 75 74 71 68 66 63 61 59 58 58 58 57 59 59 58 58 57 56
68 66 63 57 55 56 55 50 49 48 53 55 56 57 58 59 59 62 62 62 61 63 66 70 73 75 76 74 73 71 67 65 62 62 60 58 58 59 58 60 59 56 56
69 67 66 64 60 59 61 54 47 48 50 50 51 52 54 56 58 60 62 62 63 63 63 65 68 71 73 74 75 73 72 70 68 67 64 62 61 61 60 60 61 60 59
73 74 71 71 69 62 61 61 52 52 51 50 49 50 49 52 54 58 62 62 63 63 61 62 65 66 69 71 73 74 74 73 70 69 68 66 64 64 65 64 63 61 61
77 77 76 74 72 70 66 62 57 58 57 55 55 55 53 52 54 57 58 60 63 64 62 61 62 65 66 67 69 72 73 73 72 71 70 69 68 67 67 67 66 65 63
79 80 79 75 73 70 69 68 62 62 61 57 57 55 54 53 50 54 56 57 61 60 62 63 62 63 64 66 67 70 72 73 74 73 73 72 71 70 69 69 68 68 66
79 78 79 79 77 74 68 68 69 67 65 61 59 55 57 56 55 56 56 56 60 59 57 61 63 65 66 67 68 70 73 74 75 74 75 74 74 73 73 73 72 71 70
85 83 81 82 82 77 70 69 70 70 69 63 59 58 59 62 59 59 61 58 57 58 56 59 61 63 66 69 70 70 71 74 75 76 76 77 77 79 79 78 77 76 75

GFSSE_250_spd_030.txt.gz
Wind_Speed
39 40 39 34 33 33 31 32 35 36 35 35 37 38 38 35 34 33 32 33 34 36 38 41 42 43 44 43 43 44 45 46 47 47 47 47 47 49 49 50 48 49 49
43 41 41 40 38 38 37 36 37 37 38 38 38 38 39 39 38 39 37 36 36 37 39 41 44 46 46 47 48 48 49 50 50 50 50 51 51 52 51 48 49 49 49
47 46 47 46 44 42 43 43 42 42 42 42 42 43 43 44 43 43 42 41 41 44 44 44 45 47 48 48 50 51 52 54 54 53 53 54 53 52 51 51 50 50 50
51 52 50 49 49 49 48 49 48 47 47 46 46 47 47 46 47 47 47 48 49 50 51 51 52 52 52 52 51 51 52 55 56 56 55 55 54 54 53 53 54 53 55
54 53 54 55 55 55 54 53 53 53 50 48 48 49 50 50 50 52 53 54 56 56 56 57 58 56 55 57 57 56 56 56 56 59 59 57 57 57 56 56 56 56 57
57 57 58 58 58 58 57 56 56 55 54 52 52 54 54 53 54 54 57 58 59 61 62 63 62 63 63 61 60 59 62 61 60 58 60 59 60 59 59 60 59 59 58
60 60 60 58 58 58 57 57 57 56 56 56 56 57 58 57 60 63 63 63 64 66 68 68 68 69 68 66 65 66 65 66 69 67 64 64 66 67 67 66 65 67 65
61 61 61 59 57 59 58 58 58 59 60 61 62 62 63 63 65 64 65 67 70 72 73 74 74 73 73 71 71 71 72 72 70 70 70 71 70 71 70 71 71 73 73
61 61 60 61 61 61 60 62 62 62 66 67 67 69 69 67 68 70 71 72 73 74 77 78 79 79 79 76 75 73 74 75 75 74 72 71 73 74 74 76 76 76 72
62 61 62 64 64 65 65 65 69 67 69 71 71 68 67 69 71 72 76 76 75 78 79 81 81 81 82 82 80 79 78 79 75 77 76 76 77 74 76 75 75 71 72
65 65 64 65 67 68 68 67 67 69 70 71 71 71 72 75 76 78 79 81 84 84 82 82 82 83 83 83 82 80 83 83 82 83 77 78 73 69 65 69 69 71 72
68 67 68 70 71 71 71 71 71 71 72 73 75 77 79 79 79 79 80 81 80 82 83 82 82 82 81 79 81 80 84 85 86 82 82 83 81 79 77 80 82 80 74
71 71 71 70 72 72 73 72 74 75 76 77 78 79 81 80 78 80 81 81 83 82 81 80 80 78 80 79 78 76 77 79 81 82 86 84 86 84 87 89 90 91 85
72 74 74 74 75 76 75 76 78 78 79 79 80 82 81 82 81 81 81 80 77 75 74 75 74 73 73 73 72 70 70 70 69 71 73 73 75 79 82 82 81 76 76
71 72 75 75 75 74 74 77 78 78 78 78 78 80 79 78 79 80 80 76 73 71 70 69 71 71 72 73 72 70 70 69 67 66 67 66 65 67 68 68 68 69 69
74 71 71 70 70 70 72 73 74 75 75 77 78 77 75 75 76 75 73 69 71 69 67 67 68 68 69 71 72 72 73 72 71 69 67 64 63 62 63 62 61 59 57
72 70 67 70 69 68 69 72 73 73 74 73 73 74 73 72 72 69 67 68 69 66 66 66 66 67 69 70 71 72 73 74 73 72 70 67 63 62 62 62 60 58 59
70 69 69 67 65 68 67 67 69 67 68 65 67 66 67 67 67 65 64 65 65 65 66 65 65 65 65 68 71 71 72 74 75 74 72 70 67 65 64 63 61 60 60
69 70 68 65 64 66 67 68 67 65 60 60 60 62 63 63 62 62 64 64 63 64 64 65 66 66 66 66 68 70 70 71 73 75 75 73 71 70 68 66 64 63 60
71 71 68 66 65 67 68 64 61 58 58 56 55 57 58 56 55 57 59 62 62 64 64 65 66 67 67 68 68 68 69 70 72 74 75 75 74 74 72 71 70 67 66
76 72 72 70 67 68 67 66 64 61 61 64 63 60 55 54 54 50 53 54 55 59 60 62 65 66 67 67 68 68 69 69 71 72 73 74 74 75 75 75 73 72 70
80 79 79 75 68 65 65 68 67 64 60 65 64 64 63 59 51 56 54 54 55 58 59 58 60 62 63 65 67 68 68 68 68 70 72 73 74 76 77 77 76 74 73
81 84 84 82 78 72 69 69 71 68 67 64 69 68 60 53 56 60 58 57 57 58 58 58 60 59 60 61 64 67 68 68 67 69 71 72 72 74 76 77 78 77 76
89 88 87 87 85 79 74 70 71 71 69 71 73 71 63 59 53 58 62 61 60 60 60 63 61 60 60 61 62 63 64 68 69 70 70 72 74 75 77 77 79 80 81
94 93 91 90 88 85 79 73 71 71 70 71 72 68 65 64 63 62 66 65 64 64 64 64 63 62 62 61 59 59 61 64 68 70 73 74 76 76 78 80 81 82 83
98 97 96 95 93 91 86 79 73 68 70 71 72 71 65 64 66 67 67 71 67 67 64 65 67 66 65 61 60 60 62 62 63 66 70 73 77 81 82 82 82 84 85

GFSSE_250_spd_033.txt.gz
Wind_Speed
33 33 33 31 30 28 30 29 29 31 32 33 34 35 38 39 39 37 35 34 33 32 32 34 36 37 38 40 42 43 44 45 47 48 48 49 51 51 52 52 52 53 53
39 38 38 39 38 39 38 37 38 37 36 35 37 38 39 41 42 42 42 41 39 38 38 39 40 39 41 43 44 46 47 48 49 50 50 51 53 53 54 54 54 54 53
48 47 46 45 45 43 42 43 43 42 41 41 41 42 42 43 44 44 45 45 46 45 44 44 44 45 45 47 48 50 51 51 52 52 53 54 54 54 56 57 56 54 53
49 50 50 49 49 49 49 48 48 47 47 48 48 47 46 47 45 45 46 47 48 48 48 50 52 52 53 53 53 54 56 57 56 55 56 56 58 57 57 55 57 56 55
52 53 53 53 53 52 52 52 51 52 52 53 53 53 51 50 48 47 49 50 51 52 53 54 57 57 58 60 60 62 63 62 61 61 61 60 59 59 59 58 59 59 59
55 56 55 56 57 57 56 55 57 58 58 57 57 56 56 55 52 53 52 52 54 56 56 59 60 61 62 64 66 67 69 66 68 69 68 65 64 64 66 66 64 65 65
57 58 58 57 56 57 57 59 60 60 60 59 57 58 59 56 57 57 57 58 59 60 62 63 61 63 65 68 69 72 70 72 73 72 72 71 71 70 68 67 67 69 70
59 58 58 57 57 59 60 61 62 61 61 61 60 60 59 59 61 62 64 64 64 65 65 65 67 68 69 72 74 75 75 76 76 75 75 75 74 73 71 71 70 70 72
61 61 61 60 60 60 59 60 62 62 61 61 60 61 62 62 65 68 68 67 67 67 68 69 70 72 74 75 78 79 81 80 78 80 80 78 79 78 77 76 76 75 74
64 63 62 61 61 60 60 61 62 63 65 65 64 64 65 67 69 70 70 70 69 70 72 74 75 76 78 79 80 82 80 82 81 81 81 82 81 80 79 79 80 80 75
62 64 63 63 64 63 62 62 63 64 64 66 68 68 67 68 69 70 71 73 75 76 79 80 80 79 78 80 84 84 84 83 83 81 81 78 80 81 80 80 82 80 78
66 64 65 66 66 67 65 65 66 65 66 67 70 71 71 72 73 73 74 77 80 81 81 82 81 81 82 83 84 85 83 80 78 77 76 75 76 77 76 76 79 79 79
69 70 68 69 69 70 71 70 71 70 70 71 72 72 72 73 75 78 80 80 80 81 81 83 83 84 84 83 82 79 78 75 74 74 71 70 70 69 67 68 67 67 68
70 70 71 71 71 72 72 72 72 72 74 74 75 75 75 76 79 80 82 82 84 84 84 84 83 83 83 81 78 77 73 73 72 71 70 69 68 67 66 65 64 64 63
69 69 71 71 72 71 71 72 73 72 74 75 75 76 77 76 76 79 81 82 82 85 84 84 83 81 79 77 74 74 73 72 70 69 68 68 69 68 68 66 65 64 62
73 73 73 73 73 72 73 73 73 74 74 72 71 73 75 77 78 77 80 80 80 80 81 80 79 76 74 73 73 73 73 73 71 70 69 67 67 67 67 67 65 65 63
77 76 76 76 76 76 75 73 74 72 68 69 71 72 75 77 77 76 76 75 77 75 74 73 74 74 73 71 70 70 71 72 71 70 69 68 68 68 68 67 67 66 65
75 75 77 75 73 73 74 72 70 68 66 64 66 66 69 69 70 69 70 69 68 68 69 68 67 67 67 67 66 66 69 70 70 71 70 70 70 69 68 68 68 68 67
78 73 70 71 73 73 72 71 69 69 66 65 61 64 65 67 64 64 62 60 61 61 60 61 62 63 64 65 65 66 68 70 70 70 70 70 71 69 69 68 68 68 68
77 74 73 72 74 76 74 70 68 68 67 64 62 65 69 66 62 62 60 63 61 58 58 58 58 58 60 61 61 61 63 65 68 70 71 71 71 70 70 70 69 68 69
78 75 74 74 73 74 73 74 72 70 71 68 69 66 72 71 69 67 70 64 63 62 59 56 57 57 58 58 59 57 59 61 64 65 69 71 71 70 69 69 69 70 71
77 78 77 76 76 77 78 79 77 76 73 69 68 69 71 72 70 65 66 68 64 58 58 59 59 60 63 62 60 60 62 62 61 63 65 67 69 71 71 71 70 70 71
78 80 82 83 83 82 81 81 82 80 77 75 70 71 68 72 72 68 66 65 65 64 65 61 62 62 66 66 66 67 66 64 63 63 63 63 64 67 69 71 73 73 74
81 83 83 85 88 88 87 84 83 84 85 83 84 80 76 75 70 67 67 65 65 70 69 68 69 69 66 68 71 73 68 67 65 65 62 61 62 64 64 65 69 74 76
86 88 91 92 93 96 95 92 92 93 93 90 87 85 77 72 68 70 70 69 67 71 75 74 74 74 74 70 73 72 69 70 70 68 67 65 63 63 62 62 62 65 69
96 97 98 99 101 102 102 102 99 97 93 91 87 85 81 74 69 68 68 70 72 74 75 75 76 75 75 74 72 72 71 71 72 72 67 64 63 62 63 64 65 65 66

GFSSE_250_spd_036.txt.gz
Wind_Speed
30 30 32 33 32 31 31 31 29 28 32 34 34 35 36 37 36 36 37 38 40 40 39 38 38 38 39 39 39 40 41 42 43 45 45 46 48 50 50 51 50 51 51
35 35 35 35 34 34 33 32 32 32 33 33 33 34 36 36 36 37 39 40 41 42 42 41 42 42 41 41 41 42 44 45 47 48 49 51 51 52 53 55 55 55 55
39 39 38 39 37 38 39 39 39 41 38 39 40 41 40 40 40 42 44 43 45 44 45 46 44 46 46 47 49 50 51 52 51 51 52 53 55 57 57 57 58 58 57
44 43 42 43 43 44 45 46 47 46 46 45 46 46 46 46 47 47 47 47 46 46 46 46 47 48 49 50 52 55 54 55 55 55 57 59 59 59 61 61 59 60 60
48 45 44 46 49 50 50 51 52 53 52 51 51 50 50 52 53 53 53 52 51 51 51 51 49 50 53 55 57 57 56 57 58 61 63 63 63 64 65 67 68 65 62
52 51 51 51 51 52 52 53 54 53 54 54 54 54 56 57 58 58 58 56 57 55 54 56 55 56 57 58 60 61 60 61 62 63 65 68 68 68 71 71 69 68 67
54 54 55 54 53 54 56 57 57 56 56 55 55 56 58 59 59 59 60 61 60 58 58 60 60 61 62 62 62 63 65 66 67 69 73 73 74 75 75 74 75 73 71
58 58 58 58 56 54 55 57 58 60 59 58 59 60 60 61 62 60 59 59 59 59 61 63 64 64 64 64 66 66 68 70 73 75 75 75 76 77 78 77 76 75 75
62 60 61 61 60 59 58 58 59 60 60 60 60 60 60 60 61 62 63 62 62 63 63 63 65 66 67 68 70 72 73 74 75 74 76 78 78 78 80 79 77 76 74
62 62 63 64 63 63 62 62 60 61 62 62 61 62 62 63 64 64 63 64 64 65 65 66 67 69 71 71 75 76 74 76 77 77 80 82 82 79 77 75 72 73 72
61 61 62 62 63 63 63 62 61 60 61 63 62 63 62 62 63 63 63 64 66 67 68 67 68 71 73 75 75 76 78 80 79 80 80 82 82 77 74 71 69 70 67
64 64 64 65 65 62 63 63 62 62 61 64 66 66 68 68 67 69 69 69 70 70 72 73 74 74 74 77 78 78 79 81 80 80 82 82 78 75 72 68 68 66 64
63 62 63 64 64 66 66 65 65 65 66 67 69 69 70 71 71 71 72 72 73 74 75 73 74 75 78 77 79 82 82 81 82 83 82 78 76 73 69 68 66 66 65
65 66 66 66 67 68 68 68 66 67 68 69 69 69 69 69 71 72 74 74 74 75 74 76 76 77 79 81 83 83 83 83 81 78 77 74 71 70 69 66 66 66 65
71 69 69 68 69 70 69 68 67 67 68 68 70 72 71 73 74 76 74 74 73 75 76 76 79 80 80 78 79 81 80 78 77 74 72 70 67 66 66 66 65 66 65
72 73 71 71 72 71 70 70 69 70 69 71 73 74 74 74 76 73 72 72 72 73 75 76 76 76 77 75 73 71 70 69 68 66 65 65 65 64 64 63 62 62 63
75 76 74 74 73 73 72 73 72 72 73 73 74 74 76 75 73 71 70 70 71 70 70 71 70 67 64 64 61 63 62 63 64 63 64 64 65 64 64 64 64 63 62
77 77 76 75 74 74 75 75 74 74 74 72 72 74 74 74 71 69 69 67 64 65 67 66 66 62 62 62 59 60 60 60 60 60 60 61 60 62 63 63 64 64 63
77 77 77 76 77 78 78 79 77 75 71 69 71 72 73 72 69 67 65 65 65 66 68 66 65 65 63 62 63 60 57 55 54 56 55 56 56 57 60 62 63 64 65
81 79 80 81 81 80 80 79 76 74 72 73 73 72 71 70 72 71 69 68 67 66 67 70 64 62 63 62 57 58 59 57 58 58 58 58 60 61 61 61 61 63 64
81 84 83 80 80 80 78 76 76 73 74 72 74 73 72 73 73 71 71 71 64 66 66 67 67 66 64 63 60 61 61 61 64 62 61 64 64 64 60 60 61 61 62
80 80 81 80 78 77 77 78 76 75 73 75 73 76 77 75 77 72 69 72 71 70 71 72 71 67 65 66 64 63 63 68 67 66 66 67 69 65 63 63 60 59 61
77 79 81 82 81 80 79 80 80 79 79 80 81 81 82 83 81 77 74 71 74 73 75 76 73 72 71 71 70 66 70 71 71 70 70 71 71 69 66 67 66 63 60
78 79 79 80 82 84 84 80 82 84 84 84 87 87 87 86 84 77 75 69 72 75 73 76 75 74 75 73 71 72 71 71 72 72 71 73 72 72 71 69 69 65 60
83 84 85 87 88 89 90 90 89 89 87 88 90 90 89 85 87 88 83 80 76 77 74 75 76 75 75 77 78 75 75 75 74 73 74 73 72 74 73 72 69 66 64
85 87 89 91 93 94 95 95 96 95 93 93 94 95 96 97 95 93 86 84 79 77 73 75 77 75 76 77 77 76 74 72 73 72 74 73 73 73 75 71 71 69 67

GFSSE_250_spd_039.txt.gz
Wind_Speed
26 24 26 26 28 29 30 28 28 27 28 28 30 31 33 34 35 35 36 36 37 36 36 39 40 41 41 40 40 40 40 39 39 40 43 45 46 47 47 48 50 52 53
30 30 31 31 30 32 33 32 33 33 32 30 30 32 32 32 33 34 36 36 37 38 39 39 40 42 43 44 43 43 42 43 43 45 47 48 48 49 49 49 51 52 54
33 34 35 34 34 34 35 36 35 35 34 34 35 35 37 39 40 41 41 43 44 44 45 46 46 46 46 47 47 46 46 47 48 50 52 52 51 51 52 53 54 56 56
39 39 38 37 37 38 38 38 38 39 39 40 41 42 42 43 46 47 47 48 49 49 51 51 51 50 49 51 51 50 49 50 53 54 56 55 56 57 57 59 61 64 63
42 42 43 42 42 41 40 42 43 44 45 46 48 50 51 52 52 52 51 52 53 54 55 55 54 54 54 53 53 54 54 56 57 57 56 56 58 59 61 63 65 64 65
45 44 44 45 46 45 44 45 47 49 50 51 53 54 54 55 56 56 55 54 55 55 56 56 58 58 56 56 57 58 60 59 57 57 58 60 62 64 64 66 68 67 68
49 48 48 48 49 50 50 52 53 53 53 53 54 55 55 55 56 56 56 57 57 58 58 59 58 57 58 58 59 60 60 58 58 62 62 63 65 66 67 68 68 69 71
54 54 52 52 53 54 55 56 56 57 56 56 56 57 58 59 60 61 61 61 62 61 59 59 61 61 60 60 60 62 62 62 63 64 65 66 65 66 69 70 69 69 73
58 59 59 57 57 58 57 58 59 59 59 59 57 57 58 60 60 60 60 60 60 61 62 62 61 61 61 61 62 62 62 63 65 66 66 69 68 68 71 71 72 71 74
64 64 64 65 64 65 64 62 60 61 62 61 61 61 59 60 60 60 61 61 61 61 60 60 61 62 63 63 64 65 67 68 67 67 70 69 70 72 72 73 75 74 74
69 66 65 65 64 64 63 63 63 61 62 63 62 63 61 60 60 60 60 62 63 66 66 66 65 67 69 68 67 66 66 68 70 71 73 74 75 74 76 77 76 73 70
69 68 65 63 61 61 62 63 63 63 64 65 66 65 63 62 60 61 63 63 64 67 68 68 68 70 70 70 69 69 70 71 73 75 75 77 77 76 77 74 74 69 66
65 63 62 62 62 62 62 62 63 63 64 65 65 66 66 65 64 65 65 63 63 65 66 68 68 69 70 69 70 72 73 74 75 76 77 76 76 77 75 69 68 65 63
62 62 62 62 61 61 62 62 63 63 62 63 63 65 65 64 65 66 65 65 67 69 70 71 70 72 73 73 71 71 72 74 75 77 75 73 71 67 61 63 63 60 60
67 67 65 63 64 64 64 64 65 65 65 65 66 66 66 67 66 68 68 69 69 69 70 72 71 72 70 71 72 71 70 70 72 70 64 61 58 58 57 57 59 58 58
74 74 71 69 67 68 68 69 68 70 67 69 69 70 69 69 70 69 69 70 69 71 71 71 70 69 70 70 68 69 68 65 63 61 58 55 55 56 55 55 55 53 53
75 74 74 71 69 70 72 73 73 72 74 72 71 70 71 70 71 70 72 70 70 70 69 71 70 70 67 68 66 65 66 65 62 61 60 58 52 49 48 48 48 49 50
74 74 76 74 73 72 72 73 73 73 71 71 71 71 72 72 72 70 70 70 71 70 71 68 64 66 65 66 65 65 63 62 61 59 56 52 52 49 52 53 51 52 53
75 74 72 72 71 71 72 74 75 72 69 69 69 72 73 74 74 73 71 71 73 71 68 69 65 64 69 63 64 63 63 64 64 60 56 58 55 54 57 53 56 56 56
71 71 72 74 74 75 74 74 77 78 77 76 77 78 76 73 71 70 71 70 70 70 69 69 72 68 66 66 65 66 65 69 68 66 60 61 59 62 61 59 61 59 59
74 76 79 77 80 80 78 77 78 80 81 77 77 77 73 70 67 70 70 69 68 70 70 70 71 72 72 68 70 71 73 72 71 70 68 67 64 63 62 61 62 61 61
79 79 81 81 83 84 83 82 82 82 82 81 80 78 77 76 75 75 72 73 72 74 73 72 72 71 71 70 69 73 74 73 74 73 73 70 68 66 66 65 64 64 62
81 82 84 84 85 85 84 83 79 79 79 81 81 82 80 79 79 77 78 77 76 74 76 72 71 71 70 72 76 75 73 74 75 74 73 72 70 68 66 65 65 63 63
84 86 87 86 84 83 83 81 81 80 79 82 84 86 84 82 81 77 75 74 74 72 71 71 71 73 74 82 78 78 75 74 74 74 74 72 69 67 67 68 67 66 65
84 83 84 85 85 85 86 87 90 90 87 87 88 89 91 91 88 86 81 76 76 75 75 76 81 84 84 80 80 80 77 77 77 77 73 72 71 70 70 69 67 68 67
82 83 84 87 88 89 90 91 92 93 94 94 95 95 95 96 95 92 92 88 83 81 78 82 82 81 83 81 80 81 81 77 74 74 73 73 73 71 71 71 71 68 67

GFSSE_250_spd_042.txt.gz
Wind_Speed
26 24 25 26 27 26 26 26 26 25 26 25 24 26 26 27 29 30 32 33 33 33 33 34 34 36 37 37 38 39 41 42 43 43 43 44 45 46 47 50 50 50 50
28 27 28 28 30 30 30 30 30 31 30 30 30 30 31 30 30 31 32 34 36 37 38 40 43 43 45 47 45 44 43 45 47 47 48 49 48 49 52 54 53 52 53
32 30 30 30 30 31 30 31 32 33 33 34 35 34 33 33 34 35 37 40 41 42 44 45 46 47 48 49 50 50 49 50 51 52 51 51 52 54 54 53 52 53 55
36 35 34 33 34 34 33 34 35 35 35 36 37 38 38 40 41 42 44 46 48 49 50 50 50 51 51 50 50 51 53 53 52 54 56 57 58 57 54 54 54 56 58
39 39 39 38 37 37 38 38 39 39 39 40 41 42 44 45 47 48 50 51 52 53 55 54 54 53 52 54 54 54 54 55 56 57 59 59 60 59 59 59 58 59 61
43 43 42 41 41 41 41 41 42 41 42 44 45 48 48 48 50 53 54 54 55 55 56 56 56 57 57 59 59 57 56 57 59 59 59 59 60 60 60 61 62 61 61
46 45 44 43 43 44 44 44 46 47 47 48 50 52 53 54 54 55 55 57 57 58 59 59 58 58 58 57 57 58 59 58 58 59 59 60 59 60 62 63 63 65 64
52 50 48 47 47 47 47 48 49 50 50 52 53 55 55 55 56 56 55 55 57 57 59 59 60 60 59 58 58 58 57 57 59 60 61 62 63 64 65 65 66 66 67
57 55 55 52 51 50 52 52 53 55 55 55 57 58 58 57 58 59 60 60 58 59 59 60 61 61 61 61 61 61 62 64 66 66 65 65 66 66 67 68 69 72 72
61 59 57 56 55 54 57 59 60 61 61 62 62 64 63 63 62 62 63 64 64 64 63 62 61 62 63 64 65 66 67 67 67 67 68 67 66 68 70 71 72 73 74
65 64 63 63 62 63 63 65 64 64 64 65 66 64 65 65 64 65 65 65 65 65 63 63 63 63 63 64 64 64 67 67 66 66 67 70 70 71 72 74 73 75 76
70 68 67 67 67 68 69 69 69 67 69 65 63 62 63 64 64 63 63 63 65 65 64 64 64 63 62 63 65 65 65 66 68 70 69 69 70 72 72 73 75 72 68
76 73 71 70 72 72 67 65 64 63 61 60 61 61 63 62 63 62 63 63 64 64 64 64 63 64 63 64 65 67 68 68 68 67 68 69 68 71 71 65 62 61 58
77 76 74 73 71 68 65 64 64 61 60 60 61 61 62 63 63 65 65 64 65 67 67 67 66 64 66 66 69 66 68 68 67 68 67 69 67 65 64 62 56 53 51
70 69 68 67 64 62 62 62 62 62 61 63 65 65 67 68 67 67 67 69 69 67 68 67 67 68 66 69 67 67 68 67 66 66 65 64 61 58 56 54 50 49 44
66 67 66 66 65 63 64 66 68 68 67 68 69 69 70 72 72 70 71 70 69 68 69 68 67 67 68 69 69 68 67 68 65 66 65 59 56 58 58 54 51 48 46
69 69 71 70 69 70 70 71 71 71 70 71 71 71 71 71 71 70 71 69 67 67 68 70 70 70 70 70 67 68 67 65 66 61 59 53 55 60 59 58 52 51 52
69 70 69 69 69 70 70 71 71 72 73 74 73 71 69 71 72 71 71 71 72 74 74 75 74 72 69 69 69 69 68 67 66 64 62 60 61 64 62 63 59 57 55
71 70 72 71 72 73 74 74 73 73 74 74 72 71 71 71 73 76 75 76 76 76 74 73 73 69 68 70 69 69 69 69 69 66 62 66 68 67 68 64 63 65 60
74 76 75 75 74 74 73 72 71 70 72 73 73 74 76 76 77 77 77 76 76 74 72 69 69 69 68 69 71 71 70 72 71 68 68 69 71 71 70 68 65 63 61
76 76 78 79 79 79 77 75 78 76 78 78 78 78 79 80 80 82 81 79 77 73 67 68 71 71 71 73 74 73 71 72 70 70 69 69 73 72 70 70 65 63 63
79 82 82 81 83 83 82 80 81 80 80 82 82 83 85 86 85 83 81 79 80 79 78 76 74 74 76 76 75 71 71 70 71 69 70 72 73 74 72 71 70 67 63
79 81 82 84 85 85 85 85 85 84 84 85 86 87 87 87 84 82 81 81 81 80 79 77 78 75 73 75 74 74 72 72 74 76 77 76 77 74 74 74 70 68 64
85 84 86 88 89 89 88 87 89 90 90 90 92 90 92 90 88 85 86 83 82 81 80 79 80 83 80 78 78 81 78 79 79 79 77 76 76 77 78 75 72 69 68
89 88 86 85 86 89 91 91 92 92 94 94 94 93 93 93 92 91 92 91 91 89 89 88 87 87 83 83 82 81 82 80 80 81 80 82 77 77 77 73 73 72 74
87 86 85 86 86 87 90 92 91 91 91 93 95 96 97 97 98 97 97 95 95 95 92 91 90 87 85 85 82 84 85 84 81 82 83 80 79 77 77 78 78 76 74

GFSSE_250_spd_045.txt.gz
Wind_Speed
29 27 27 26 26 26 25 23 23 23 22 23 24 24 23 24 24 25 27 28 31 31 30 31 33 35 37 40 42 45 45 46 46 45 44 44 47 50 50 49 49 50 53
30 29 28 28 28 28 27 25 25 25 26 26 25 26 27 28 29 30 31 30 30 31 34 37 40 42 44 46 47 48 50 51 50 50 51 52 53 53 55 55 55 56 57
33 31 31 31 29 28 28 28 28 29 28 28 30 30 32 34 34 35 36 35 37 37 41 44 46 48 49 51 52 53 53 53 54 54 57 57 55 55 56 58 59 59 59
33 32 31 30 30 30 28 29 29 29 30 30 31 32 35 37 38 39 40 41 43 44 47 49 52 53 54 54 55 55 55 55 56 57 56 55 55 57 58 58 60 59 59
36 35 34 34 33 33 33 32 33 32 33 34 36 36 36 39 41 43 43 45 47 49 52 54 54 56 57 57 57 57 56 56 56 54 55 57 57 56 56 59 60 59 59
40 39 38 37 38 37 37 35 35 36 37 38 39 40 41 42 44 46 48 50 52 53 54 54 53 55 56 56 58 58 58 58 58 57 57 58 56 58 59 60 62 63 64
44 43 41 40 40 40 41 41 40 40 41 42 43 44 46 47 48 50 53 54 54 56 56 56 58 59 58 59 59 60 60 60 59 59 60 60 62 64 65 68 67 67 67
50 48 47 44 42 42 43 43 44 44 44 44 45 46 49 49 51 54 54 55 57 59 60 60 60 61 61 61 61 61 63 62 62 63 64 63 63 66 66 66 66 66 66
54 53 52 50 48 47 48 48 48 48 48 48 48 51 54 57 57 59 60 61 61 61 62 63 64 64 62 62 62 62 61 63 64 64 64 64 65 65 65 66 67 68 69
57 57 58 56 53 53 54 54 54 51 51 50 55 59 59 62 64 64 65 65 63 62 62 64 65 64 63 63 63 62 63 61 61 62 63 61 63 65 65 67 64 66 67
59 58 58 58 58 58 56 56 57 57 58 60 63 65 67 66 66 67 66 63 61 63 65 64 63 62 62 62 62 62 61 62 60 60 61 63 64 65 64 65 66 66 68
63 63 62 62 62 61 62 62 63 64 65 68 67 69 67 66 66 63 61 62 62 64 65 63 64 64 62 63 64 66 65 64 64 63 63 64 65 64 63 62 63 62 59
69 67 65 65 66 66 67 68 68 70 70 71 72 68 67 65 63 62 63 62 62 64 64 65 65 66 67 66 66 65 65 66 64 66 65 65 65 63 62 62 61 56 53
72 71 71 70 70 70 71 72 74 73 74 72 68 65 64 63 64 64 66 66 67 67 68 68 69 70 71 70 68 67 68 67 68 67 67 66 64 64 63 61 53 52 49
76 75 74 74 75 75 75 74 72 71 69 65 63 63 63 65 69 72 72 72 72 72 69 70 68 67 66 67 68 68 70 69 70 68 68 66 64 64 62 60 54 53 52
77 77 76 76 75 74 71 69 66 65 64 63 65 67 70 71 73 73 72 72 73 72 70 71 70 68 68 69 71 71 71 71 69 69 67 67 64 63 62 56 55 57 57
75 75 75 73 71 70 70 68 68 68 69 71 72 73 73 73 73 74 75 74 74 72 72 71 71 70 71 71 72 73 71 70 70 67 67 69 68 66 64 59 59 59 62
72 71 71 71 71 71 73 72 71 71 70 73 74 74 75 75 75 75 75 74 72 71 72 73 75 74 76 74 72 71 72 70 68 68 70 71 71 67 68 63 62 62 65
78 77 76 74 74 75 74 73 73 73 74 75 74 74 75 75 77 76 75 75 75 77 75 76 78 77 77 74 70 69 67 69 70 70 73 74 71 70 71 67 66 64 66
80 79 78 77 76 76 76 75 76 77 77 78 79 78 79 80 81 82 79 80 79 80 80 83 81 81 77 78 77 71 69 71 69 72 74 73 70 70 69 69 67 66 70
80 78 77 78 79 80 79 79 77 83 84 83 84 86 86 85 83 84 86 85 85 84 85 85 81 82 81 80 79 79 77 76 76 76 74 72 72 71 70 69 70 73 72
79 79 79 78 78 78 79 82 83 83 86 89 89 89 91 89 90 90 87 88 88 87 85 83 84 83 80 80 79 79 77 76 76 74 74 75 74 75 73 74 76 74 73
79 78 77 78 82 85 85 84 86 87 91 93 95 97 97 95 93 93 92 93 92 92 93 92 89 86 84 82 81 80 78 78 78 78 76 78 79 79 79 77 78 76 76
82 83 83 84 84 84 87 88 90 93 92 97 98 100 97 95 95 94 94 94 94 93 91 93 92 92 90 88 89 86 84 83 85 82 82 78 80 81 81 79 77 79 78
85 85 85 84 86 87 87 91 93 95 97 98 97 96 96 98 96 96 96 93 93 94 94 94 96 94 94 92 91 90 85 85 82 80 79 79 79 81 80 81 81 79 78
87 87 86 86 88 91 94 96 96 98 96 96 93 94 94 96 97 97 98 98 98 97 98 97 98 98 95 94 91 89 88 84 81 84 84 84 84 83 84 82 81 81 82

GFSSE_250_spd_048.txt.gz
Wind_Speed
27 26 26 26 25 23 21 21 20 19 19 19 19 19 19 20 20 21 23 24 26 28 30 31 30 31 35 39 42 45 46 48 49 50 50 51 52 52 53 53 52 50 51
29 28 27 26 24 23 22 22 22 21 21 21 22 21 22 22 24 26 26 28 30 33 33 34 36 38 43 46 49 50 51 53 54 55 54 55 54 55 54 53 52 53 55
30 29 27 26 26 25 25 24 24 24 24 24 24 24 25 26 27 29 31 33 36 37 38 40 42 45 48 51 52 52 54 55 56 56 55 55 56 56 54 55 56 56 56
29 28 27 28 28 27 26 26 26 25 24 25 25 26 26 27 29 31 33 35 38 40 41 43 45 48 52 54 55 55 55 57 56 57 58 57 57 56 55 55 56 57 57
32 31 30 30 30 29 27 28 27 26 27 28 28 29 30 31 33 35 37 39 41 43 46 49 52 54 55 57 55 56 56 56 57 57 59 59 59 58 58 60 60 62 63
33 32 32 30 30 30 29 29 31 31 31 31 31 32 34 36 37 39 40 42 45 47 48 50 52 54 56 58 59 58 58 58 59 58 58 59 60 59 61 61 61 63 63
37 34 34 33 33 33 34 34 34 35 35 36 37 37 39 40 41 42 44 46 47 50 51 55 55 58 58 58 60 60 61 62 61 60 60 60 59 61 61 61 61 60 59
42 39 39 38 38 37 37 37 38 38 39 40 41 41 42 43 44 44 47 51 54 58 60 61 62 63 61 60 60 62 64 63 62 61 61 61 60 58 58 58 58 58 60
46 44 43 43 42 42 42 41 41 41 41 42 44 45 45 47 48 49 54 57 60 63 62 64 64 62 61 62 63 63 64 63 63 62 61 61 61 60 60 61 58 57 59
48 48 48 48 48 47 49 48 47 47 47 48 49 50 50 53 55 56 60 64 65 64 63 63 63 62 62 64 64 64 62 62 62 62 63 62 63 61 62 61 61 59 58
52 52 51 51 51 51 52 53 54 52 52 53 53 54 56 58 60 63 66 68 66 64 64 64 62 63 64 64 66 66 67 65 66 66 65 62 63 64 65 62 61 58 58
57 57 55 54 53 54 55 53 54 56 58 59 59 60 62 65 67 69 72 70 68 64 64 64 63 64 67 68 68 69 69 66 65 64 63 64 65 65 63 62 60 57 56
63 62 60 58 57 57 57 57 59 60 62 63 64 65 67 70 73 74 72 69 68 65 64 65 67 70 72 71 69 67 67 67 66 65 63 66 66 67 63 61 59 59 56
67 66 64 63 63 62 62 63 64 65 67 68 69 71 73 74 73 72 68 66 65 65 68 70 72 71 71 70 69 71 71 69 66 67 67 67 68 67 66 61 59 58 58
71 69 68 68 68 68 67 67 68 68 70 71 74 74 75 74 71 66 65 67 69 71 72 72 73 73 73 73 72 71 71 71 69 71 71 69 69 66 64 61 60 60 58
75 73 72 72 70 69 70 71 71 72 73 74 76 77 72 66 66 68 70 72 72 73 75 75 76 76 74 74 72 72 73 71 72 73 74 70 69 67 62 62 63 61 59
75 74 75 73 71 71 72 74 74 75 75 74 73 70 68 70 70 71 73 73 77 77 77 78 78 77 76 76 75 73 71 73 75 71 73 73 69 64 65 65 64 64 62
76 76 73 72 70 70 71 70 71 69 70 72 72 69 72 74 74 75 76 75 78 81 80 81 81 80 80 76 76 78 77 76 75 73 73 73 68 68 70 69 70 67 65
76 75 72 70 70 71 71 72 73 75 76 74 72 73 77 77 77 78 81 82 84 86 86 86 85 85 85 83 81 80 80 78 74 76 76 71 73 73 72 72 70 67 68
76 75 74 73 73 74 75 74 76 76 78 77 76 77 77 81 83 86 89 91 89 90 91 90 90 91 87 83 82 80 80 75 80 79 76 75 71 72 73 73 68 70 70
79 78 79 78 80 81 80 80 79 79 81 79 80 80 80 81 84 87 88 91 93 94 96 96 94 90 87 87 83 82 84 85 82 80 79 75 74 74 72 72 71 74 73
82 82 82 82 80 81 82 83 81 78 80 84 83 84 87 88 87 87 92 95 96 98 98 94 92 90 89 87 86 85 83 81 82 83 80 78 79 78 76 74 79 76 74
81 82 83 84 83 83 83 82 83 85 84 85 88 89 91 93 95 97 96 96 98 97 96 94 91 89 89 90 87 86 83 83 85 85 83 82 82 81 80 77 76 76 75
86 85 85 85 86 85 85 84 85 84 85 88 91 95 97 101 104 106 106 101 99 98 95 93 91 91 93 92 91 91 91 89 88 86 86 85 83 80 78 76 76 76 76
87 88 88 88 86 86 86 87 88 90 94 96 96 96 97 100 107 110 110 107 102 98 96 92 92 90 92 93 96 96 96 95 94 90 87 86 83 82 79 78 78 79 78
91 90 89 88 88 89 90 90 92 94 95 98 100 101 103 106 107 108 106 104 102 98 97 98 99 99 100 101 102 104 106 106 102 100 98 97 95 91 88 82 79 77 75

GFSSE_250_spd_051.txt.gz
Wind_Speed
32 33 31 30 28 27 26 24 22 21 18 17 17 17 17 17 17 18 19 21 22 24 25 27 30 33 35 36 38 42 47 50 51 52 50 51 53 54 54 55 55 54 55
28 30 29 29 28 25 24 22 20 17 18 19 19 20 19 19 20 22 22 24 25 28 29 32 35 37 38 39 42 47 51 52 53 52 53 55 56 57 58 56 56 56 55
28 27 27 26 25 25 24 22 20 20 21 22 21 21 21 22 23 23 24 26 28 30 32 34 36 38 41 44 48 50 52 54 54 56 57 57 57 59 58 57 57 57 57
28 29 29 27 27 25 24 22 21 22 22 22 22 22 22 22 23 25 26 28 31 33 35 37 40 42 45 47 49 50 53 55 58 58 57 58 59 60 58 59 58 57 57
30 28 27 26 25 24 23 24 23 23 23 23 24 23 24 25 27 28 30 32 34 36 39 41 43 45 49 51 53 55 58 59 59 59 58 59 62 61 60 59 59 58 56
30 29 27 25 25 25 25 26 26 25 26 26 27 26 27 29 30 33 35 37 38 38 40 44 48 51 54 57 60 62 61 59 57 59 62 62 63 62 60 59 58 57 57
33 30 28 28 28 28 28 28 28 28 28 29 29 30 32 34 35 36 37 39 41 42 45 48 53 57 60 60 59 59 59 61 60 64 63 64 62 61 60 60 59 58 57
37 35 33 32 32 31 31 30 30 31 31 31 33 35 36 37 38 40 42 43 44 46 51 54 58 61 63 61 60 60 60 62 64 65 66 65 64 64 63 62 60 59 60
41 40 38 37 36 34 33 34 34 35 35 36 36 37 39 42 43 45 46 47 49 52 56 59 62 64 62 60 60 60 62 64 65 67 69 67 66 61 60 58 57 59 61
46 44 42 40 39 38 37 38 38 39 41 42 44 44 45 47 48 50 50 53 56 57 62 64 66 64 63 62 62 61 63 67 69 69 67 64 64 64 63 61 59 62 60
49 47 46 44 43 42 42 42 43 45 47 48 49 51 52 52 53 55 57 58 60 63 67 68 68 65 62 61 62 64 68 71 71 69 68 67 66 65 63 62 64 62 62
54 51 51 49 47 46 46 45 47 49 50 51 51 52 53 56 58 59 62 64 66 68 70 70 67 64 62 64 66 69 71 71 71 70 70 68 67 65 65 65 65 60 58
60 56 55 53 52 52 50 50 51 52 53 53 54 55 59 61 62 64 67 69 72 72 71 70 66 63 66 69 70 70 69 70 72 72 70 69 71 68 67 67 66 61 58
63 62 59 58 57 56 56 55 56 56 57 58 59 61 63 65 66 69 71 72 74 74 71 67 66 68 70 71 69 72 71 72 74 74 74 71 70 70 68 69 65 62 59
65 64 62 62 60 59 60 60 61 62 62 63 65 66 66 68 70 72 74 75 74 73 72 71 70 71 73 73 74 76 75 76 77 77 77 72 72 70 70 67 65 63 62
70 69 66 65 63 63 64 65 66 66 67 68 67 68 70 71 72 72 72 73 74 71 72 72 73 74 76 78 80 79 79 79 80 81 79 76 72 70 71 64 66 66 63
73 71 70 68 68 68 69 70 70 70 70 71 70 72 74 73 72 69 71 74 72 72 74 76 78 80 82 85 85 84 86 84 82 81 76 76 73 69 68 63 68 64 63
73 73 73 70 70 71 73 72 73 72 73 74 72 72 71 70 71 73 73 73 74 77 78 78 81 84 87 87 88 90 89 88 83 77 77 76 73 69 72 72 66 65 64
73 73 73 73 73 73 72 73 75 74 73 74 72 70 72 74 74 75 77 77 78 79 79 82 83 87 89 93 95 94 90 88 83 77 75 75 75 74 72 70 67 67 66
78 77 77 76 76 75 73 72 73 72 70 70 72 72 74 78 80 79 82 80 80 80 83 86 91 94 97 99 99 96 92 89 84 78 72 75 76 75 72 70 70 70 70
79 78 76 73 72 71 74 73 73 73 73 75 77 79 77 77 78 81 81 81 81 84 87 94 97 98 98 101 99 100 92 87 82 78 76 74 74 74 74 74 72 70 70
80 77 75 74 74 73 73 74 74 76 78 80 81 83 81 78 78 79 81 83 87 91 94 96 97 100 104 105 103 95 87 83 82 81 79 78 78 77 78 79 78 76 74
79 76 75 73 74 75 77 78 79 78 78 80 85 86 89 88 85 83 86 90 93 98 99 101 103 107 106 106 98 97 94 87 85 86 87 87 86 83 82 82 81 80 78
82 80 80 80 80 81 81 81 82 83 84 84 84 87 89 91 93 93 94 96 99 103 106 107 109 109 107 99 97 97 99 99 99 98 97 95 95 92 90 87 87 84 83
86 86 85 85 84 85 85 84 85 87 88 89 90 89 91 95 98 101 104 106 106 108 111 111 111 107 99 97 98 101 105 107 110 111 110 106 102 97 93 92 90 87 84
89 88 87 87 87 88 89 89 91 91 92 94 96 96 96 97 102 104 108 111 113 114 114 111 104 99 100 102 102 107 114 117 115 109 106 103 100 96 94 89 88 83 83

GFSSE_250_spd_054.txt.gz
Wind_Speed
33 34 35 34 32 31 29 28 27 24 24 23 22 21 21 20 19 17 16 17 18 20 22 23 24 27 30 32 34 37 40 43 46 49 52 54 55 56 58 57 56 58 59
29 33 35 34 30 28 27 25 25 25 23 24 24 21 19 19 18 18 20 20 20 20 22 24 25 27 31 35 37 41 44 47 49 52 55 57 58 55 55 56 58 61 59
29 30 34 33 30 27 26 27 25 25 25 24 22 20 20 20 19 20 19 20 21 22 24 27 29 31 34 37 39 44 47 50 55 56 56 54 54 54 58 59 62 63 60
30 27 27 28 28 28 27 26 26 27 25 23 21 20 21 21 20 20 21 23 24 26 28 30 32 34 37 40 44 49 51 55 56 56 53 53 56 58 60 61 63 61 61
31 29 27 27 27 27 27 27 27 27 25 22 22 22 21 21 22 24 25 26 28 30 30 32 35 38 40 44 49 54 57 55 54 52 53 56 57 60 62 63 63 65 61
33 31 28 27 28 28 28 29 28 26 24 23 24 23 23 24 25 27 28 30 32 33 35 36 39 41 45 50 54 56 58 57 56 54 56 57 58 62 65 65 64 61 57
36 34 32 30 29 28 29 28 27 26 25 26 26 27 27 28 29 30 32 34 34 37 40 41 43 46 49 53 57 59 60 60 57 57 58 59 62 65 65 63 61 61 60
39 36 34 32 32 31 29 27 27 28 28 28 28 29 31 31 33 33 33 36 40 41 43 45 49 51 55 58 60 62 65 61 60 58 58 62 64 63 64 65 64 61 63
42 40 37 35 33 31 31 29 29 29 30 31 32 34 35 36 37 37 39 43 44 46 47 49 53 56 59 63 66 66 66 62 59 60 63 64 63 63 63 63 64 65 66
46 43 40 38 37 35 35 33 34 34 34 35 36 37 39 40 43 45 47 50 49 50 52 54 58 61 64 66 69 68 65 62 62 64 65 66 67 68 68 66 67 68 65
49 47 45 42 40 40 39 38 39 38 38 39 41 43 44 45 47 48 49 50 51 55 57 60 62 66 67 69 70 67 66 65 65 68 70 72 71 73 69 71 71 67 64
54 50 48 47 46 45 44 43 43 43 43 43 44 46 47 49 49 51 51 54 56 59 60 63 67 68 68 70 69 68 66 68 70 71 73 75 75 75 75 74 71 66 65
57 56 54 51 50 48 47 47 48 49 48 47 47 49 51 52 53 55 57 60 63 63 65 67 70 69 70 69 68 67 70 71 73 74 76 77 78 78 79 75 71 66 63
60 58 57 55 53 51 52 52 53 52 52 52 52 52 55 55 58 59 63 63 65 67 69 71 70 69 69 67 68 72 71 74 75 77 79 82 81 83 80 75 70 66 65
67 62 59 58 58 57 56 57 57 56 55 56 56 57 59 61 62 64 66 68 69 70 71 71 69 70 70 71 74 75 75 76 80 83 83 85 86 83 81 75 70 67 61
66 66 63 63 61 59 60 60 59 59 59 60 60 61 63 65 66 68 69 71 73 74 71 69 71 72 75 76 78 77 79 80 83 85 87 87 86 85 78 75 70 65 60
73 70 70 67 65 65 64 62 62 63 62 63 63 65 67 69 70 70 73 73 74 71 70 71 74 78 80 78 77 79 79 82 86 89 87 92 90 84 78 72 68 63 63
74 72 71 72 71 69 68 68 68 66 66 68 68 69 70 71 73 75 75 75 74 72 75 77 77 78 81 81 83 82 84 87 89 90 95 95 94 84 76 68 66 65 64
75 75 75 73 73 72 70 70 70 69 71 71 71 72 73 75 75 73 72 71 72 75 75 78 79 80 82 86 85 89 92 93 94 96 100 98 90 80 75 71 68 66 64
79 78 77 76 74 73 73 72 73 73 72 72 73 75 75 74 74 70 72 75 77 77 79 81 82 85 86 89 91 94 96 99 101 102 101 98 88 82 81 76 73 72 70
81 81 80 79 77 75 74 74 75 73 74 75 77 75 75 73 73 76 79 80 82 82 84 86 88 87 91 94 98 100 104 106 107 110 104 89 85 87 84 85 84 81 78
83 83 81 79 78 78 79 78 77 76 75 74 74 71 72 75 77 77 78 79 84 88 89 90 92 94 96 101 104 108 107 110 112 105 97 91 88 89 91 94 94 90 85
84 83 81 80 78 77 77 78 79 79 78 75 74 74 76 78 80 80 80 83 87 91 94 97 98 100 103 106 110 112 113 113 106 99 95 95 95 98 102 100 96 90 86
89 86 82 80 80 80 78 76 72 72 71 73 76 79 83 85 86 88 89 91 92 94 96 99 102 104 109 110 113 116 116 109 99 93 96 102 106 106 97 93 92 90 88
90 89 87 83 80 79 78 78 76 76 77 80 82 85 86 89 91 92 96 97 97 98 99 103 106 108 111 114 116 114 102 98 98 101 102 107 106 98 95 88 85 84 84
91 90 89 86 85 84 83 83 83 83 85 86 87 89 91 93 95 97 99 100 103 103 105 106 108 111 115 117 114 100 97 98 102 108 105 98 97 94 92 90 85 82 78

GFSSE_250_spd_057.txt.gz
Wind_Speed
38 38 37 38 36 35 34 32 31 32 32 32 31 27 24 20 20 20 19 19 16 17 18 18 18 20 22 24 27 29 32 36 41 43 48 49 50 48 48 50 50 53 57
35 35 36 37 36 35 33 32 33 34 32 30 28 27 22 21 22 18 19 18 17 16 17 18 21 22 24 26 28 32 36 40 44 48 50 53 51 47 50 49 55 57 58
34 32 35 34 35 34 32 31 31 30 29 26 28 25 22 23 21 19 19 17 17 18 20 21 23 25 26 29 32 35 38 43 48 51 54 54 52 50 49 53 57 59 59
36 32 29 31 33 33 32 31 30 30 28 28 27 25 24 24 19 20 19 19 20 21 23 26 27 29 31 33 36 38 43 47 51 53 55 56 52 49 52 54 57 58 57
39 32 30 27 31 33 32 31 31 30 29 29 27 26 26 22 19 20 21 22 23 24 27 29 30 33 35 37 41 44 48 51 54 58 58 58 53 53 56 56 57 58 57
42 35 31 28 26 29 30 31 31 31 30 29 26 26 24 22 22 23 24 25 26 28 30 31 34 36 39 42 44 46 49 55 57 60 60 60 56 56 57 58 60 62 62
43 38 33 30 29 29 30 31 30 30 29 28 27 26 25 25 26 27 27 27 29 31 32 35 39 41 42 44 48 52 55 57 62 63 64 62 60 58 60 63 64 63 64
45 42 37 33 33 31 31 31 31 29 28 28 29 28 27 28 29 30 30 31 33 34 37 41 44 45 47 49 53 55 60 63 65 65 64 62 60 62 65 66 67 66 68
47 44 40 37 36 34 33 32 31 30 29 30 30 30 30 31 31 32 33 35 37 41 44 46 46 47 51 54 57 60 64 65 66 64 64 64 64 70 68 69 69 71 73
48 47 44 41 38 37 35 35 33 32 32 31 31 31 32 33 35 37 39 40 43 45 46 48 50 53 56 58 61 66 66 67 67 64 64 70 72 69 69 69 72 75 75
51 49 47 44 40 39 38 37 36 35 35 35 35 35 35 37 39 41 43 45 45 47 48 51 55 59 61 63 65 68 68 67 65 66 72 74 72 71 70 73 78 77 77
55 52 50 47 44 43 42 41 41 40 39 39 39 40 41 41 42 43 44 45 47 49 51 54 58 61 62 65 68 69 66 66 68 71 76 74 73 72 74 77 79 80 82
59 57 54 51 49 47 47 45 44 44 44 43 44 45 46 46 46 46 48 49 51 53 55 59 61 63 66 69 70 66 66 69 73 77 77 75 73 74 77 80 81 84 84
62 59 56 55 53 51 50 49 50 49 48 48 48 49 50 50 50 51 54 55 56 57 61 65 66 68 70 71 67 66 69 73 77 79 77 76 74 77 81 84 84 87 85
66 64 61 58 58 56 55 54 54 53 52 52 52 52 54 54 55 56 57 59 60 63 66 68 70 71 73 69 68 69 73 77 81 79 78 76 78 82 86 87 89 90 85
66 68 64 63 62 60 60 58 58 57 57 57 56 56 57 58 58 59 60 62 64 67 69 71 72 73 73 71 72 74 79 82 82 82 81 82 85 87 91 93 92 91 80
69 68 67 66 65 64 63 60 59 60 60 59 58 60 60 60 61 63 65 67 68 69 71 74 73 72 71 75 78 80 83 85 84 85 86 90 92 95 95 96 96 90 77
70 66 66 66 67 67 65 66 65 64 63 62 62 63 64 65 66 68 70 70 70 72 74 74 71 71 76 80 82 86 87 85 85 87 91 94 98 100 100 101 97 82 72
75 77 76 75 73 71 69 68 67 69 68 68 69 68 69 69 70 71 72 73 72 74 75 74 74 78 82 85 87 89 89 88 88 92 97 99 101 103 106 104 89 78 73
79 81 80 79 78 77 75 74 72 71 71 71 71 71 71 72 72 73 74 75 77 75 75 75 79 81 84 88 89 91 91 92 94 97 100 103 106 109 107 95 86 81 79
82 82 81 81 81 80 78 76 75 74 74 74 75 74 74 74 74 75 77 77 75 75 78 81 82 84 88 90 92 93 94 95 99 103 106 109 110 109 96 88 86 86 89
85 84 82 80 80 79 78 77 77 77 77 77 77 76 76 77 78 77 75 74 76 76 79 84 87 89 91 93 95 96 96 99 104 107 111 112 112 100 91 89 91 95 97
84 84 84 83 82 81 79 79 79 79 79 79 79 79 79 77 77 77 74 75 77 80 84 88 92 94 96 97 98 102 102 103 107 112 114 112 102 96 95 99 103 100 91
88 86 85 83 83 83 83 82 81 81 80 81 80 79 79 78 75 73 76 79 82 85 87 92 96 98 99 99 103 106 108 110 110 110 111 103 99 101 104 103 95 91 88
94 91 88 86 84 84 84 83 82 82 82 82 82 81 82 84 86 87 86 89 90 91 94 97 98 100 100 102 104 107 111 114 115 117 108 98 102 105 98 94 90 89 87
95 94 92 89 88 87 87 86 85 83 81 81 81 82 83 84 85 85 88 91 94 96 98 99 99 100 101 105 108 110 113 115 119 112 102 103 100 95 94 90 90 87 84

GFSSE_250_spd_060.txt.gz
Wind_Speed
35 36 36 36 37 37 35 35 34 31 33 32 31 28 26 26 25 23 20 19 17 17 16 14 14 15 17 18 19 22 25 28 32 36 41 44 49 51 51 48 45 49 51
36 35 35 35 36 38 36 34 34 32 34 33 32 29 28 27 25 22 20 21 17 17 15 15 17 18 20 21 24 27 30 33 37 42 43 46 51 52 52 51 51 51 52
34 32 32 34 35 35 35 35 33 33 33 33 32 30 28 26 24 24 20 20 18 18 17 18 20 21 23 25 28 31 34 36 41 41 46 50 53 55 53 52 53 54 55
33 31 32 31 33 34 33 34 33 33 32 31 29 28 27 26 26 24 21 20 19 20 20 21 23 25 26 28 31 33 36 38 41 46 51 54 57 57 55 55 56 58 56
33 33 34 33 32 33 33 33 33 32 31 29 28 28 28 27 27 24 23 20 21 22 23 24 25 27 29 32 35 36 38 41 45 50 54 58 60 58 57 59 60 60 59
35 37 36 35 31 28 31 34 34 34 33 31 30 31 29 29 28 25 25 22 23 24 26 27 28 30 33 36 39 39 42 45 48 54 60 61 61 58 58 64 64 61 61
37 39 38 38 33 29 28 32 34 33 32 32 31 31 30 29 27 26 26 25 26 27 28 30 32 35 39 41 41 42 46 50 53 58 61 62 61 59 60 68 64 64 63
40 41 40 40 36 33 30 29 30 30 30 31 32 31 30 29 27 27 27 28 29 30 32 33 37 40 42 42 44 47 50 54 56 60 63 62 60 60 65 71 69 66 66
44 44 43 42 40 36 33 31 30 30 32 32 32 30 30 30 29 30 29 30 31 33 35 38 41 42 43 44 48 51 54 57 60 63 64 62 61 63 71 73 72 70 69
47 47 46 44 44 40 36 34 32 32 32 32 32 30 30 30 32 32 31 32 34 36 39 41 43 43 44 48 51 53 57 62 66 67 65 63 64 68 76 74 73 73 72
50 49 48 46 43 43 40 36 34 34 35 35 34 33 32 32 33 34 35 37 39 40 42 44 45 46 49 52 55 58 62 66 68 67 65 66 69 74 76 75 73 73 75
52 52 51 49 46 46 42 40 38 37 36 37 36 36 35 36 37 39 40 41 42 43 45 47 48 51 53 56 59 62 65 68 69 66 67 69 74 77 76 74 74 76 79
58 56 55 53 50 48 45 44 42 41 40 40 40 39 39 41 42 43 44 46 46 47 49 50 52 54 57 60 62 65 68 68 69 69 70 73 76 78 78 77 78 80 82
55 59 58 56 53 51 50 48 46 45 44 43 43 44 45 45 46 47 48 49 51 51 53 54 56 58 61 63 65 68 70 69 69 72 74 76 80 82 82 82 82 83 84
64 63 60 59 57 54 54 53 52 49 47 48 49 49 49 49 49 50 52 53 54 55 56 58 59 63 65 66 68 70 70 70 72 76 78 82 83 85 84 84 86 88 90
68 65 64 63 62 60 58 57 56 54 53 53 52 53 53 52 53 55 56 57 58 59 60 62 64 67 68 70 72 72 71 72 77 79 83 86 88 89 87 88 89 90 93
69 68 65 65 65 64 62 61 60 59 58 58 58 58 57 57 58 58 59 60 60 62 65 66 67 69 70 72 74 73 73 76 80 83 86 89 92 92 92 94 93 96 97
68 70 67 67 67 67 66 64 63 63 64 63 61 59 60 60 61 62 62 64 66 67 69 69 70 71 73 75 73 75 76 79 82 87 90 93 93 94 95 96 99 100 102
74 71 69 69 69 68 68 66 68 67 67 66 65 64 65 65 65 67 69 70 69 70 71 72 73 73 76 75 77 79 80 84 87 90 93 95 95 96 100 101 105 105 104
81 76 74 72 72 71 71 71 68 66 67 66 66 66 66 68 69 71 72 72 72 73 74 75 75 76 76 80 79 81 85 88 90 95 97 97 98 102 103 107 108 108 101
84 82 82 79 76 73 71 69 70 70 70 71 72 73 73 73 73 75 75 75 76 75 76 78 77 79 79 80 81 84 89 91 95 96 99 100 103 105 108 108 111 106 100
88 86 83 80 78 77 77 76 76 77 77 78 77 77 77 78 78 77 77 77 77 78 79 80 82 79 80 84 85 86 88 94 97 100 101 103 106 108 110 111 109 103 101
90 88 86 84 83 81 81 80 79 81 82 81 80 80 80 80 79 79 79 80 81 81 81 83 84 82 83 85 89 92 93 96 99 101 104 105 109 111 111 110 105 103 102
94 92 89 87 86 85 84 83 83 82 82 81 81 82 82 81 81 82 82 81 82 83 85 84 81 82 85 88 93 97 101 101 99 100 100 107 110 110 109 105 103 103 100
98 96 92 91 90 88 87 86 85 85 84 83 84 84 83 83 83 82 82 82 82 82 81 82 84 87 90 93 98 101 101 102 104 104 107 107 111 109 104 101 101 100 90
102 99 96 93 92 90 88 87 86 85 84 83 83 83 84 85 85 85 84 85 85 86 87 89 91 93 96 99 99 99 102 104 106 109 109 111 111 104 97 98 100 88 82

GFSSE_250_spd_063.txt.gz
Wind_Speed
35 35 35 34 34 32 33 32 32 32 32 30 30 29 28 26 23 23 25 23 21 19 18 16 14 13 15 17 18 20 21 24 27 31 35 36 39 44 47 51 49 49 55
37 36 35 35 35 34 33 33 33 32 33 33 30 31 30 26 26 25 25 23 21 20 17 16 16 17 17 20 21 23 25 28 30 33 35 39 43 48 53 53 51 51 57
35 35 34 33 33 34 33 33 33 34 33 32 33 31 30 28 28 26 26 24 23 22 18 17 19 19 20 21 22 25 28 31 34 35 39 43 47 51 55 56 52 52 59
34 35 33 32 31 31 32 31 32 32 33 32 31 32 30 29 28 26 26 25 25 23 21 20 22 22 23 24 25 28 32 35 35 38 42 45 49 53 56 54 50 53 62
35 34 34 33 31 31 30 30 31 31 32 32 31 30 29 27 27 27 28 26 25 24 22 23 24 24 26 27 30 33 35 36 37 41 44 46 51 54 54 53 52 55 63
37 35 34 34 32 32 32 31 31 31 31 32 31 30 28 28 27 29 29 28 25 25 24 25 26 26 28 30 33 36 36 38 40 44 47 50 54 57 57 54 55 56 66
40 39 36 35 33 34 34 31 30 32 32 33 32 32 31 30 30 30 31 29 27 27 27 28 28 29 32 34 36 37 38 41 44 48 51 56 58 59 60 58 58 61 69
43 40 39 34 34 35 36 32 29 30 33 34 35 35 33 32 33 32 31 29 30 29 30 31 31 32 34 37 39 39 41 44 47 50 54 58 61 62 62 59 62 66 72
45 44 42 38 36 37 37 35 31 28 30 34 35 35 33 34 33 32 31 31 31 30 32 33 33 35 37 39 41 42 45 47 49 54 57 59 62 63 63 61 66 70 74
47 46 45 43 39 38 39 38 33 32 30 31 31 33 33 33 33 32 32 32 32 32 35 36 37 39 40 41 43 46 48 50 54 57 60 63 64 64 63 66 68 72 76
49 48 48 46 41 41 40 40 39 36 34 33 32 32 32 33 34 34 34 33 34 35 38 40 41 42 44 45 48 50 52 54 57 60 63 64 66 66 66 67 72 75 77
52 50 49 48 45 44 44 42 41 40 38 36 35 35 35 35 36 35 35 35 37 39 42 44 45 47 48 50 51 53 55 57 60 62 66 67 69 69 70 71 75 77 80
56 53 54 51 49 47 46 45 44 41 41 39 38 38 37 38 38 38 38 39 40 43 46 47 48 50 51 53 54 56 59 61 64 66 68 69 69 70 72 74 77 81 83
56 56 57 53 51 50 50 48 47 45 44 42 41 41 41 41 42 42 41 42 45 47 49 50 52 54 55 56 58 60 62 64 67 69 70 72 72 72 74 78 81 84 86
57 57 57 57 55 54 53 52 51 49 47 47 46 45 45 44 44 44 46 47 48 51 52 55 55 57 58 60 61 63 65 66 69 71 73 74 75 75 79 83 85 88 90
51 56 58 60 56 58 57 57 56 54 52 51 50 49 48 47 47 48 50 51 52 54 56 57 58 59 62 64 64 66 68 70 72 74 76 75 76 79 83 86 88 91 92
53 56 64 58 59 59 59 60 60 59 57 55 54 53 52 52 52 55 55 56 55 57 58 59 60 63 65 67 68 69 71 74 75 77 76 77 79 83 87 88 92 93 95
75 53 60 64 68 66 63 62 62 62 61 59 58 57 57 57 59 59 59 58 59 62 62 62 64 67 68 69 71 72 74 75 77 76 78 79 83 88 89 93 95 96 96
74 73 63 66 68 70 68 66 66 66 65 64 63 62 62 62 63 64 64 63 63 63 64 67 69 70 73 73 74 76 76 78 80 79 80 83 87 89 93 95 96 99 100
81 80 81 77 69 68 71 72 69 67 67 67 67 66 65 67 67 66 66 65 66 68 70 71 73 74 76 76 77 78 79 81 80 81 84 87 90 94 96 97 100 103 106
84 85 83 83 81 75 69 69 69 69 69 69 70 70 68 68 68 66 67 70 72 73 75 76 77 77 78 79 79 81 79 81 83 86 88 90 94 97 98 100 104 107 107
90 86 86 85 82 81 81 75 70 69 70 71 71 71 70 70 69 71 73 76 77 77 79 80 79 79 80 82 80 78 79 83 87 88 91 94 96 98 101 105 107 109 110
93 90 87 88 87 86 83 81 77 73 73 74 73 73 72 72 74 76 79 80 81 81 81 81 82 82 80 80 82 83 84 83 86 92 96 98 99 102 105 107 109 109 108
99 95 92 89 88 88 86 84 83 82 81 79 79 79 79 80 81 81 82 83 83 83 84 84 83 81 82 83 85 87 85 88 89 90 94 99 103 106 108 107 111 109 105
103 100 97 94 91 89 89 88 86 85 84 83 83 83 83 83 83 83 83 84 84 83 82 82 83 84 85 86 85 87 89 91 94 93 95 100 104 106 106 110 104 103 100
109 105 103 99 96 94 92 91 90 89 88 86 86 85 85 85 85 85 85 84 84 85 85 85 86 85 85 87 89 90 92 94 97 99 99 103 104 103 105 102 98 99 96

GFSSE_250_spd_066.txt.gz
Wind_Speed
40 40 40 38 37 37 38 36 36 34 32 32 30 30 31 27 25 26 23 20 23 25 23 23 21 19 18 18 18 19 20 22 24 27 30 32 34 37 39 43 47 48 46
40 39 40 37 36 34 35 35 33 33 32 31 28 28 28 27 28 29 24 23 24 25 25 24 22 20 20 20 21 21 22 24 27 31 32 34 36 39 41 44 48 50 49
38 37 38 37 34 33 33 33 33 32 31 31 30 30 31 32 31 31 27 27 26 25 27 25 24 23 22 23 23 24 25 27 31 33 34 35 38 40 45 48 51 53 53
38 37 36 35 35 34 32 33 34 34 33 31 31 31 32 31 32 30 30 28 27 28 27 27 26 26 24 25 25 27 28 30 33 35 36 38 42 44 47 50 53 55 55
38 36 34 35 35 34 33 33 32 32 32 31 30 31 32 32 32 31 29 28 28 29 28 27 28 27 26 27 29 30 31 33 34 36 39 42 45 46 50 52 55 57 57
39 36 33 34 36 34 33 31 31 32 31 30 29 30 31 31 31 30 29 28 29 30 29 29 30 29 29 30 31 33 34 35 36 38 41 45 46 49 52 54 56 58 59
41 39 36 35 36 36 35 32 32 32 30 30 30 30 31 31 30 30 30 30 31 31 30 31 33 33 31 33 35 36 36 38 38 40 43 46 49 51 54 56 58 59 62
46 42 39 38 37 36 36 34 33 33 32 31 32 31 32 32 32 31 32 32 33 33 32 34 36 36 34 35 37 39 39 39 40 43 46 50 52 54 57 58 61 62 63
48 45 43 43 40 39 35 35 33 34 32 32 33 34 34 34 34 34 35 36 35 36 36 37 37 37 36 38 40 42 42 43 45 48 50 53 56 57 60 60 63 64 65
51 49 47 45 44 42 40 35 35 35 34 33 31 34 35 35 36 36 37 37 38 38 39 38 38 38 38 41 43 46 46 47 49 51 53 55 58 59 61 63 64 64 66
54 51 50 47 46 43 42 40 37 37 36 35 32 31 32 33 35 37 37 38 38 38 38 39 39 40 41 44 47 49 50 50 52 54 56 59 60 63 63 66 68 67 68
57 53 51 49 47 46 45 42 39 40 39 37 36 35 35 36 36 37 37 38 39 40 40 40 41 43 44 47 50 52 53 54 55 57 59 62 63 65 66 69 70 70 71
62 58 56 51 49 48 46 46 44 41 42 40 40 39 39 39 39 39 39 39 40 40 41 41 43 45 47 50 53 55 56 56 58 60 62 64 66 69 69 72 72 72 74
65 62 58 56 53 50 49 47 47 43 44 44 43 42 42 41 41 40 40 41 42 44 44 45 46 48 51 54 57 58 58 60 61 63 65 67 70 71 73 74 73 74 76
63 66 63 59 56 54 53 52 49 48 46 47 46 46 45 44 42 42 43 45 46 47 48 49 50 52 54 56 58 59 62 63 65 67 68 71 72 73 75 75 74 75 78
66 60 59 58 59 56 55 56 55 52 51 50 50 49 49 47 46 46 47 48 49 50 50 52 54 56 58 58 61 62 65 67 68 70 72 74 75 75 77 76 76 79 82
70 66 59 54 54 55 56 59 60 58 56 56 54 53 52 51 51 51 52 51 52 53 55 56 57 59 60 62 61 66 68 71 73 74 76 76 77 78 77 77 79 81 84
74 67 65 60 59 54 55 57 61 63 62 60 58 57 56 55 55 55 56 55 56 58 60 61 62 64 64 63 68 70 73 75 76 77 78 79 80 78 77 80 81 84 89
76 73 68 68 60 61 63 62 62 59 60 58 57 57 57 59 60 61 61 61 61 63 65 66 67 68 66 69 71 75 77 79 80 80 80 80 79 78 80 82 86 89 93
78 77 76 74 71 68 66 69 68 66 66 65 64 64 63 62 64 64 66 65 65 67 67 68 70 68 70 73 75 79 81 82 81 82 82 79 78 81 84 88 89 95 96
83 81 78 78 79 75 64 66 69 70 70 69 68 68 68 67 67 67 69 68 69 70 72 74 72 72 75 79 79 83 84 84 85 82 79 80 84 87 90 92 95 97 99
90 87 84 82 81 80 78 75 73 69 69 69 70 70 72 73 72 71 71 72 71 71 72 73 73 76 80 83 84 84 84 85 82 81 84 88 89 90 93 97 99 101 104
98 94 92 89 85 83 81 81 78 78 79 80 78 74 69 69 70 70 71 72 74 74 76 78 80 82 83 84 86 85 84 79 81 85 88 92 93 96 98 100 102 105 108
105 102 97 94 93 90 87 85 85 85 83 82 82 81 80 78 74 73 75 76 77 80 82 83 84 85 86 87 86 85 83 84 86 86 88 94 97 100 102 106 107 109 109
108 106 103 102 98 94 92 90 89 88 87 86 85 84 82 82 81 82 83 83 83 84 85 87 87 87 86 84 83 83 85 87 88 90 91 94 98 103 106 110 112 112 111
111 111 110 108 105 102 99 96 92 90 89 88 88 88 89 88 87 86 86 84 84 85 86 87 87 87 86 85 86 88 89 91 91 96 98 98 102 104 108 110 110 110 104

GFSSE_250_spd_069.txt.gz
Wind_Speed
46 45 46 44 41 40 39 39 38 37 35 34 32 32 31 31 27 28 28 28 25 21 21 22 25 25 24 22 21 22 22 23 22 24 28 31 32 33 36 38 40 43 46
48 46 45 44 42 43 40 39 38 38 36 34 34 33 30 29 27 28 28 28 28 24 24 23 26 26 27 24 23 24 24 25 25 28 31 33 34 35 38 40 42 46 48
47 46 44 44 43 44 42 38 37 35 34 34 31 31 29 30 28 30 31 31 30 27 27 25 28 29 28 27 26 26 27 28 28 31 33 34 36 38 40 42 44 47 50
47 46 42 41 42 42 42 39 36 33 33 32 32 31 30 30 30 32 32 32 29 29 28 29 30 30 29 29 29 30 30 31 31 34 35 35 37 40 43 44 47 49 52
46 44 43 41 40 40 40 38 36 33 32 32 32 31 31 30 30 32 32 32 30 31 29 30 31 30 31 30 32 34 33 33 34 36 37 37 39 43 46 48 50 52 54
45 44 42 42 39 39 38 37 35 33 32 31 31 32 30 30 30 32 32 31 31 30 31 31 32 32 32 33 36 37 37 36 37 38 39 39 43 45 49 51 53 54 56
46 44 42 41 37 36 36 36 35 34 33 32 33 32 30 30 30 31 31 31 31 31 33 34 33 34 35 36 39 40 40 39 39 41 42 44 46 48 51 52 54 57 58
50 46 43 41 38 36 35 36 36 35 34 34 35 32 31 31 30 31 31 32 31 33 34 36 35 36 37 39 41 42 41 41 42 43 46 47 50 51 53 54 55 58 60
51 48 45 43 42 39 38 37 36 35 36 36 35 32 32 32 33 33 34 35 35 35 37 38 38 39 39 40 42 41 42 43 45 47 49 51 53 54 56 56 58 61 62
53 53 49 47 45 42 41 38 38 37 35 35 34 33 32 33 35 36 36 37 37 37 39 39 40 40 42 43 41 42 43 45 47 50 53 54 56 57 57 59 61 63 65
57 56 51 48 46 44 44 42 40 40 39 35 36 34 35 33 34 36 37 38 38 39 40 41 41 41 41 41 43 44 45 48 51 54 56 57 56 58 59 61 64 65 67
59 55 54 51 49 48 47 45 44 42 41 40 36 37 35 35 34 35 36 38 39 41 42 41 41 42 43 43 44 46 47 50 53 56 58 58 60 61 62 64 66 67 70
61 57 56 54 53 51 50 50 46 46 45 42 39 39 38 38 38 37 38 39 41 42 42 43 42 43 44 46 47 49 51 53 56 59 59 60 62 64 66 67 69 70 72
67 63 60 57 57 56 52 50 49 47 46 45 42 40 42 40 40 41 40 42 43 44 44 44 45 47 48 50 52 53 55 58 60 61 61 63 65 68 69 71 72 73 75
74 70 67 63 60 59 57 54 53 50 50 47 46 44 43 44 44 43 43 43 44 46 46 46 47 50 52 53 54 56 58 61 62 64 64 67 69 71 73 75 75 76 76
76 73 70 66 64 62 62 60 58 55 53 51 50 49 47 46 47 47 47 47 48 48 49 50 52 53 55 57 59 60 62 64 66 65 68 71 74 75 77 77 78 77 76
79 77 75 72 68 66 65 64 62 60 58 56 56 55 51 50 50 50 51 52 52 53 53 54 55 56 57 59 62 64 67 68 68 69 72 75 77 80 80 80 79 77 78
79 76 77 72 69 65 64 64 62 59 60 59 58 57 57 56 55 56 56 56 56 57 58 58 59 61 63 64 66 67 69 70 71 72 76 79 82 82 81 83 79 79 82
76 76 76 75 72 68 64 58 59 59 58 57 55 56 57 59 60 61 59 58 58 59 61 62 65 65 67 69 69 71 72 75 74 76 80 83 84 84 84 81 82 83 84
81 80 77 77 75 74 72 69 69 68 67 64 61 59 60 61 61 61 60 61 62 64 65 66 68 69 70 72 72 73 74 74 77 80 84 86 86 85 84 83 83 84 88
92 85 82 78 78 76 74 72 71 74 69 70 70 70 66 64 64 65 67 68 67 67 70 71 71 72 74 75 73 75 75 78 82 85 88 88 88 85 83 83 87 90 92
96 94 89 85 81 79 77 73 73 73 74 73 70 69 67 70 70 70 70 69 69 71 74 75 75 75 74 75 75 76 80 83 86 86 90 89 88 85 87 89 92 95 97
100 98 95 90 86 84 82 79 76 74 75 76 73 73 71 71 71 71 72 70 68 68 70 72 72 73 74 77 82 85 84 84 86 86 86 89 91 91 93 97 99 100 101
103 100 98 96 91 88 87 84 82 80 79 75 74 76 76 74 76 73 72 75 80 81 78 75 75 77 81 84 86 87 87 86 88 87 87 89 93 97 100 101 103 104 106
103 103 100 100 100 97 96 93 89 86 84 83 82 81 78 81 81 79 82 83 83 83 83 81 82 84 85 86 86 87 89 89 92 92 92 95 96 101 103 106 108 109 112
104 104 104 104 104 103 102 100 97 95 91 89 87 85 80 80 82 84 86 88 89 89 89 89 90 91 93 91 91 91 93 96 96 97 98 99 100 103 108 111 112 114 116

GFSSE_250_spd_072.txt.gz
Wind_Speed
42 44 43 43 42 40 39 37 35 33 33 32 32 32 31 30 31 31 30 28 27 28 28 24 21 23 23 26 26 26 26 26 26 26 27 29 32 34 34 36 36 38 41
46 42 43 44 43 43 41 40 39 36 35 34 34 34 32 32 31 30 28 27 26 28 28 27 26 25 26 27 28 29 28 29 29 30 30 31 33 36 36 37 38 41 44
50 47 44 44 45 44 44 42 41 40 38 35 33 32 29 29 29 28 28 29 29 29 31 29 29 28 29 29 30 31 31 32 32 33 33 33 35 38 39 40 41 45 47
48 47 46 44 45 45 44 42 42 41 38 35 33 31 30 29 29 29 29 30 31 31 31 29 30 30 31 31 31 33 33 33 34 36 37 37 38 39 41 43 46 48 50
49 46 45 45 45 44 42 43 43 42 41 36 33 30 29 28 29 30 31 30 31 31 32 31 31 31 32 33 34 33 35 35 37 38 40 40 41 41 44 46 49 51 53
51 48 45 45 45 43 41 40 40 41 39 36 33 29 29 28 28 30 30 30 31 31 32 31 31 33 33 34 35 35 36 38 39 42 42 42 43 44 46 49 52 55 54
51 49 46 44 43 42 40 39 38 37 35 33 32 30 29 29 30 31 30 30 31 31 31 31 32 34 36 36 37 37 38 40 41 42 42 43 46 47 49 51 54 56 57
52 49 47 44 42 42 41 39 36 36 33 33 32 32 31 31 32 31 31 31 32 31 32 33 34 36 38 39 39 39 40 41 43 43 45 45 48 50 52 54 55 57 59
55 49 48 46 43 42 41 39 35 34 33 32 34 33 34 34 33 31 32 32 33 33 35 36 38 39 40 41 40 41 42 44 43 45 46 48 50 53 54 56 57 59 60
56 55 49 46 46 45 42 39 37 36 35 34 34 34 33 33 33 32 33 33 35 36 38 38 40 41 41 42 43 43 43 42 46 46 47 50 52 54 56 56 58 60 62
60 56 51 47 47 47 44 41 41 39 37 35 36 36 36 34 34 34 33 34 36 37 38 38 39 40 42 43 42 42 43 45 46 48 49 51 54 57 57 59 60 63 66
62 55 52 50 47 50 48 47 45 43 40 39 39 39 38 37 36 36 36 35 36 37 38 38 40 42 43 43 43 44 46 47 49 51 53 56 57 60 60 61 62 66 68
67 63 60 55 52 53 53 52 49 45 44 43 42 42 41 39 38 37 38 38 38 39 39 40 42 43 44 45 45 46 48 50 53 55 56 59 61 63 64 60 65 69 72
66 68 67 62 58 56 54 53 51 49 47 48 47 45 45 44 41 39 39 40 40 41 43 43 44 45 46 47 48 49 51 53 56 57 60 62 63 65 63 64 68 72 76
71 72 68 62 61 58 56 56 55 53 51 49 49 48 47 45 46 43 42 42 43 45 45 46 47 48 49 49 50 52 54 57 58 59 62 63 64 65 66 67 71 76 78
77 78 73 66 64 64 60 58 57 56 55 54 52 51 51 50 48 47 46 47 46 47 49 50 51 53 53 54 55 56 58 60 62 64 64 65 66 68 68 69 73 78 81
72 75 76 74 71 68 66 64 62 62 60 58 58 57 56 55 54 53 52 50 50 51 52 52 54 56 57 57 58 59 62 64 66 67 67 67 69 70 71 73 77 80 82
83 65 65 66 69 73 74 70 67 67 65 64 63 61 59 59 58 57 56 57 57 57 56 57 58 59 59 59 60 62 66 68 68 68 69 70 70 73 76 78 81 82 84
87 86 80 75 73 74 74 72 71 70 70 68 67 65 64 59 59 59 59 59 62 63 60 60 60 58 60 63 65 67 69 70 71 72 71 71 73 78 80 82 83 85 86
92 89 85 83 79 77 77 75 77 74 70 69 65 61 61 64 66 65 64 62 60 61 63 62 61 64 67 68 68 70 72 72 70 71 74 77 80 82 83 84 85 87 88
92 90 90 84 83 78 80 76 66 63 62 67 70 64 65 64 66 69 69 68 68 67 66 64 66 69 69 69 67 69 66 68 73 76 79 83 84 85 84 85 86 87 89
96 94 91 89 86 83 80 81 78 73 69 72 67 72 71 67 70 70 71 68 69 68 70 72 72 70 70 71 68 68 74 79 79 76 81 86 88 87 87 89 90 94 97
101 99 96 93 89 85 82 80 78 79 79 77 71 73 74 70 72 71 71 71 72 72 73 74 74 76 75 72 74 80 79 81 81 84 85 86 92 93 92 94 99 100 102
105 103 102 100 97 94 86 84 83 81 80 78 76 73 72 75 75 74 74 74 76 73 72 72 73 75 78 78 79 85 88 89 90 87 87 93 96 97 98 101 103 105 107
107 108 107 105 102 99 97 94 94 93 88 88 83 82 83 81 79 79 78 80 79 78 79 82 83 82 84 86 88 90 89 88 91 93 95 97 96 99 102 105 109 109 112
108 108 107 107 106 105 102 100 98 97 97 94 92 91 88 87 87 87 85 82 81 82 83 84 85 87 89 90 91 92 93 94 97 99 98 98 100 103 106 107 111 114 115

GFSSE_250_spd_075.txt.gz
Wind_Speed
43 41 39 38 37 37 37 37 33 32 31 30 29 29 28 29 29 29 29 28 28 28 27 26 27 27 28 26 27 29 28 28 30 31 32 32 33 36 38 38 38 38 40
46 44 40 39 38 39 38 38 37 35 35 34 33 30 32 32 32 29 29 28 30 28 27 27 29 29 29 29 30 29 30 31 32 33 33 34 35 38 40 41 42 41 42
45 46 44 42 38 41 40 38 38 38 37 37 36 34 33 32 29 29 27 26 28 28 29 29 29 30 30 30 33 32 31 33 35 34 35 35 38 39 41 44 44 45 45
46 46 45 46 42 39 40 40 40 39 39 40 39 37 35 31 29 28 27 28 29 29 29 30 29 29 30 32 33 33 33 34 36 36 37 38 40 42 44 44 45 47 49
47 46 47 44 45 44 42 40 41 42 41 41 40 37 35 31 30 27 27 27 29 30 28 30 29 30 30 33 34 34 34 36 36 38 38 39 41 42 45 46 48 50 51
46 45 45 46 44 42 42 41 41 39 39 40 40 38 34 30 30 27 27 29 30 30 29 30 30 31 31 33 34 36 36 37 38 39 40 41 43 45 47 48 50 51 51
48 47 46 47 46 43 42 40 41 39 40 38 37 35 33 32 30 28 29 31 31 32 30 30 31 31 32 34 36 37 38 39 40 40 41 43 43 45 48 50 51 52 53
52 49 47 48 47 46 43 40 42 39 37 36 34 33 32 31 31 31 32 32 32 32 31 31 31 33 34 36 38 39 39 40 41 42 43 43 45 46 49 51 53 55 56
54 50 48 48 47 47 44 41 40 38 36 36 34 32 32 32 32 33 33 33 32 31 33 33 33 35 36 38 39 40 40 41 42 42 43 44 46 47 50 52 55 58 59
51 52 53 51 50 47 44 42 41 39 38 36 34 32 33 33 33 32 32 34 34 33 34 34 36 37 38 39 39 40 41 42 43 44 45 46 48 51 53 55 58 60 62
69 63 59 54 52 48 45 44 44 42 40 38 37 35 35 35 34 32 34 33 33 35 35 34 34 36 38 39 40 41 42 43 44 45 46 48 50 53 56 58 61 61 60
58 66 63 59 57 53 48 46 46 45 43 41 40 39 37 38 38 37 36 35 35 35 36 37 37 37 38 40 42 43 45 46 46 47 49 51 53 56 57 59 61 61 62
50 57 62 60 58 56 54 50 47 47 46 45 43 43 41 41 41 42 40 39 38 36 37 39 39 39 40 43 45 46 47 48 49 50 51 54 56 58 60 61 61 63 64
52 52 61 62 60 59 55 51 50 48 49 49 49 47 45 44 44 44 44 44 44 42 40 39 40 41 43 45 47 49 49 50 51 54 56 57 60 61 62 62 63 64 66
80 56 53 60 62 64 58 56 53 52 52 53 52 50 48 47 47 48 47 47 46 46 45 43 43 43 45 47 49 50 51 52 54 57 58 59 60 61 62 64 67 67 69
84 79 74 58 63 64 64 65 62 57 56 56 55 54 52 51 50 50 51 51 51 51 50 49 50 50 51 51 51 52 54 56 57 59 59 61 63 65 67 68 68 69 74
82 75 76 77 73 72 68 68 64 64 61 58 57 56 56 55 55 55 55 55 55 55 54 56 55 55 56 56 56 55 57 58 59 61 63 66 66 66 68 67 67 75 79
74 75 77 72 72 77 72 70 67 64 65 62 62 60 59 59 59 59 60 61 60 59 60 59 59 59 61 62 61 60 62 62 64 65 67 66 65 68 68 75 78 77 82
89 80 76 73 69 68 67 72 74 73 70 67 67 67 64 63 64 64 63 63 64 64 64 62 62 61 60 61 62 64 63 65 68 68 68 66 69 66 75 79 80 83 85
84 90 86 70 69 72 71 68 71 74 75 71 71 73 72 70 67 66 67 66 66 66 66 66 64 66 67 64 66 67 67 71 71 70 71 74 71 75 79 82 81 84 84
97 91 91 90 87 81 77 77 69 65 70 70 69 70 71 72 71 72 70 67 66 67 65 64 64 68 69 68 69 68 71 74 73 74 75 75 76 81 85 85 84 85 89
101 95 92 91 88 88 90 84 79 73 73 67 65 63 67 67 66 63 66 66 68 70 69 68 69 71 75 72 71 72 74 75 75 73 74 79 82 85 88 87 90 93 94
106 105 102 100 97 91 87 89 89 85 83 75 66 67 64 59 60 69 70 69 70 72 72 70 69 69 71 73 76 76 71 71 74 80 84 84 88 90 90 92 95 94 98
106 108 108 105 101 98 95 87 86 82 85 79 79 81 78 75 76 76 74 73 75 76 75 75 76 78 77 78 79 80 77 78 81 82 87 87 90 91 92 93 96 97 101
104 108 109 109 108 105 100 96 91 80 88 85 87 81 85 86 85 82 81 81 80 81 83 80 80 81 83 84 84 84 86 88 88 86 83 92 91 92 94 97 101 105 107
104 104 106 109 110 109 103 104 98 97 91 92 92 95 91 91 92 90 90 88 86 84 84 84 84 85 85 85 86 86 87 89 90 90 91 94 97 99 99 102 107 112 113

GFSSE_250_spd_078.txt.gz
Wind_Speed
43 41 39 37 35 35 33 34 34 33 34 31 30 27 26 27 27 27 29 28 27 28 28 28 28 27 27 28 29 29 31 31 32 33 34 33 34 35 36 37 38 40 41
44 43 40 38 37 35 35 35 35 34 34 33 32 32 30 30 30 29 30 28 28 27 26 26 27 29 28 29 31 30 32 33 34 34 35 35 35 36 38 39 40 41 43
46 45 44 42 40 38 36 35 37 37 35 35 35 35 34 33 33 33 31 29 28 26 27 27 28 29 29 29 31 31 33 34 35 35 36 36 36 37 39 40 41 43 43
48 45 43 43 42 41 40 38 38 37 38 36 35 36 37 37 35 34 33 29 27 27 26 29 29 28 30 30 31 30 32 34 36 37 37 38 38 39 40 42 43 43 44
49 46 44 43 42 42 43 43 40 38 38 38 38 38 38 38 36 35 33 30 27 26 28 29 29 29 30 30 30 31 32 34 36 37 37 39 40 41 42 43 43 45 47
49 49 46 44 44 43 44 42 42 41 40 39 38 38 37 37 36 34 32 30 27 27 29 30 30 30 29 30 30 31 33 35 37 37 39 40 41 42 43 44 46 47 49
51 46 44 45 45 42 42 42 41 39 38 37 36 38 37 36 34 32 31 30 28 30 31 31 31 31 30 30 31 32 35 37 39 40 40 40 43 44 44 46 47 49 50
54 50 48 48 45 43 43 43 43 42 41 39 38 37 36 34 33 31 30 29 29 31 32 32 32 31 32 31 32 34 35 38 39 40 40 41 43 44 46 48 50 52 54
54 52 50 51 49 47 46 46 45 44 43 41 39 37 35 34 34 32 31 31 31 30 30 32 32 32 32 33 34 36 37 39 40 40 42 43 44 46 47 50 51 54 57
56 54 51 54 53 49 48 48 45 43 43 42 39 37 36 34 33 33 32 33 32 31 31 30 32 33 33 33 34 36 36 37 40 41 44 45 47 48 50 52 54 57 59
46 52 55 57 51 49 49 49 47 46 45 44 41 38 37 36 35 35 35 34 33 32 32 32 32 33 35 36 37 38 39 40 42 43 45 47 48 50 52 54 56 57 57
35 46 43 50 58 54 54 52 50 48 46 46 44 42 40 39 38 37 37 36 37 37 36 34 34 34 35 37 38 40 41 42 43 44 46 49 50 52 54 56 56 57 59
48 44 51 58 57 58 60 57 56 51 49 48 45 45 44 42 41 40 40 40 40 41 40 39 39 38 38 38 39 40 41 43 45 47 48 50 52 55 56 56 58 61 64
44 48 45 48 56 61 61 63 59 56 53 52 50 47 47 47 45 44 44 44 44 43 44 44 42 43 43 43 44 45 46 47 48 49 50 52 54 57 58 58 62 64 66
57 48 43 46 48 53 57 57 59 56 55 56 55 51 48 50 50 50 49 48 48 46 46 46 47 48 48 49 50 50 51 51 53 53 54 55 58 60 61 64 66 70 69
75 63 56 50 50 51 53 55 57 58 58 60 58 53 50 51 52 53 53 53 52 51 51 49 50 52 54 54 54 55 56 58 60 60 60 61 62 62 63 67 69 70 71
77 85 81 71 64 42 43 45 49 55 58 63 63 62 59 55 55 56 57 57 57 56 55 55 55 56 57 58 59 60 60 62 65 63 64 64 65 66 68 70 70 71 74
81 84 79 82 79 64 57 64 68 67 64 64 63 66 64 64 64 60 58 59 59 59 60 59 60 59 59 61 62 65 64 64 64 65 63 67 69 67 72 74 73 74 73
85 87 86 87 87 81 84 85 72 67 73 76 72 69 66 65 64 65 64 63 64 64 63 62 62 61 60 62 61 61 64 64 65 66 66 67 68 70 73 75 74 75 79
78 90 90 94 93 90 87 82 77 82 75 68 75 70 69 67 69 68 68 68 67 66 67 65 66 65 66 63 63 64 65 64 67 68 70 72 69 74 75 74 74 78 83
86 88 95 94 93 97 93 91 84 86 80 78 68 68 68 73 75 76 73 71 69 70 71 69 67 68 69 68 69 66 68 67 68 73 74 72 73 76 80 77 79 83 85
102 92 90 96 98 95 99 97 88 75 80 79 74 71 67 65 66 66 69 74 75 73 72 71 69 67 68 67 68 67 69 74 75 77 78 78 80 84 82 83 86 89 89
107 105 98 95 95 99 92 93 91 86 80 78 74 68 72 74 77 80 76 69 70 69 72 73 70 70 71 73 76 76 76 78 81 82 84 83 84 85 87 87 90 91 92
109 107 106 100 98 97 90 83 80 81 92 91 84 82 83 80 76 78 81 84 84 75 73 72 71 75 75 78 79 78 79 80 82 82 85 86 87 87 87 87 91 91 92
110 111 107 104 102 100 90 93 97 87 78 83 88 86 84 82 85 87 86 86 85 83 83 82 81 79 80 82 85 90 91 87 85 82 80 85 88 88 89 89 91 98 100
106 104 113 114 108 103 104 90 89 96 92 87 92 96 92 88 86 90 91 89 96 96 94 92 92 93 90 91 90 87 87 87 87 88 89 91 95 97 96 98 100 105 108

GFSSE_250_spd_081.txt.gz
Wind_Speed
44 43 42 39 37 35 34 32 33 32 31 30 29 31 31 29 25 24 24 25 26 28 27 27 26 25 26 27 27 28 30 30 30 31 32 33 33 34 33 34 35 36 37
47 44 41 41 39 36 35 34 31 32 31 31 31 31 32 31 30 28 28 27 29 29 28 27 26 25 27 28 29 28 30 30 29 31 33 33 34 34 35 36 37 38 39
49 47 45 43 42 40 37 34 33 31 32 31 33 33 32 33 33 33 33 32 30 30 30 28 26 25 27 29 28 28 29 29 29 30 33 34 34 34 36 37 38 39 40
53 51 48 47 43 43 41 38 37 35 33 35 33 34 34 33 34 35 34 33 32 31 29 28 26 27 28 29 29 28 28 29 29 30 33 35 36 36 37 38 40 41 41
53 52 50 51 48 43 43 43 41 40 37 38 36 34 34 33 33 34 33 33 32 31 28 26 26 28 29 29 29 28 28 28 29 31 34 36 37 37 37 38 39 41 43
55 53 52 51 49 44 43 42 41 39 39 37 38 37 35 33 34 33 32 33 31 29 28 26 29 29 29 29 29 28 28 28 30 32 35 36 37 38 39 40 41 43 45
54 54 54 51 47 46 44 42 41 40 39 39 36 35 35 35 34 35 33 32 30 28 27 28 30 29 29 29 29 29 29 30 32 33 35 36 38 39 40 42 44 46 48
53 52 52 51 51 48 48 45 43 40 39 38 37 37 35 36 36 35 32 30 30 29 29 31 30 28 28 29 29 30 30 31 33 34 35 36 39 41 42 44 46 48 49
55 56 53 54 53 51 48 47 44 42 42 40 40 38 39 39 37 33 31 30 31 30 30 31 31 30 28 29 30 31 31 32 33 35 36 39 41 43 44 45 48 49 50
56 60 55 57 56 54 51 49 49 46 44 44 41 39 38 38 37 33 31 31 32 32 32 31 31 32 32 31 31 31 33 35 36 37 38 40 41 43 45 47 49 51 52
56 61 61 55 53 55 54 51 51 51 49 47 43 39 39 39 37 34 33 33 33 34 34 33 32 33 33 32 33 33 33 34 36 37 38 40 42 44 46 49 51 54 55
48 57 59 55 60 57 54 52 52 55 50 47 45 42 40 41 41 38 36 35 36 36 36 36 36 37 37 37 37 38 38 39 40 42 42 43 45 47 49 53 55 58 59
60 54 45 42 54 57 55 55 52 53 55 52 49 46 44 41 42 42 41 38 38 38 39 40 41 40 41 40 41 42 43 44 46 47 47 49 51 53 54 57 60 61 64
61 49 45 36 38 45 49 52 51 53 54 52 49 50 49 45 45 44 45 44 43 42 42 43 43 44 44 44 44 45 47 48 50 50 52 53 56 59 62 61 62 63 67
64 58 58 52 45 47 44 48 48 52 51 54 56 56 53 51 49 50 49 48 47 48 47 47 48 47 47 48 49 50 52 53 54 53 54 57 60 62 63 62 63 65 68
69 70 68 60 54 51 45 45 50 51 50 50 53 54 54 53 51 52 51 50 49 50 51 52 52 52 53 53 53 55 56 56 57 57 57 59 60 60 60 62 63 67 70
83 75 71 65 66 54 49 49 53 51 47 46 49 53 55 54 52 53 56 56 54 53 52 53 55 56 56 56 57 57 57 58 59 59 61 60 61 62 65 64 68 70 74
87 78 74 70 71 60 57 54 57 50 55 54 53 56 57 58 54 54 58 63 62 60 61 61 60 58 58 60 60 59 59 61 64 63 65 64 65 66 66 65 71 75 78
88 85 82 78 75 72 64 64 65 58 63 60 54 47 51 59 59 58 63 65 65 65 64 64 64 62 63 63 64 65 65 66 66 68 69 68 68 68 70 72 73 79 81
88 90 87 83 82 78 72 69 74 78 81 67 62 61 65 68 68 66 67 67 71 72 72 70 68 67 66 68 68 70 69 70 70 71 72 73 70 71 73 73 78 80 83
83 79 90 81 82 87 85 83 84 84 84 85 87 82 80 79 77 78 74 74 70 71 71 72 73 71 70 67 68 67 66 73 75 74 72 70 71 75 73 77 81 82 85
79 83 79 83 86 85 82 87 85 85 84 72 79 86 82 78 71 78 82 77 74 76 71 68 69 68 72 77 77 72 70 73 72 71 73 75 76 77 77 83 86 85 85
91 87 89 87 87 79 75 83 85 81 77 76 80 79 86 87 86 88 76 75 69 65 71 74 74 73 75 72 70 72 73 74 76 76 78 81 83 84 87 89 87 86 83
95 93 98 89 92 94 91 84 81 85 88 83 85 85 80 81 85 85 87 89 87 82 81 84 88 91 91 90 89 90 83 75 76 76 84 87 90 91 86 84 84 89 95
103 103 98 101 91 90 94 96 94 91 94 93 94 92 82 81 74 83 89 91 88 90 85 88 95 101 97 94 95 91 90 87 87 85 87 93 91 90 88 88 97 106 109
109 109 111 106 105 103 95 98 100 98 91 86 93 93 90 89 91 89 89 89 92 93 95 98 97 96 96 96 95 94 90 89 90 91 92 89 91 94 95 99 110 110 109

GFSSE_250_spd_084.txt.gz
Wind_Speed
43 41 40 39 39 36 33 32 30 28 28 29 27 26 25 26 27 27 25 24 24 24 24 24 26 26 25 24 25 26 26 26 26 24 24 24 26 27 27 28 29 30 32
47 46 45 44 41 39 37 36 32 29 29 29 27 25 26 26 28 27 27 27 28 27 27 26 26 26 25 24 26 26 26 26 24 23 23 24 26 28 29 29 30 31 32
51 47 46 45 44 41 40 38 34 31 30 30 28 27 25 26 28 28 28 28 29 30 30 28 29 27 26 26 27 26 26 25 24 22 23 24 26 28 28 29 31 32 34
52 50 50 48 47 44 41 39 36 35 33 32 30 30 29 29 28 29 30 29 28 28 28 28 27 26 26 28 28 26 26 24 23 22 22 24 27 29 30 31 32 34 36
56 52 51 50 48 46 45 43 40 38 37 36 35 33 32 31 30 28 29 29 27 27 27 26 25 25 26 29 28 27 26 24 24 23 24 26 28 30 31 32 34 35 36
59 55 54 53 51 50 48 45 46 41 38 38 37 35 33 33 32 30 30 30 29 28 27 25 24 24 27 29 28 27 27 25 25 25 26 27 29 31 32 33 35 37 38
63 59 56 55 53 52 50 48 46 44 40 38 36 34 33 33 31 30 30 31 31 29 27 25 25 25 27 28 27 27 27 26 27 27 28 29 30 31 33 34 36 37 39
65 63 58 56 54 52 50 49 46 43 42 40 38 36 33 32 31 32 33 33 32 29 27 26 27 26 27 28 28 28 28 28 28 29 30 31 32 33 33 35 38 40 41
67 64 60 60 56 53 53 52 50 47 44 45 42 39 35 33 34 34 32 32 30 29 27 27 27 28 27 27 28 29 27 28 28 29 30 31 33 36 37 38 41 43 45
65 63 59 57 53 52 51 52 51 50 46 44 44 40 38 37 36 34 31 31 30 29 27 28 29 29 29 28 30 30 29 30 30 31 32 34 37 38 41 43 46 49 50
67 61 62 59 53 55 56 55 53 53 50 49 47 44 41 41 39 35 33 30 30 31 29 31 32 31 31 31 32 32 32 33 34 35 37 39 42 43 45 47 50 53 55
69 67 62 61 59 56 58 59 56 57 55 52 47 47 46 44 40 39 36 32 33 33 33 33 34 34 34 35 37 36 36 37 37 39 41 43 46 47 47 49 52 54 55
65 57 62 60 55 56 59 61 56 55 53 49 47 47 45 43 42 41 39 38 35 37 37 37 36 37 37 38 40 41 40 41 42 43 45 48 49 50 51 52 55 56 55
70 58 55 50 54 57 59 59 60 59 53 51 53 48 49 49 47 47 44 42 42 40 40 40 41 41 42 41 42 44 45 46 47 48 49 51 50 51 53 55 58 60 61
73 69 58 55 57 61 55 50 51 53 56 56 54 53 48 51 48 49 48 48 47 46 45 44 43 43 44 46 47 48 49 50 50 51 51 51 52 54 57 58 62 63 64
77 74 73 63 57 59 50 44 41 44 46 48 47 47 50 47 50 53 51 50 50 49 47 47 47 46 48 49 50 53 53 53 52 53 54 53 56 57 60 62 64 68 67
76 72 78 74 66 66 55 53 42 43 44 46 45 47 48 50 52 51 49 52 52 53 50 49 50 52 57 57 57 58 57 56 56 57 56 59 60 64 65 67 68 70 72
78 71 72 75 68 72 62 65 64 49 51 56 53 48 51 51 47 48 48 51 49 51 52 50 53 55 57 58 60 61 61 61 60 61 61 63 66 67 67 68 73 69 65
83 87 82 78 74 72 65 69 57 60 62 61 62 56 52 47 49 52 52 52 52 52 56 58 61 61 61 63 65 66 66 67 66 64 65 62 65 66 67 69 66 66 68
93 78 82 80 74 68 68 69 69 62 62 67 65 56 54 51 48 56 57 55 60 64 62 66 70 72 69 72 69 70 69 69 66 68 67 68 73 66 70 73 74 72 71
93 80 81 80 85 82 73 83 74 73 66 69 64 63 68 64 59 64 69 79 87 86 84 78 74 74 69 66 70 70 67 67 67 66 64 71 77 84 80 76 76 75 77
95 94 90 88 86 84 85 84 73 62 71 70 71 71 73 74 81 84 80 82 84 89 86 80 84 85 81 76 76 73 77 77 71 71 77 86 89 84 81 79 79 81 86
101 100 97 98 88 80 72 70 70 72 57 64 60 69 68 71 71 74 76 72 75 83 82 83 85 89 90 90 85 81 78 76 85 88 89 93 85 86 83 83 83 86 82
104 104 101 97 90 88 87 83 78 78 67 63 69 72 73 75 71 75 73 71 75 81 84 87 88 87 88 95 93 92 88 89 94 91 93 93 93 92 92 92 90 87 86
105 105 99 99 101 101 96 89 85 87 81 82 80 79 81 83 83 83 79 81 84 81 82 84 85 93 92 90 90 90 89 84 83 85 85 95 96 91 83 84 86 89 97
104 104 106 102 103 96 92 95 96 93 94 81 80 81 78 82 84 83 78 85 89 90 92 90 93 92 94 94 95 93 94 97 94 97 93 85 88 95 95 101 100 101 103

GFSSE_250_spd_087.txt.gz
Wind_Speed
42 43 41 39 37 36 36 33 30 28 26 24 23 23 21 21 20 21 23 24 24 23 24 24 23 24 24 23 22 23 23 24 23 21 19 18 18 19 20 21 21 23 25
46 45 46 44 41 39 36 35 33 31 29 26 25 22 22 21 21 21 22 23 24 25 26 26 26 24 24 24 22 23 24 23 22 19 19 17 17 18 20 20 22 24 27
50 50 48 46 44 41 40 38 36 35 32 29 27 25 23 24 23 23 22 23 24 25 26 25 25 23 22 22 22 24 25 23 22 20 19 17 18 20 22 22 24 25 26
56 53 50 49 47 44 43 41 39 36 34 31 29 28 26 26 26 24 25 24 24 24 25 24 24 23 20 21 22 25 25 23 21 21 20 19 20 21 23 24 25 26 28
59 56 53 51 49 46 44 43 41 39 36 33 33 32 30 30 29 28 26 26 25 25 25 26 25 23 21 21 23 25 25 23 22 22 21 22 23 24 24 25 26 28 29
64 60 58 54 51 48 45 45 43 42 41 39 35 33 33 33 30 29 29 27 26 27 27 27 25 23 22 22 23 24 24 23 23 22 22 23 24 25 24 26 28 30 32
67 65 63 59 54 50 49 47 47 45 43 42 40 38 35 32 32 31 29 27 27 27 28 28 26 23 23 24 25 23 21 23 23 22 22 23 24 24 25 28 31 33 35
70 69 67 63 58 53 52 49 48 47 45 43 40 38 37 35 33 31 29 28 29 28 27 27 26 24 23 24 26 24 22 22 20 21 22 23 24 25 28 31 34 36 37
73 72 70 67 62 58 55 51 50 48 46 44 42 39 38 39 37 34 32 30 31 30 27 26 26 25 23 24 25 25 25 24 23 25 24 26 27 29 32 36 37 37 38
77 77 74 69 67 61 58 55 52 49 48 45 47 45 41 39 38 36 35 33 32 28 27 26 27 27 26 26 26 26 27 27 28 28 29 30 33 35 37 40 42 40 41
71 76 74 73 69 64 59 57 55 50 47 47 46 47 44 44 41 41 40 38 33 31 27 28 28 28 29 30 30 30 31 31 31 32 33 34 36 38 41 44 42 43 46
77 73 73 73 70 68 61 60 55 53 51 50 48 48 47 48 43 42 44 42 36 34 31 30 29 30 32 32 33 34 35 35 35 37 38 39 40 42 44 43 44 46 50
69 72 78 71 68 67 63 62 57 56 56 56 53 52 50 50 44 46 44 40 37 37 37 35 36 35 34 33 35 37 38 39 40 41 42 43 44 44 45 46 48 50 53
66 68 73 69 70 65 67 64 61 57 53 53 52 52 46 48 45 46 45 45 45 42 41 41 41 40 39 38 38 37 36 38 40 42 44 46 48 48 48 49 52 54 57
63 81 78 69 68 67 67 62 63 59 57 58 53 50 52 49 50 50 52 52 49 47 46 45 46 45 43 41 41 42 42 44 46 49 51 53 52 54 54 55 57 59 60
61 66 62 66 64 64 64 62 61 60 57 56 51 54 58 57 55 53 50 48 49 50 51 51 51 49 48 45 44 43 46 48 50 52 53 53 55 56 57 60 61 57 60
76 84 62 66 70 62 63 59 62 59 56 50 46 45 48 51 50 48 48 53 52 50 50 49 48 51 50 48 47 46 49 48 52 54 56 56 59 60 59 59 59 60 62
93 82 75 73 76 74 67 60 58 58 50 48 47 44 46 47 47 45 46 48 53 50 48 50 50 53 52 48 50 50 55 60 62 60 61 62 62 62 60 63 60 60 64
88 93 79 75 80 76 70 67 61 59 60 52 56 51 50 51 49 46 49 50 52 50 51 54 54 55 54 58 61 71 72 66 68 64 61 60 64 63 65 63 59 66 73
83 92 83 82 84 78 80 70 71 72 69 66 67 67 67 59 57 58 55 57 59 60 53 55 58 62 64 74 75 78 78 76 71 68 66 67 68 63 68 64 70 81 80
84 80 84 90 83 81 74 72 75 76 77 69 68 73 66 62 61 56 55 58 62 65 65 66 67 69 75 77 82 82 81 81 79 75 70 71 68 74 75 75 79 82 82
103 86 95 93 88 84 76 73 73 76 77 80 74 73 67 64 60 63 62 62 69 72 76 80 79 81 85 86 92 92 86 81 73 76 75 77 76 76 77 79 80 85 89
82 91 96 95 88 87 79 74 71 74 79 80 73 68 59 61 58 63 70 74 75 76 81 87 89 89 91 94 94 92 87 82 78 85 84 81 81 76 76 78 81 85 92
93 93 86 83 87 82 82 86 77 68 70 74 80 72 75 80 70 61 64 59 64 61 68 66 68 81 79 84 92 90 92 86 87 88 92 89 87 89 88 88 91 92 96
100 100 100 93 93 86 88 92 85 81 79 73 73 77 72 66 67 65 74 63 64 64 67 71 77 77 80 72 83 94 93 90 91 92 91 95 92 95 98 97 103 101 110
107 108 107 99 105 102 95 96 87 85 92 83 75 70 71 72 69 65 74 75 74 76 72 76 80 78 88 92 93 91 98 98 100 88 97 99 98 102 102 103 104 109 108

GFSSE_250_spd_090.txt.gz
Wind_Speed
44 41 39 39 39 37 35 33 33 33 28 26 23 21 20 17 15 16 18 19 20 21 23 24 24 25 25 24 22 21 21 22 23 21 20 19 18 16 15 17 17 19 20
47 44 43 41 41 40 38 36 34 33 30 27 24 21 20 17 16 17 18 19 21 21 21 23 24 24 24 24 22 20 21 23 23 21 20 19 18 17 17 17 19 19 20
51 48 46 44 42 42 41 39 37 35 33 29 28 26 23 20 20 20 21 22 22 23 23 22 23 23 23 23 22 21 22 23 23 20 20 20 19 20 19 20 19 20 22
56 52 49 47 45 43 43 42 40 38 35 33 30 28 25 23 23 23 24 24 26 25 24 22 22 23 23 22 21 20 22 24 22 20 19 19 20 21 20 20 20 21 24
60 57 54 52 49 46 45 44 42 41 38 35 32 30 26 26 27 26 28 29 27 26 25 25 24 25 24 22 20 21 23 24 22 20 20 19 20 21 20 20 20 23 25
62 59 58 54 51 51 48 45 44 42 40 37 35 34 31 30 28 29 30 28 28 29 25 25 26 27 26 23 20 21 23 23 20 20 17 16 17 17 17 18 20 25 28
68 63 61 59 56 54 52 49 46 45 43 40 38 36 37 34 35 31 30 30 29 28 27 27 28 27 25 25 23 21 21 22 21 19 18 18 19 19 19 22 26 30 31
73 73 69 66 61 58 56 54 51 49 45 42 41 39 37 36 35 35 32 30 30 28 28 28 28 26 25 25 24 22 22 22 23 22 23 24 23 23 25 28 30 32 37
78 76 74 71 64 62 60 58 56 52 49 45 43 41 38 37 36 33 34 35 33 31 30 29 27 27 25 25 24 24 24 24 25 25 25 25 26 28 31 32 33 37 38
67 74 75 78 72 65 64 61 60 57 52 49 46 43 42 40 41 39 38 36 35 34 34 30 27 28 27 26 27 27 27 28 28 29 28 30 31 33 35 36 36 37 39
53 63 66 73 72 70 64 62 62 61 57 54 49 45 45 45 42 42 41 39 37 39 38 36 31 29 30 30 28 29 30 31 32 33 33 33 34 35 36 38 39 42 43
58 67 59 66 73 73 74 66 66 63 60 57 54 51 49 48 46 45 44 44 42 39 37 40 35 32 32 31 33 33 34 33 34 36 36 36 36 37 38 41 45 46 47
54 51 58 61 65 75 78 73 69 66 64 62 58 56 53 50 50 49 48 44 43 38 43 39 37 37 37 36 34 36 37 38 37 35 35 38 40 43 45 47 48 49 50
54 54 60 70 65 70 74 71 69 69 68 64 59 58 55 55 52 54 51 46 44 48 44 44 44 43 43 41 40 40 41 39 40 40 41 42 45 46 48 51 52 54 55
70 57 61 59 63 71 76 69 69 67 65 64 63 62 63 57 54 53 50 47 48 50 47 48 47 42 45 48 48 47 45 44 43 45 44 44 48 47 51 54 58 58 58
78 78 66 67 62 61 68 68 65 64 60 63 60 58 63 59 56 56 53 54 55 51 49 47 45 47 49 50 50 51 48 47 47 46 46 44 46 52 59 60 57 58 56
71 78 73 67 58 58 68 69 71 68 62 58 62 61 58 59 59 60 59 60 59 58 54 46 46 47 48 50 51 49 50 49 47 47 47 45 57 60 63 59 58 57 60
73 62 69 62 66 64 62 63 69 67 66 64 68 65 64 65 62 58 54 51 51 49 45 43 44 48 51 49 50 52 56 56 56 55 54 56 61 66 60 64 63 61 60
71 70 72 63 64 59 53 60 63 60 58 61 59 58 61 61 57 52 51 48 45 47 49 51 49 48 53 53 53 56 59 60 63 62 64 65 69 74 64 65 65 65 69
81 75 79 63 60 54 61 61 61 60 60 60 58 57 60 59 51 54 54 56 55 58 59 59 56 57 58 57 62 58 60 68 68 67 68 72 75 82 79 77 69 72 76
73 69 78 71 71 64 71 66 61 64 64 66 66 65 63 63 63 61 65 66 68 71 71 67 59 57 60 63 65 69 69 74 73 72 73 78 82 83 79 78 73 82 83
94 92 84 81 70 84 82 76 66 72 68 68 59 61 66 69 70 70 70 73 74 75 75 72 65 64 66 68 72 71 76 84 87 89 82 83 80 77 80 79 85 82 81
95 91 94 92 60 74 85 87 80 78 77 74 73 74 73 73 74 74 77 75 75 72 72 67 70 68 72 76 83 87 88 89 84 89 92 85 86 79 86 84 82 86 88
81 90 80 83 87 84 73 66 73 76 84 88 85 81 78 80 77 78 77 76 75 69 66 68 73 80 86 89 84 82 81 90 93 95 87 87 85 87 90 87 86 89 91
85 87 69 72 79 78 83 71 76 69 70 77 84 82 86 85 81 78 80 79 75 72 77 75 77 80 80 74 79 80 73 80 86 80 79 90 91 95 91 90 87 93 91
96 100 89 75 74 81 81 80 73 81 87 81 83 90 87 74 80 89 87 87 86 83 83 78 80 83 85 78 72 73 86 83 86 93 87 87 92 95 97 97 100 96 94

GFSSE_250_spd_093.txt.gz
Wind_Speed
47 44 39 37 36 34 33 34 32 31 31 31 30 24 20 18 15 14 13 14 16 17 19 20 21 21 23 22 23 22 22 22 22 24 23 20 19 18 16 16 17 17 16
49 49 45 41 40 38 36 37 36 33 31 29 28 25 21 19 17 14 14 16 17 19 20 20 21 21 22 22 22 21 22 21 23 24 23 19 18 17 18 17 17 15 16
51 52 48 47 42 41 39 38 38 36 33 32 29 27 23 22 20 19 18 18 20 20 22 24 22 21 21 21 22 22 21 22 23 24 22 20 18 17 17 17 17 15 16
55 54 53 52 47 43 43 39 38 39 38 34 32 30 26 25 23 21 21 21 22 24 26 24 24 23 24 25 24 23 20 21 23 23 23 20 19 18 18 18 17 16 18
60 58 54 54 51 47 46 44 40 39 40 39 34 31 30 27 24 23 23 24 26 28 25 25 26 23 23 26 25 24 21 20 21 21 20 19 17 17 18 17 15 17 22
67 64 60 56 56 52 50 47 43 40 40 40 38 34 32 30 27 25 26 25 27 27 26 26 24 24 26 25 25 23 23 22 21 21 21 20 19 18 19 18 20 23 27
73 66 64 62 59 56 54 51 48 45 42 41 41 38 35 32 31 32 30 30 31 30 28 27 25 25 27 26 25 25 24 23 22 22 21 22 22 22 22 22 24 27 29
75 71 66 66 63 60 60 55 51 48 47 44 42 40 40 36 35 34 31 30 31 31 30 28 27 26 27 27 25 25 25 24 23 24 24 25 25 24 25 26 28 30 33
76 76 72 71 68 64 60 59 56 52 50 48 45 43 42 38 36 34 33 31 31 30 30 32 30 28 28 28 27 26 26 27 27 27 28 29 29 29 29 30 31 32 33
70 73 76 75 70 68 63 61 59 56 55 52 50 49 46 43 40 37 36 35 34 36 36 34 33 33 31 31 30 29 28 28 28 30 32 32 32 32 32 33 34 35 38
69 68 62 74 74 73 70 69 67 63 59 58 55 53 51 48 44 40 39 40 39 38 37 36 35 35 35 33 33 30 30 29 30 32 33 35 36 36 35 35 36 38 42
73 69 67 57 71 76 73 73 71 69 65 62 62 57 55 52 49 47 44 43 41 43 41 40 40 37 38 34 33 34 32 33 32 34 35 36 37 37 37 38 41 42 46
64 69 66 63 57 67 68 70 71 74 73 65 63 59 58 57 52 51 50 47 47 45 46 43 42 42 42 39 37 37 38 39 40 39 40 39 39 40 42 41 40 38 47
73 61 62 68 53 58 59 61 69 70 69 71 67 63 62 60 58 56 55 53 48 48 49 47 47 49 47 45 42 44 47 45 45 46 47 44 42 42 45 42 39 45 52
76 63 66 64 67 57 59 65 68 71 71 69 70 71 62 61 61 58 59 57 53 53 52 48 50 52 49 48 47 43 43 46 48 49 51 50 47 45 46 45 44 47 56
83 69 62 68 69 66 58 62 68 75 66 69 72 72 66 62 63 60 62 59 58 59 56 55 57 56 52 48 49 44 47 45 47 46 47 48 49 50 50 51 49 53 63
78 71 65 64 67 69 63 61 63 67 72 69 68 63 58 59 60 61 60 59 59 53 55 57 60 61 57 55 50 46 44 45 46 47 47 51 51 53 56 53 58 64 68
80 79 75 74 77 69 64 57 56 60 65 66 67 63 58 58 55 55 57 56 56 60 60 60 58 56 53 53 49 49 49 45 45 49 53 54 58 55 58 62 62 65 69
81 77 69 73 73 66 61 56 53 58 61 64 65 63 59 58 56 61 63 64 63 60 63 56 47 45 48 47 49 50 53 53 53 54 55 58 59 64 62 64 68 70 72
84 75 85 71 70 71 72 57 53 55 55 58 65 65 67 65 66 65 66 62 61 57 54 52 51 53 54 54 57 63 60 57 61 60 59 66 68 71 67 71 77 81 75
92 92 91 92 88 78 76 58 57 58 55 58 58 59 64 68 64 61 60 58 58 56 56 58 57 57 60 65 71 73 73 67 68 69 72 70 72 76 81 79 77 80 85
84 92 90 87 76 75 77 67 61 58 60 55 55 57 55 62 63 62 62 60 58 60 61 61 63 66 72 75 78 78 77 75 74 75 76 84 88 89 86 85 84 85 73
80 78 79 78 70 65 68 69 63 56 61 58 61 61 66 62 65 66 65 59 63 64 64 67 70 73 76 78 82 81 82 82 78 85 83 93 94 89 87 85 79 84 80
84 79 74 75 67 66 66 68 69 65 66 63 58 60 66 68 67 66 61 63 66 65 73 75 78 78 81 80 84 81 80 84 78 90 93 91 94 90 76 81 78 83 83
85 84 80 78 71 69 69 71 71 74 77 77 78 78 76 72 75 75 77 74 77 79 78 79 78 80 84 84 84 85 82 90 92 90 87 88 86 80 79 86 87 90 88
84 89 76 82 70 72 74 75 74 65 66 75 76 82 88 87 86 89 89 81 83 83 84 80 81 81 82 85 87 90 88 88 90 86 85 89 87 84 85 94 89 97 97

GFSSE_250_spd_096.txt.gz
Wind_Speed
48 41 39 39 36 34 31 29 29 29 28 27 27 26 26 22 19 15 13 13 12 12 13 15 16 17 17 18 20 20 20 20 20 21 22 22 21 17 16 15 14 14 13
54 48 43 41 42 38 35 33 32 32 31 30 27 24 25 23 19 16 14 13 14 14 15 17 18 20 18 18 19 21 22 21 20 21 22 22 20 18 16 16 16 14 13
58 54 48 43 46 43 40 37 35 33 33 32 30 28 25 24 21 18 16 17 16 17 19 19 21 21 21 21 21 22 22 22 21 20 21 22 21 19 18 18 18 16 13
61 60 54 50 48 48 44 41 38 36 33 34 32 30 28 26 23 20 19 18 18 19 20 22 23 22 23 23 23 23 23 22 22 20 21 20 21 20 19 18 18 16 16
69 62 60 56 52 51 49 47 42 40 37 35 35 33 31 28 26 23 21 19 19 21 24 23 22 24 24 23 24 24 24 22 22 22 21 21 21 20 19 18 16 16 19
74 66 65 60 57 55 54 52 47 43 41 36 34 33 33 32 28 26 24 23 22 24 26 25 23 24 23 23 24 25 24 22 23 23 22 21 21 21 21 21 21 22 23
76 74 66 66 61 58 54 53 51 47 44 40 36 33 33 33 31 30 27 27 27 26 26 28 28 25 23 24 25 24 25 23 22 22 22 22 23 24 24 23 24 26 27
73 79 77 71 65 61 58 54 53 51 48 45 41 37 35 36 32 31 31 30 28 27 27 28 28 27 26 25 26 26 25 25 24 23 24 25 26 27 27 27 28 29 30
65 73 72 71 68 65 63 60 56 54 52 50 45 41 38 40 36 33 31 30 29 29 28 29 30 29 28 28 30 29 29 27 27 25 25 26 27 29 30 31 32 33 32
52 67 70 66 71 71 68 65 64 57 57 53 50 45 44 44 41 38 36 34 32 31 33 32 34 34 34 31 31 33 31 31 29 28 26 28 30 32 32 32 34 33 35
53 56 67 66 60 69 73 70 65 62 58 57 55 51 47 48 46 44 43 40 37 34 35 36 38 37 36 34 32 34 34 32 31 31 30 32 33 33 34 35 35 36 38
48 58 57 58 58 62 70 72 67 64 63 61 58 56 53 51 51 51 49 46 44 40 40 39 39 40 41 40 38 38 39 36 35 35 36 38 38 38 36 36 39 40 42
59 53 48 52 58 63 65 68 72 70 68 64 61 57 58 58 55 54 54 52 50 48 47 44 42 40 44 45 41 43 43 42 40 40 42 43 41 43 42 42 44 43 43
41 49 53 73 77 74 73 59 64 68 70 67 68 67 63 65 64 59 60 56 54 51 50 51 47 43 47 46 45 45 46 46 45 45 41 41 43 43 43 44 43 45 46
55 52 61 62 70 69 59 59 62 65 68 69 71 68 69 66 65 62 60 58 56 56 56 55 54 51 51 52 52 51 49 48 45 45 43 42 41 42 40 40 43 45 45
52 54 67 75 76 48 60 64 66 57 62 67 64 64 67 67 64 62 64 64 60 58 58 54 54 54 54 54 52 51 52 52 50 49 46 41 41 42 40 42 45 46 48
54 59 69 68 64 76 58 56 61 56 55 60 60 61 63 64 65 66 67 65 62 63 64 60 59 58 53 53 53 53 54 56 55 53 49 47 41 39 43 49 48 48 53
54 66 75 81 80 71 60 71 68 67 62 57 57 58 61 64 65 63 60 58 61 60 58 61 58 56 57 57 57 56 53 52 50 45 45 45 49 52 52 49 54 52 57
58 70 77 81 80 54 59 64 71 69 64 61 56 57 59 59 61 64 65 56 57 57 60 57 54 57 57 61 59 54 52 51 49 47 49 52 58 58 58 61 61 71 67
62 73 78 69 71 57 65 83 79 68 65 57 61 64 61 59 57 59 58 56 56 60 56 56 61 63 61 60 53 53 54 56 53 55 57 59 64 68 70 71 71 74 79
67 82 88 84 80 77 70 79 75 64 62 62 54 54 55 57 57 57 58 65 68 60 64 62 63 59 59 55 54 58 60 57 56 60 66 70 73 74 73 76 80 78 79
72 87 90 92 85 75 73 69 66 68 59 59 55 49 54 55 54 57 61 62 67 66 64 63 63 61 56 54 57 60 61 63 63 69 70 73 76 77 80 83 82 82 87
74 77 86 95 93 85 80 75 70 68 63 63 56 55 58 55 54 59 59 60 55 59 64 65 64 57 56 59 61 66 69 71 69 73 76 78 77 81 79 83 85 89 92
78 78 84 82 76 86 84 67 75 81 68 58 63 63 57 60 62 60 61 61 64 67 65 65 61 63 64 67 67 74 75 79 76 76 78 81 86 85 82 89 92 93 86
77 79 88 86 83 84 83 76 75 77 72 63 70 68 63 65 67 70 66 64 67 73 75 74 70 67 69 73 73 75 81 80 83 85 88 84 84 87 91 93 91 88 86
86 90 88 86 80 87 85 78 74 78 78 80 82 79 78 72 68 64 67 71 77 78 72 70 73 74 73 77 80 85 84 87 93 87 85 89 91 89 92 94 92 93 93

GFSSE_250_spd_099.txt.gz
Wind_Speed
48 42 39 39 37 33 31 30 29 27 24 23 20 21 22 22 21 18 13 11 12 13 13 14 15 15 15 15 16 16 17 18 20 20 19 19 21 20 19 18 16 16 15
59 49 45 40 39 37 35 33 32 31 28 26 24 23 21 21 21 18 15 11 13 15 15 15 15 17 19 17 18 19 19 20 20 20 20 19 20 20 18 18 17 16 15
59 57 53 48 43 42 40 37 34 33 31 29 28 26 24 22 20 19 17 14 16 17 17 18 18 19 20 20 20 21 21 21 20 19 20 19 19 19 18 18 16 15 13
64 65 59 55 49 47 45 43 39 37 34 32 30 29 27 25 23 21 19 17 19 19 19 20 20 22 21 22 21 21 21 21 21 18 19 19 19 20 18 18 17 17 15
64 71 63 62 56 52 49 47 44 41 38 35 33 30 30 29 27 24 23 22 20 20 21 23 22 22 24 24 23 21 22 21 21 20 19 21 21 20 20 19 19 18 18
71 73 70 63 60 55 54 50 49 47 43 38 36 34 31 31 30 28 26 25 21 21 23 25 26 25 26 26 26 23 23 23 22 22 20 19 20 22 22 22 22 22 22
66 72 76 68 64 61 58 55 52 51 48 44 39 35 32 31 29 29 29 28 26 25 25 26 27 27 26 26 25 26 25 25 25 25 24 22 22 22 24 25 26 26 26
60 66 73 75 70 67 62 59 56 53 53 50 45 38 35 34 31 29 29 29 29 28 27 27 26 29 27 25 26 27 28 29 28 28 27 25 26 26 25 26 27 28 28
52 66 70 74 72 69 66 62 59 56 54 53 51 44 39 39 38 34 31 31 31 29 28 28 26 28 29 28 29 30 30 30 31 29 29 30 28 27 27 29 29 30 32
48 52 69 73 72 75 72 66 65 60 59 53 50 48 45 43 43 39 37 35 34 32 31 31 30 31 32 33 33 33 31 31 30 32 31 30 30 30 31 32 32 32 34
41 40 59 68 69 65 75 76 72 67 63 59 54 50 49 47 47 43 41 41 40 37 36 35 34 33 34 34 35 35 34 36 37 37 34 34 34 35 35 39 38 36 39
45 37 47 58 64 68 68 72 74 73 69 64 61 55 52 53 52 50 47 46 44 42 42 41 41 39 40 39 38 39 38 37 37 40 38 37 38 39 41 41 38 39 39
65 61 56 59 60 58 63 71 69 66 71 67 65 61 57 54 54 55 54 51 48 47 47 46 46 47 47 43 44 41 43 42 41 43 42 40 41 42 41 39 39 38 39
66 60 56 57 58 60 58 60 67 66 63 73 69 62 58 59 60 59 57 56 54 53 51 51 53 51 48 47 48 48 44 47 46 43 43 43 43 43 42 42 37 36 34
68 71 71 50 48 58 59 55 64 67 61 57 61 66 62 61 63 61 58 57 58 57 57 57 55 55 54 53 53 51 54 50 50 47 46 47 48 47 46 43 39 38 32
77 74 65 61 57 53 54 51 56 66 63 58 55 58 63 64 67 64 63 62 62 60 59 58 57 58 59 62 61 62 56 53 54 52 52 52 52 49 49 46 42 39 40
80 77 68 70 56 49 57 61 65 59 60 57 59 56 57 63 65 65 64 63 63 63 63 63 61 59 60 54 57 56 55 56 52 52 54 53 50 47 48 45 44 43 45
81 82 79 59 62 57 60 63 72 60 55 50 52 52 54 57 61 62 63 62 62 60 61 61 58 57 58 54 62 59 59 56 52 54 55 52 52 54 48 49 47 49 55
83 81 79 74 66 59 65 64 70 62 53 56 56 61 59 55 51 53 58 63 61 63 63 63 61 60 59 61 62 61 57 54 57 58 52 52 55 52 52 52 52 56 58
84 85 84 65 59 61 70 63 76 68 58 50 51 54 56 59 52 55 55 57 56 58 61 60 59 62 56 63 59 56 54 58 63 58 50 54 56 56 54 55 59 61 63
87 79 64 59 49 60 66 72 75 68 66 54 63 65 70 61 58 60 59 58 60 62 60 59 60 63 64 63 62 61 61 63 64 60 52 54 57 56 57 61 64 65 68
84 75 62 56 49 64 70 66 78 76 67 69 73 68 68 64 54 54 55 59 58 56 57 60 60 61 60 62 64 65 64 65 69 59 58 56 58 58 65 68 69 72 75
76 68 65 55 54 70 72 72 75 69 72 74 77 70 65 66 64 57 59 54 61 59 60 62 56 62 57 59 64 66 64 59 59 59 62 63 63 67 67 72 75 79 82
73 67 63 59 59 70 77 77 71 71 73 80 83 83 77 69 62 62 60 61 53 57 57 58 65 63 66 70 65 75 72 68 69 69 67 73 70 69 72 77 81 84 85
68 65 62 56 60 67 73 87 74 72 76 83 75 75 68 65 66 70 68 61 64 62 68 70 70 72 73 68 75 79 72 72 75 75 73 74 76 76 81 82 86 85 81
68 62 58 56 65 71 71 75 76 76 73 73 70 68 65 72 73 73 75 73 73 73 75 76 83 74 71 71 76 77 76 75 76 74 75 77 79 84 87 86 87 84 88

GFSSE_250_spd_102.txt.gz
Wind_Speed
49 44 43 40 38 36 35 33 30 29 26 26 23 21 22 20 18 16 14 12 13 15 15 13 13 14 15 17 17 19 19 20 19 20 20 19 19 19 19 18 17 15 14
57 54 49 45 41 40 38 36 34 30 29 28 27 24 21 19 18 18 16 14 15 16 16 16 15 16 18 19 20 21 22 22 21 21 20 20 20 19 19 18 17 15 14
62 60 53 51 48 44 42 40 38 35 32 31 29 27 25 22 20 16 15 16 16 17 18 18 18 18 19 21 21 22 23 24 23 21 21 20 21 21 20 18 18 18 17
65 65 61 56 54 49 45 43 42 40 36 32 31 29 27 25 24 21 17 17 17 17 18 19 19 20 21 20 21 23 24 22 23 22 21 22 21 21 21 20 18 18 18
66 68 64 60 57 56 52 46 44 43 41 37 34 32 29 28 27 25 22 20 19 18 19 20 20 22 23 23 24 25 24 23 22 22 21 23 23 21 22 22 21 22 22
71 68 67 64 61 59 58 55 52 47 46 43 39 36 33 31 28 27 27 25 24 23 22 22 23 24 25 25 24 24 24 24 25 25 25 25 25 24 22 24 25 25 24
66 70 70 69 66 63 62 59 57 52 49 48 44 40 36 34 33 28 29 30 29 28 26 25 24 25 26 26 25 22 23 24 27 28 27 27 26 27 27 27 26 26 27
55 62 67 71 74 70 66 65 63 58 55 50 49 45 41 39 36 34 31 29 31 30 29 28 27 25 26 27 26 23 24 24 26 29 30 28 27 29 28 28 29 30 31
47 57 63 67 69 73 71 67 65 63 60 57 52 50 46 46 43 37 35 33 31 30 29 28 29 29 27 28 28 28 28 29 27 28 29 30 29 29 29 32 31 32 34
41 41 51 61 67 69 67 68 71 68 65 60 57 54 51 52 49 43 40 39 37 34 31 29 29 29 29 30 29 29 31 31 31 29 32 34 35 32 32 33 35 35 37
36 40 46 53 58 65 66 67 69 72 71 66 62 58 53 53 53 52 46 44 42 39 37 34 32 31 32 33 34 33 34 35 35 31 32 34 37 36 35 37 38 39 41
54 47 38 55 53 60 66 72 71 70 71 70 66 62 58 56 54 53 52 49 47 45 41 38 37 37 36 37 37 39 42 41 39 40 38 36 36 37 39 40 39 38 39
56 54 47 51 53 52 60 64 71 70 70 73 71 66 65 60 56 54 55 54 51 50 48 46 42 41 41 41 43 44 45 44 40 47 44 39 42 41 42 40 41 40 41
60 60 59 62 51 50 54 58 63 69 67 71 73 74 68 64 62 61 57 58 54 53 52 51 49 48 47 45 48 49 47 47 48 44 48 53 45 46 47 46 47 47 43
66 63 62 64 56 46 51 59 64 65 69 68 66 68 73 72 69 67 64 61 59 56 55 54 54 53 53 53 53 52 53 52 49 54 54 49 44 48 47 46 46 45 46
70 69 67 70 66 70 60 61 68 63 62 64 64 64 68 66 71 71 66 65 64 63 59 57 56 55 56 57 58 58 55 55 54 53 54 57 52 51 48 47 47 46 46
72 73 73 73 74 69 56 58 68 65 65 59 57 64 64 63 66 71 70 66 64 61 60 61 59 58 60 62 64 63 57 57 57 54 53 51 51 52 48 50 50 48 51
76 75 76 77 75 74 71 63 70 66 57 58 65 62 65 63 66 63 62 62 63 64 63 63 60 60 60 63 64 60 57 56 55 59 56 54 53 51 48 54 50 52 49
77 76 77 78 78 76 77 76 67 66 60 62 68 62 63 62 58 54 56 61 56 57 60 61 63 67 67 67 59 64 65 61 55 60 55 54 50 50 51 53 52 52 52
79 79 80 80 78 80 79 76 60 54 48 56 59 58 55 61 59 52 53 53 55 56 60 60 58 59 62 64 64 66 66 70 64 59 57 56 53 55 57 57 54 52 51
77 78 82 83 80 82 82 77 68 60 62 62 67 63 65 63 57 55 52 53 50 51 51 51 54 58 59 59 61 58 58 58 62 65 63 62 62 61 61 61 57 51 52
78 79 80 81 79 82 82 80 71 66 59 68 71 71 69 67 64 62 56 57 52 54 55 61 61 60 60 60 61 62 62 64 66 68 66 68 68 64 65 68 64 58 57
73 76 80 81 81 79 83 78 75 65 60 64 63 56 61 60 61 53 54 58 59 59 56 55 57 56 59 57 63 63 60 58 64 67 67 69 68 68 67 70 67 62 66
74 80 82 82 80 83 80 75 68 60 63 72 73 66 70 63 63 65 57 62 65 64 57 58 57 59 65 61 62 67 67 65 64 66 68 68 71 70 69 66 66 64 67
76 78 77 74 76 78 72 68 58 56 64 74 74 71 68 67 71 66 63 69 65 68 64 61 59 65 64 63 61 65 71 71 71 72 73 72 69 71 70 68 69 70 76
73 74 71 70 69 65 57 54 52 56 66 74 75 74 65 64 69 73 70 75 72 75 74 70 72 66 66 72 68 66 76 73 79 79 74 71 72 73 72 75 78 81 83

GFSSE_250_spd_105.txt.gz
Wind_Speed
49 45 44 44 40 38 38 36 33 31 28 28 26 25 23 25 23 19 18 15 14 14 14 14 14 13 13 14 16 17 18 20 22 22 21 21 21 20 20 20 19 18 15
53 52 49 47 45 42 41 39 36 35 32 29 28 27 25 23 22 21 19 18 17 17 16 16 16 16 16 16 17 18 18 20 20 20 21 21 22 22 21 21 20 18 17
56 57 54 49 48 45 43 41 39 36 35 33 31 29 28 26 23 21 19 17 19 19 18 18 18 18 18 18 19 18 20 21 20 20 20 19 21 23 23 21 21 21 20
61 62 61 58 54 50 46 42 40 39 36 36 35 32 31 29 27 24 20 19 18 20 20 19 20 19 19 20 20 22 21 21 20 20 20 21 21 21 22 23 23 22 23
64 65 63 63 59 57 53 50 46 43 41 38 38 36 34 32 30 28 26 24 22 21 22 21 21 22 21 21 23 23 24 22 21 20 22 23 24 24 23 23 25 26 26
68 67 67 64 61 60 59 55 53 49 46 44 41 40 39 37 33 30 30 29 27 25 25 25 24 23 23 23 23 23 22 22 21 22 23 25 25 26 24 26 25 25 25
61 63 68 67 64 59 60 62 58 54 52 48 45 43 42 41 38 33 32 32 31 30 28 27 26 26 25 26 26 25 21 20 20 21 25 25 25 25 25 25 25 25 27
47 55 62 70 69 67 62 60 63 62 58 56 53 50 46 46 43 38 36 35 34 32 33 31 29 29 28 27 27 28 25 23 23 23 22 24 26 29 30 29 27 28 30
35 40 48 57 68 70 70 67 64 64 65 61 59 56 52 49 49 45 41 37 36 35 33 33 32 31 30 28 27 28 27 26 26 24 25 25 26 28 30 30 30 31 33
39 42 41 48 52 58 65 67 67 67 66 65 64 61 58 54 53 52 48 43 40 39 36 34 32 30 30 29 27 27 28 27 28 30 32 29 29 32 31 31 32 34 35
35 40 38 39 46 51 57 64 68 70 72 71 68 66 63 59 59 56 54 52 49 45 42 40 37 35 33 32 30 30 29 30 32 34 35 35 35 34 34 34 36 37 37
46 40 39 39 38 45 49 56 63 67 69 72 74 69 67 64 63 62 57 56 54 52 47 44 42 40 38 37 36 37 34 36 38 37 40 37 36 37 41 39 38 38 39
53 50 46 44 45 45 46 51 56 60 64 68 69 71 72 69 69 67 61 60 58 55 53 52 47 46 44 42 41 39 39 40 41 43 43 40 42 41 45 42 39 41 40
61 56 55 55 49 45 48 48 54 55 57 61 64 68 71 73 74 73 67 63 60 59 54 53 52 50 49 49 49 47 47 47 47 48 44 42 45 50 50 45 44 45 42
64 62 61 57 63 56 51 53 57 56 60 62 65 68 71 72 74 74 71 68 65 63 61 56 54 53 52 53 51 51 52 52 51 53 52 49 48 53 51 47 44 44 45
69 66 66 65 65 62 57 54 64 54 54 61 60 58 63 68 68 74 73 73 70 66 66 64 62 58 57 57 54 55 54 53 56 58 58 56 53 57 57 51 46 44 47
74 71 67 68 69 66 65 65 58 57 56 60 58 62 60 63 65 68 74 78 78 75 71 68 66 62 60 61 60 59 58 59 59 57 55 56 61 59 58 55 48 47 47
74 75 73 70 69 67 66 64 64 54 63 62 60 58 58 57 62 65 66 67 77 76 77 75 69 65 65 65 61 62 61 62 64 66 66 57 58 63 64 63 51 47 50
77 75 75 74 73 72 69 67 65 63 67 67 54 49 57 56 54 59 64 69 63 67 71 69 69 67 67 68 68 63 60 63 67 66 64 67 67 64 57 60 50 53 55
81 76 74 76 76 74 73 73 73 72 70 67 58 64 59 61 62 60 66 64 63 68 64 59 63 60 55 58 60 59 63 62 60 61 58 58 53 55 55 57 56 56 61
81 75 78 74 78 78 76 74 76 75 73 65 66 66 54 55 61 65 74 73 66 63 68 57 56 56 58 59 57 55 54 55 59 59 63 62 61 61 54 59 54 54 54
73 73 80 79 76 77 78 79 77 76 76 73 71 70 66 48 56 61 63 73 69 64 62 59 56 54 55 53 54 58 57 57 56 57 56 57 60 62 55 50 53 56 59
70 71 74 78 77 76 76 77 78 78 77 79 74 73 70 66 61 60 68 70 63 69 65 63 56 51 50 56 58 60 61 55 53 58 58 60 57 57 61 60 61 62 62
77 74 69 71 77 79 80 79 77 75 75 78 76 73 71 70 66 62 73 67 64 61 63 63 64 56 50 56 58 58 58 59 64 61 58 57 61 62 68 69 61 66 64
75 71 71 69 78 82 81 80 80 78 76 77 77 73 70 69 67 61 71 75 70 68 67 65 68 59 57 61 60 63 68 67 63 57 64 69 71 64 69 65 67 70 68
69 73 74 81 85 86 82 77 78 77 79 77 78 73 72 69 63 64 69 78 72 70 68 65 65 65 66 70 71 70 68 69 73 72 66 72 76 68 74 71 71 68 72

GFSSE_250_spd_108.txt.gz
Wind_Speed
48 47 45 43 39 37 36 35 34 31 28 28 25 24 25 25 23 22 22 19 18 19 19 17 14 13 11 11 12 14 14 15 16 16 17 17 17 18 19 18 19 19 19
55 52 50 46 43 40 38 37 35 35 33 31 30 27 26 27 24 21 23 23 20 20 20 20 19 16 15 15 15 15 16 17 17 16 16 15 17 18 19 19 19 19 20
55 54 55 51 45 45 41 39 38 36 36 35 33 32 29 28 26 22 23 23 23 20 19 21 22 19 18 17 18 17 17 18 18 16 16 17 19 19 19 18 19 19 19
58 58 58 55 51 49 46 43 41 39 39 38 38 35 34 31 29 26 24 23 22 21 19 20 22 23 21 20 20 20 20 20 18 17 16 17 19 19 21 19 20 18 19
60 58 58 57 54 51 50 48 46 44 42 40 40 38 36 35 33 30 28 27 26 24 23 22 22 24 24 23 22 22 22 22 20 17 17 17 19 19 19 19 21 22 19
60 60 59 58 56 55 54 55 55 53 49 44 42 41 40 37 37 35 32 30 29 29 27 26 25 25 25 26 24 24 23 23 20 17 16 19 20 20 20 22 23 24 22
55 61 64 64 61 61 59 58 59 57 55 52 50 46 45 43 41 40 38 34 33 31 31 31 30 29 28 28 27 26 26 24 22 20 20 18 19 20 22 22 23 25 24
46 48 50 57 63 66 67 64 61 60 59 58 56 53 51 49 46 45 42 41 38 34 32 32 34 34 31 30 30 29 28 27 25 22 21 19 20 19 23 25 27 28 27
37 39 42 45 52 55 60 61 62 62 62 61 59 57 55 52 50 48 46 44 43 40 38 35 35 34 34 33 32 31 29 27 25 24 24 24 25 27 26 29 28 29 28
37 36 39 40 41 47 53 58 62 64 64 64 63 63 62 60 57 56 54 50 48 46 44 39 37 36 34 33 32 31 30 28 28 28 29 30 31 33 33 29 28 32 33
43 38 40 39 39 40 40 44 49 56 64 69 68 66 64 64 62 60 58 56 52 51 50 46 43 42 38 36 34 32 32 31 31 29 32 34 33 35 37 33 34 38 38
51 45 42 38 40 41 39 36 40 46 49 58 64 67 67 67 66 64 62 62 60 56 54 53 51 48 46 42 39 38 37 37 37 36 36 37 38 36 39 39 39 43 41
51 51 45 39 40 42 41 43 44 43 46 48 55 62 65 67 68 69 66 67 65 62 59 57 54 54 52 49 46 44 43 43 42 39 41 42 43 41 43 42 44 46 46
59 55 49 48 46 43 47 49 45 42 47 47 47 52 58 64 68 71 71 71 70 67 65 62 60 56 54 53 53 51 48 48 49 49 46 47 48 47 48 51 44 49 44
69 60 57 58 54 52 51 48 48 48 45 45 42 45 50 55 59 64 67 70 75 74 72 70 65 62 57 56 53 52 53 51 51 53 51 51 51 49 51 50 46 51 53
76 72 66 62 58 57 59 56 53 51 51 48 49 46 47 50 54 57 60 65 71 71 73 74 71 68 64 61 58 55 54 53 55 55 56 56 54 55 59 59 60 61 52
80 78 74 68 60 63 58 61 57 57 61 54 50 50 53 47 52 59 60 62 62 67 70 70 73 73 69 64 63 63 60 59 57 57 61 60 60 60 62 61 59 60 55
82 82 80 75 68 64 64 61 58 61 65 57 57 54 57 54 49 51 56 62 65 62 62 66 70 75 72 74 68 68 66 63 61 61 61 60 62 60 61 61 61 63 56
79 83 80 76 72 69 69 66 64 57 61 59 56 54 51 54 52 48 55 59 55 56 55 59 63 67 73 78 79 74 72 67 61 61 60 61 60 64 64 62 62 49 49
78 79 80 76 75 72 71 66 66 64 63 62 61 59 58 52 51 53 45 44 48 53 42 65 64 62 65 61 64 64 66 67 60 56 61 62 62 64 60 56 53 50 40
77 74 74 78 74 73 70 69 67 69 69 65 64 62 60 60 60 59 54 55 54 52 60 65 67 67 64 63 55 56 60 60 57 59 56 58 62 61 57 54 55 48 44
77 80 77 72 73 71 71 72 68 67 68 69 66 65 66 66 65 67 65 57 51 51 55 57 62 68 71 65 60 60 54 55 54 54 55 57 59 58 59 57 49 52 53
72 79 82 74 74 70 70 72 71 70 65 67 72 74 75 70 68 68 69 67 61 59 55 60 60 65 66 64 62 59 54 55 52 54 57 61 64 61 54 55 54 58 56
72 75 77 75 71 72 69 68 70 76 75 73 72 75 77 75 71 69 70 71 67 64 61 61 65 64 63 67 63 63 64 58 49 58 61 61 59 60 57 63 62 61 61
74 75 78 80 73 77 74 72 73 77 82 81 79 76 77 76 73 73 70 69 71 65 64 63 64 68 63 61 68 64 64 56 56 61 60 62 59 62 66 64 65 65 66
67 65 67 74 74 75 79 81 83 80 79 81 79 79 77 76 74 75 73 72 71 68 66 68 67 69 63 64 64 68 66 66 63 64 60 61 61 65 64 65 66 65 68

GFSSE_250_spd_111.txt.gz
Wind_Speed
46 45 43 41 39 36 35 32 29 28 27 26 26 24 23 23 23 23 23 21 20 21 20 20 17 13 12 12 12 12 13 13 15 14 12 12 15 16 16 15 13 14 14
50 47 46 45 42 41 40 36 33 31 29 28 29 27 26 25 25 25 24 23 24 22 22 21 21 19 16 16 16 15 15 15 16 16 12 12 13 13 14 16 16 16 15
52 51 49 47 45 43 43 41 38 34 33 32 30 30 29 29 28 28 24 22 23 24 23 23 22 22 20 18 18 18 18 17 17 17 14 12 12 14 14 13 13 15 14
53 54 53 50 46 45 44 42 41 39 38 36 34 33 33 32 32 31 28 25 23 22 21 22 21 23 24 22 21 20 20 20 20 18 15 13 13 15 15 14 15 17 17
53 54 53 53 50 49 47 48 46 46 44 41 38 37 35 36 35 34 33 30 27 25 23 22 23 23 25 24 24 22 22 22 21 19 16 14 15 14 15 16 16 17 19
51 53 54 54 53 52 50 48 49 48 47 44 42 41 39 38 38 37 36 35 32 30 29 27 25 26 26 26 27 26 26 24 24 22 20 16 16 14 14 16 17 20 21
50 53 54 55 55 54 54 50 50 50 50 49 47 46 44 42 39 40 39 38 36 36 34 32 31 29 29 28 29 30 29 28 26 24 22 20 17 15 16 18 19 22 22
44 44 47 50 53 55 55 53 54 53 53 54 53 52 51 48 46 43 43 43 41 40 39 38 35 33 32 31 31 32 33 32 30 28 24 22 20 20 22 24 26 26 24
42 40 41 41 45 47 52 57 59 59 58 57 56 56 54 55 51 50 48 48 47 44 43 41 40 38 36 34 33 32 34 34 32 30 26 24 25 25 26 29 29 30 26
43 43 42 37 36 40 42 43 49 55 60 64 63 61 60 58 57 55 52 50 49 48 45 45 44 41 41 39 37 35 34 33 32 32 31 29 27 28 29 29 31 35 34
48 42 43 42 36 36 37 39 40 44 45 51 59 60 61 62 61 59 58 58 56 55 53 52 49 47 44 43 41 40 38 36 34 34 34 34 31 33 32 32 35 35 34
52 48 48 46 44 39 37 36 38 36 39 41 47 53 59 64 63 64 64 62 61 60 59 58 55 52 49 50 47 45 44 43 41 40 39 38 40 37 36 38 39 41 44
57 53 52 52 48 46 43 38 38 39 40 41 38 41 48 54 62 67 68 67 65 64 62 61 59 58 57 54 53 53 53 50 48 46 45 45 44 43 43 41 42 42 46
61 60 55 50 51 50 45 42 41 42 43 43 41 44 47 49 48 53 59 63 65 65 65 65 64 63 62 60 57 55 55 55 52 52 53 51 49 48 48 46 44 44 50
68 66 60 56 53 56 52 45 47 46 45 44 44 41 40 44 45 46 50 55 59 62 66 67 68 68 67 65 64 62 59 56 57 56 52 52 52 52 51 50 50 48 51
74 73 69 64 60 60 59 55 51 50 49 47 46 43 43 43 43 42 43 46 50 53 57 61 64 65 68 71 72 69 66 63 61 59 57 55 54 54 53 53 55 52 51
79 78 75 71 65 63 66 63 57 56 53 53 52 49 49 48 48 43 44 44 46 48 49 51 52 56 60 67 74 72 71 69 66 63 62 60 58 59 58 56 52 51 59
82 83 82 78 75 72 67 67 63 65 60 58 57 55 54 54 52 51 48 49 47 47 48 48 54 54 55 58 64 70 69 71 71 69 67 66 62 62 60 60 62 60 62
84 84 85 83 80 74 73 72 70 63 66 59 61 61 60 61 61 55 56 55 52 46 49 47 45 50 47 44 50 59 65 67 71 73 73 73 73 70 61 61 59 61 60
86 86 86 85 82 78 72 72 70 66 64 61 64 64 60 63 64 62 49 48 53 54 53 47 41 44 45 42 46 51 55 58 61 66 68 65 60 59 60 64 62 63 58
88 84 83 84 85 82 79 74 72 72 68 67 66 63 63 62 60 61 57 54 54 55 52 49 47 48 50 51 51 53 57 56 59 62 57 52 53 53 58 56 55 54 51
81 81 81 82 85 85 82 79 76 75 72 68 66 65 62 63 66 67 62 59 59 58 57 54 55 57 52 53 53 49 50 56 63 63 59 55 57 57 60 55 61 57 53
78 80 81 81 82 85 85 82 78 72 68 64 66 71 72 68 67 68 67 65 64 62 61 62 60 60 62 55 55 56 52 55 58 59 62 58 57 57 55 57 58 57 53
72 75 79 83 80 82 86 81 77 74 71 69 71 71 70 69 68 66 67 68 68 68 69 70 66 63 61 60 58 57 56 58 60 58 65 64 60 61 56 57 61 61 58
71 73 76 79 80 78 80 82 79 78 75 73 72 74 73 74 71 70 69 68 65 67 67 69 68 67 63 61 64 60 62 63 61 59 68 67 68 67 66 66 63 62 59
65 70 75 77 77 75 73 77 76 75 80 81 79 75 75 74 74 73 73 72 72 70 70 68 69 68 67 69 66 65 62 64 66 62 63 71 74 71 68 65 60 59 63

GFSSE_250_spd_114.txt.gz
Wind_Speed
45 44 41 41 40 36 32 31 29 25 24 27 27 26 23 23 21 21 22 22 22 22 21 20 19 18 14 13 14 14 14 14 14 15 13 12 12 11 10 9 9 10 9
51 50 47 46 44 40 38 34 33 31 27 26 28 27 25 26 25 24 24 23 23 23 24 23 22 20 19 17 17 16 16 15 14 14 15 12 9 10 10 9 8 9 9
52 49 50 47 45 42 40 38 37 35 33 30 28 30 29 28 29 28 27 27 24 24 23 24 23 21 22 20 19 19 20 18 16 16 15 12 10 9 9 8 9 12 12
51 51 47 46 45 44 42 41 40 38 38 34 32 31 30 31 32 31 31 31 28 26 25 24 22 20 21 22 22 21 21 21 20 19 16 14 12 12 11 8 11 10 14
47 49 50 48 49 49 47 45 42 41 39 37 36 35 34 34 35 35 34 34 32 30 28 27 26 24 22 23 24 24 25 24 24 23 21 18 16 16 13 12 12 13 15
47 47 48 50 50 51 49 48 47 45 43 42 42 41 40 39 36 37 38 37 36 33 32 32 30 29 27 26 25 27 27 27 29 27 25 21 19 18 15 13 16 18 20
47 47 47 48 49 50 51 49 49 48 48 47 46 44 42 42 40 40 40 39 39 37 35 35 34 33 33 31 30 29 28 29 30 30 31 29 25 20 19 20 22 22 25
43 47 44 45 46 48 50 51 51 50 53 51 50 48 47 46 46 44 43 42 42 41 40 39 38 37 36 36 35 33 32 31 32 33 33 31 28 25 22 24 24 25 25
38 39 41 40 43 46 48 50 51 54 53 53 52 52 51 51 51 50 49 48 46 45 44 44 44 42 40 39 38 37 36 36 35 34 33 32 31 29 28 28 27 29 28
41 40 39 39 39 37 39 44 46 44 50 55 56 56 55 55 55 54 53 53 51 51 50 48 47 46 46 43 41 40 40 40 39 38 36 34 32 33 33 33 32 32 32
47 43 43 42 41 40 34 34 38 44 38 40 47 57 62 62 60 60 58 56 57 56 55 52 48 47 48 47 46 44 44 43 41 42 41 40 38 36 35 37 39 38 35
53 50 46 47 44 45 46 39 36 36 40 40 37 38 45 52 61 66 65 62 62 60 58 56 54 53 54 54 55 53 51 47 48 47 46 45 44 43 42 42 43 42 41
58 57 54 52 50 47 51 49 41 38 37 37 36 38 36 38 45 53 60 64 66 64 62 62 63 62 61 59 58 57 55 54 53 53 54 54 51 51 48 48 49 48 45
65 63 60 56 54 54 54 54 51 44 42 40 38 36 43 42 42 47 50 55 62 65 66 65 66 66 66 64 62 61 61 60 59 57 56 55 56 55 51 50 49 50 48
72 71 68 62 59 60 57 59 60 52 49 45 42 43 45 45 44 43 42 44 48 50 55 62 65 67 65 66 66 66 66 67 65 64 61 61 60 59 58 55 51 50 48
79 77 75 71 68 61 61 60 64 61 57 49 48 48 47 46 46 45 43 41 44 43 43 47 52 57 61 63 66 67 69 69 68 68 68 67 66 65 63 61 59 56 54
84 84 82 79 76 69 65 67 63 67 60 55 52 51 50 49 48 48 46 45 44 43 42 40 40 41 44 48 52 52 55 58 63 66 70 71 70 69 67 65 63 61 57
91 88 87 84 82 78 72 69 66 68 64 61 56 53 55 52 51 52 50 51 48 47 43 43 43 43 44 45 47 50 54 54 55 58 62 68 72 69 69 70 68 67 65
94 92 91 89 87 86 81 75 73 70 68 69 63 60 62 57 55 57 56 56 56 54 53 46 50 49 45 45 45 46 47 47 49 50 49 52 59 66 67 67 69 73 70
96 94 92 89 89 89 87 80 77 74 71 72 73 70 66 65 62 60 62 61 60 60 58 55 50 48 49 47 44 43 45 46 49 49 49 50 53 55 57 53 54 55 47
100 97 95 92 92 91 90 85 81 78 82 77 80 77 72 68 71 66 66 66 64 62 65 63 56 54 51 50 50 51 48 47 50 52 53 54 57 55 51 49 51 47 51
94 98 95 97 94 92 92 91 87 83 83 82 81 75 73 74 72 73 71 68 67 66 62 62 56 59 56 58 54 53 54 54 54 55 53 57 54 54 54 55 55 52 57
87 91 94 97 96 94 94 93 91 87 82 79 78 76 79 75 73 73 73 70 69 66 66 64 64 64 64 60 60 58 56 59 59 56 55 57 57 54 53 56 64 61 61
83 85 86 90 90 86 87 88 89 88 85 83 83 82 80 77 74 75 73 72 72 71 68 67 66 67 68 66 66 64 62 61 58 58 54 58 60 60 57 57 63 69 69
81 79 81 84 85 84 82 83 88 89 88 87 85 84 81 78 73 74 76 74 74 73 71 69 68 67 64 65 61 63 64 61 61 63 60 61 61 64 64 61 62 68 70
72 71 72 76 77 78 80 80 82 86 87 88 88 83 80 80 78 78 78 77 74 73 72 72 71 72 71 69 67 67 69 66 64 68 69 70 66 65 68 68 66 70 72

GFSSE_250_spd_117.txt.gz
Wind_Speed
43 42 39 38 35 33 32 29 27 27 27 25 22 24 27 26 25 23 22 20 21 21 23 22 19 19 19 15 13 15 15 15 16 16 15 16 13 9 8 8 6 7 8
44 45 46 44 42 40 38 37 34 31 29 29 25 24 27 28 26 25 25 24 22 23 23 24 23 20 20 19 18 16 17 17 18 17 16 16 15 11 10 7 7 8 9
51 51 50 50 48 45 44 41 38 36 34 33 31 29 27 29 28 27 26 26 26 26 25 24 25 22 20 21 18 18 18 19 19 18 18 17 16 13 12 8 8 9 8
52 51 50 50 50 48 46 43 41 38 35 35 33 32 32 30 31 30 29 28 29 28 29 27 26 26 23 22 22 20 20 20 20 22 21 20 18 17 17 13 11 10 11
49 48 49 50 49 49 47 44 41 41 39 38 38 37 35 33 32 34 32 32 32 31 30 30 30 28 27 26 25 25 25 24 24 24 25 24 23 22 21 19 15 13 16
45 46 44 45 47 49 48 47 45 44 43 41 40 38 37 37 37 37 37 36 35 34 33 33 32 32 32 30 29 28 29 29 28 28 27 27 27 26 24 22 20 18 21
40 44 44 46 47 47 48 50 49 48 47 45 43 42 42 41 41 40 41 40 39 37 36 35 35 34 34 34 33 32 32 32 32 31 30 30 30 29 27 25 25 24 24
36 38 42 44 46 46 46 50 52 53 51 48 46 46 45 45 45 44 44 43 42 41 41 39 37 37 37 36 36 36 36 36 33 33 33 34 33 32 30 27 27 28 28
38 36 37 40 45 46 46 46 51 49 49 51 48 48 49 50 49 48 47 46 45 45 43 42 42 41 41 39 40 40 39 38 37 37 37 36 36 35 34 31 30 32 33
42 41 39 39 38 41 37 42 47 48 49 48 49 52 51 52 51 51 50 51 49 48 49 48 48 47 47 45 45 43 43 42 41 39 40 41 40 39 39 37 36 33 37
46 45 44 43 41 40 41 38 37 43 47 47 46 43 49 55 55 56 55 55 54 52 52 53 53 52 50 49 47 46 43 45 45 45 45 44 44 43 44 44 41 41 42
53 50 47 47 46 43 42 42 41 39 38 38 38 41 40 39 43 53 59 61 61 60 59 57 57 56 55 54 53 51 50 50 51 51 50 50 48 47 49 49 50 49 48
59 58 54 52 53 50 47 47 43 45 40 39 36 36 38 38 37 33 41 48 56 62 64 64 62 61 60 59 58 58 58 60 58 57 55 56 54 54 53 54 53 53 51
70 66 63 61 57 58 55 52 50 48 50 43 42 40 39 35 34 37 43 42 43 44 51 60 64 64 64 64 63 62 63 63 63 63 61 60 59 60 60 58 58 56 56
74 75 71 67 65 62 62 57 56 55 53 55 48 46 44 43 43 41 45 43 41 41 42 46 51 55 58 62 64 67 68 68 68 67 66 66 67 67 65 65 65 62 60
83 81 80 76 72 70 67 65 62 61 58 57 58 55 51 46 46 49 49 51 48 43 40 40 40 42 43 46 51 56 61 64 66 66 67 68 69 69 69 68 65 64 65
88 88 88 84 82 79 76 73 69 65 66 61 62 61 58 54 51 51 52 49 48 45 44 43 42 42 40 37 37 38 42 44 47 46 48 48 51 55 57 59 60 62 65
92 91 92 92 90 87 84 81 76 72 68 66 65 67 63 60 58 57 54 53 53 49 50 49 49 47 45 40 41 41 44 44 45 46 47 45 46 50 52 55 55 55 58
96 95 95 95 94 94 92 88 83 77 75 72 70 68 69 70 65 62 56 54 51 50 52 52 53 54 50 49 46 48 47 47 47 48 47 47 46 47 45 43 45 45 49
104 103 102 99 96 96 96 94 90 84 81 78 76 73 73 72 70 65 60 56 51 51 53 54 55 55 54 53 54 53 49 50 47 50 50 48 45 49 48 49 47 49 49
110 111 109 105 102 100 98 96 95 92 89 84 82 84 78 78 73 70 68 68 63 60 59 58 59 61 62 58 53 57 52 53 54 55 53 54 54 52 51 53 51 50 52
103 103 104 106 107 104 102 100 99 97 96 91 88 87 85 81 80 77 74 75 71 72 67 67 65 67 68 65 63 60 58 55 60 58 57 59 56 57 54 53 54 52 54
95 97 100 99 100 99 101 102 99 99 98 95 92 90 88 86 84 82 78 81 78 78 71 75 72 68 69 67 66 63 63 65 63 62 61 62 63 60 58 52 53 53 56
90 92 94 97 96 94 94 96 99 99 100 100 96 93 91 91 89 87 86 84 86 84 79 74 75 72 72 70 69 70 66 67 64 67 65 65 64 59 60 57 55 56 61
81 83 85 87 88 87 88 89 92 94 97 99 99 97 94 92 90 90 91 87 83 86 85 78 76 73 73 73 70 73 71 70 67 62 64 61 66 65 62 64 62 64 65
73 74 75 75 79 81 81 84 87 88 92 96 97 97 97 95 94 93 94 89 85 84 82 82 80 77 76 73 74 75 72 73 71 69 68 69 69 70 72 67 70 70 70